[[{"header":{"parameterUnit":"m.s-1","parameterCategory":1,"la1":30.6,"la2":28.766,"lo1":-90.7593,"lo2":-88.6598,"dy":0.0162,"dx":0.0183,"nx":116,"ny":114,"refTime":"2023-04-12T06:00:00:Z","depth":0,"parameterNumber":2,"parameterNumberName":"U-component_of_WINDS"},"data":[0.0,0.0,0.0,0.0,0.0,0.0,0.0,0.0,0.0,0.0,0.0,0.0,0.0,0.0,0.0,0.0,0.0,0.0,0.0,0.0,0.0,0.0,0.0,0.0,0.0,0.0,0.0,0.0,0.0,0.0,0.0,0.0,0.0,0.0,0.0,0.0,0.0,0.0,0.0,0.0,0.0,0.0,0.0,0.0,0.0,0.0,0.0,0.0,0.0,0.0,0.0,0.0,0.0,0.0,0.0,0.0,0.0,0.0,0.0,0.0,0.0,0.0,0.0,0.0,0.0,0.0,0.0,0.0,0.0,0.0,0.0,0.0,0.0,0.0,0.0,0.0,0.0,0.0,0.0,0.0,0.0,0.0,0.0,0.0,0.0,0.0,0.0,0.0,0.0,0.0,0.0,0.0,0.0,0.0,0.0,0.0,0.0,0.0,0.0,0.0,0.0,0.0,0.0,0.0,0.0,0.0,0.0,0.0,0.0,0.0,0.0,0.0,0.0,0.0,0.0,0.0,0.0,0.0,0.0,0.0,0.0,0.0,0.0,0.0,0.0,0.0,0.0,0.0,0.0,0.0,0.0,0.0,0.0,0.0,0.0,0.0,0.0,0.0,0.0,0.0,0.0,0.0,0.0,0.0,0.0,0.0,0.0,0.0,0.0,0.0,0.0,0.0,0.0,0.0,0.0,0.0,0.0,0.0,0.0,0.0,0.0,0.0,0.0,0.0,0.0,0.0,0.0,0.0,0.0,0.0,0.0,0.0,0.0,0.0,0.0,0.0,0.0,0.0,0.0,0.0,0.0,0.0,0.0,0.0,0.0,0.0,0.0,0.0,0.0,0.0,0.0,0.0,0.0,0.0,0.0,0.0,0.0,0.0,0.0,0.0,0.0,0.0,0.0,0.0,0.0,0.0,0.0,0.0,0.0,0.0,0.0,0.0,0.0,0.0,0.0,0.0,0.0,0.0,0.0,0.0,0.0,0.0,0.0,0.0,0.0,0.0,0.0,0.0,0.0,0.0,0.0,0.0,0.0,0.0,0.0,0.0,0.0,0.0,0.0,0.0,0.0,0.0,0.0,0.0,0.0,0.0,0.0,0.0,0.0,0.0,0.0,0.0,0.0,0.0,0.0,0.0,0.0,0.0,0.0,0.0,0.0,0.0,0.0,0.0,0.0,0.0,0.0,0.0,0.0,0.0,0.0,0.0,0.0,0.0,0.0,0.0,0.0,0.0,0.0,0.0,0.0,0.0,0.0,0.0,0.0,0.0,0.0,0.0,0.0,0.0,0.0,0.0,0.0,0.0,0.0,0.0,0.0,0.0,0.0,0.0,0.0,0.0,0.0,0.0,0.0,0.0,0.0,0.0,0.0,0.0,0.0,0.0,0.0,0.0,0.0,0.0,0.0,0.0,0.0,0.0,0.0,0.0,0.0,0.0,0.0,0.0,0.0,0.0,0.0,0.0,0.0,0.0,0.0,0.0,0.0,0.0,0.0,0.0,0.0,0.0,0.0,0.0,0.0,0.0,0.0,0.0,0.0,0.0,0.0,0.0,0.0,0.0,0.0,0.0,0.0,0.0,0.0,0.0,0.0,0.0,0.0,0.0,0.0,0.0,0.0,0.0,0.0,0.0,0.0,0.0,0.0,0.0,0.0,0.0,0.0,0.0,0.0,0.0,0.0,0.0,0.0,0.0,0.0,0.0,0.0,0.0,0.0,0.0,0.0,0.0,0.0,0.0,0.0,0.0,0.0,0.0,0.0,0.0,0.0,0.0,0.0,0.0,0.0,0.0,0.0,0.0,0.0,0.0,0.0,0.0,0.0,0.0,0.0,0.0,0.0,0.0,0.0,0.0,0.0,0.0,0.0,0.0,0.0,0.0,0.0,0.0,0.0,0.0,0.0,0.0,0.0,0.0,0.0,0.0,0.0,0.0,0.0,0.0,0.0,0.0,0.0,0.0,0.0,0.0,0.0,0.0,0.0,0.0,0.0,0.0,0.0,0.0,0.0,0.0,0.0,0.0,0.0,0.0,0.0,0.0,0.0,0.0,0.0,0.0,0.0,0.0,0.0,0.0,0.0,0.0,0.0,0.0,0.0,0.0,0.0,0.0,0.0,0.0,0.0,0.0,0.0,0.0,0.0,0.0,0.0,0.0,0.0,0.0,0.0,0.0,0.0,0.0,0.0,0.0,0.0,0.0,0.0,0.0,0.0,0.0,0.0,0.0,0.0,0.0,0.0,0.0,0.0,0.0,0.0,0.0,0.0,0.0,0.0,0.0,0.0,0.0,0.0,0.0,0.0,0.0,0.0,0.0,0.0,0.0,0.0,0.0,0.0,0.0,0.0,0.0,0.0,0.0,0.0,0.0,0.0,0.0,0.0,0.0,0.0,0.0,0.0,0.0,0.0,0.0,0.0,0.0,0.0,0.0,0.0,0.0,0.0,0.0,0.0,0.0,0.0,0.0,0.0,0.0,0.0,0.0,0.0,0.0,0.0,0.0,0.0,0.0,0.0,0.0,0.0,0.0,0.0,0.0,0.0,0.0,0.0,0.0,0.0,0.0,0.0,0.0,0.0,0.0,0.0,0.0,0.0,0.0,0.0,0.0,0.0,0.0,0.0,0.0,0.0,0.0,0.0,0.0,0.0,0.0,0.0,0.0,0.0,0.0,0.0,0.0,0.0,0.0,0.0,0.0,0.0,0.0,0.0,0.0,0.0,0.0,0.0,0.0,0.0,0.0,0.0,0.0,0.0,0.0,0.0,0.0,0.0,0.0,0.0,0.0,0.0,0.0,0.0,0.0,0.0,0.0,0.0,0.0,0.0,0.0,0.0,0.0,0.0,0.0,0.0,0.0,0.0,0.0,0.0,0.0,0.0,0.0,0.0,0.0,0.0,0.0,0.0,0.0,0.0,0.0,0.0,0.0,0.0,0.0,0.0,0.0,0.0,0.0,0.0,0.0,0.0,0.0,0.0,0.0,0.0,0.0,0.0,0.0,0.0,0.0,0.0,0.0,0.0,0.0,0.0,0.0,0.0,0.0,0.0,0.0,0.0,0.0,0.0,0.0,0.0,0.0,0.0,0.0,0.0,0.0,0.0,0.0,0.0,0.0,0.0,0.0,0.0,0.0,0.0,0.0,0.0,0.0,0.0,0.0,0.0,0.0,0.0,0.0,0.0,0.0,0.0,0.0,0.0,0.0,0.0,0.0,0.0,0.0,0.0,0.0,0.0,0.0,0.0,0.0,0.0,0.0,0.0,0.0,0.0,0.0,0.0,0.0,0.0,0.0,0.0,0.0,0.0,0.0,0.0,0.0,0.0,0.0,0.0,0.0,0.0,0.0,0.0,0.0,0.0,0.0,0.0,0.0,0.0,0.0,0.0,0.0,0.0,0.0,0.0,0.0,0.0,0.0,0.0,0.0,0.0,0.0,0.0,0.0,0.0,0.0,0.0,0.0,0.0,0.0,0.0,0.0,0.0,0.0,0.0,0.0,0.0,0.0,0.0,0.0,0.0,0.0,0.0,0.0,0.0,0.0,0.0,0.0,0.0,0.0,0.0,0.0,0.0,0.0,0.0,0.0,0.0,0.0,0.0,0.0,0.0,0.0,0.0,0.0,0.0,0.0,0.0,0.0,0.0,0.0,0.0,0.0,0.0,0.0,0.0,0.0,0.0,0.0,0.0,0.0,0.0,0.0,0.0,0.0,0.0,0.0,0.0,0.0,0.0,0.0,0.0,0.0,0.0,0.0,0.0,0.0,0.0,0.0,0.0,0.0,0.0,0.0,0.0,0.0,0.0,0.0,0.0,0.0,0.0,0.0,0.0,0.0,0.0,0.0,0.0,0.0,0.0,0.0,0.0,0.0,0.0,0.0,0.0,0.0,0.0,0.0,0.0,0.0,0.0,0.0,0.0,0.0,0.0,0.0,0.0,0.0,0.0,0.0,0.0,0.0,0.0,0.0,0.0,0.0,0.0,0.0,0.0,0.0,0.0,0.0,0.0,0.0,0.0,0.0,0.0,0.0,0.0,0.0,0.0,0.0,0.0,0.0,0.0,0.0,0.0,0.0,0.0,0.0,0.0,0.0,0.0,0.0,0.0,0.0,0.0,0.0,0.0,0.0,0.0,0.0,0.0,0.0,0.0,0.0,0.0,0.0,0.0,0.0,0.0,0.0,0.0,0.0,0.0,0.0,0.0,0.0,0.0,0.0,0.0,0.0,0.0,0.0,0.0,0.0,0.0,0.0,0.0,0.0,0.0,0.0,0.0,0.0,0.0,0.0,0.0,0.0,0.0,0.0,0.0,0.0,0.0,0.0,0.0,0.0,0.0,0.0,0.0,0.0,0.0,0.0,0.0,0.0,0.0,0.0,0.0,0.0,0.0,0.0,0.0,0.0,0.0,0.0,0.0,0.0,0.0,0.0,0.0,0.0,0.0,0.0,0.0,0.0,0.0,0.0,0.0,0.0,0.0,0.0,0.0,0.0,0.0,0.0,0.0,0.0,0.0,0.0,0.0,0.0,0.0,0.0,0.0,0.0,0.0,0.0,0.0,0.0,0.0,0.0,0.0,0.0,0.0,0.0,0.0,0.0,0.0,0.0,0.0,0.0,0.0,0.0,0.0,0.0,0.0,0.0,0.0,0.0,0.0,0.0,0.0,0.0,0.0,0.0,0.0,0.0,0.0,0.0,0.0,0.0,0.0,0.0,0.0,0.0,0.0,0.0,0.0,0.0,0.0,0.0,0.0,0.0,0.0,0.0,0.0,0.0,0.0,0.0,0.0,0.0,0.0,0.0,0.0,0.0,0.0,0.0,0.0,0.0,0.0,0.0,0.0,0.0,0.0,0.0,0.0,0.0,0.0,0.0,0.0,0.0,0.0,0.0,0.0,0.0,0.0,0.0,0.0,0.0,0.0,0.0,0.0,0.0,0.0,0.0,0.0,0.0,0.0,0.0,0.0,0.0,0.0,0.0,0.0,0.0,0.0,0.0,0.0,0.0,0.0,0.0,0.0,0.0,0.0,0.0,0.0,0.0,0.0,0.0,0.0,0.0,0.0,0.0,0.0,0.0,0.0,0.0,0.0,0.0,0.0,0.0,0.0,0.0,0.0,0.0,0.0,0.0,0.0,0.0,0.0,0.0,0.0,0.0,0.0,0.0,0.0,0.0,0.0,0.0,0.0,0.0,0.0,0.0,0.0,0.0,0.0,0.0,0.0,0.0,0.0,0.0,0.0,0.0,0.0,0.0,0.0,0.0,0.0,0.0,0.0,0.0,0.0,0.0,0.0,0.0,0.0,0.0,0.0,0.0,0.0,0.0,0.0,0.0,0.0,0.0,0.0,0.0,0.0,0.0,0.0,0.0,0.0,0.0,0.0,0.0,0.0,0.0,0.0,0.0,0.0,0.0,0.0,0.0,0.0,0.0,0.0,0.0,0.0,0.0,0.0,0.0,0.0,0.0,0.0,0.0,0.0,0.0,0.0,0.0,0.0,0.0,0.0,0.0,0.0,0.0,0.0,0.0,0.0,0.0,0.0,0.0,0.0,0.0,0.0,0.0,0.0,0.0,0.0,0.0,0.0,0.0,0.0,0.0,0.0,0.0,0.0,0.0,0.0,0.0,0.0,0.0,0.0,0.0,0.0,0.0,0.0,0.0,0.0,0.0,0.0,0.0,0.0,0.0,0.0,0.0,0.0,0.0,0.0,0.0,0.0,0.0,0.0,0.0,0.0,0.0,0.0,0.0,0.0,0.0,0.0,0.0,0.0,0.0,0.0,0.0,0.0,0.0,0.0,0.0,0.0,0.0,0.0,0.0,0.0,0.0,0.0,0.0,0.0,0.0,0.0,0.0,0.0,0.0,0.0,0.0,0.0,0.0,0.0,0.0,0.0,0.0,0.0,0.0,0.0,0.0,0.0,0.0,0.0,0.0,0.0,0.0,0.0,0.0,0.0,0.0,0.0,0.0,0.0,0.0,0.0,0.0,0.0,0.0,0.0,0.0,0.0,0.0,0.0,0.0,0.0,0.0,0.0,0.0,0.0,0.0,0.0,0.0,0.0,0.0,0.0,0.0,0.0,0.0,0.0,0.0,0.0,0.0,0.0,0.0,0.0,0.0,5.7901,6.2069,0.0,0.0,0.0,0.0,0.0,0.0,0.0,0.0,0.0,0.0,0.0,0.0,0.0,0.0,0.0,0.0,0.0,0.0,0.0,0.0,0.0,0.0,0.0,0.0,0.0,0.0,0.0,0.0,0.0,0.0,0.0,0.0,0.0,0.0,0.0,0.0,0.0,5.6652,5.4961,5.3379,5.1877,5.0762,4.9611,4.8164,0.0,0.0,0.0,0.0,0.0,0.0,0.0,0.0,0.0,0.0,0.0,0.0,0.0,0.0,0.0,0.0,0.0,0.0,0.0,0.0,0.0,0.0,0.0,0.0,0.0,0.0,0.0,0.0,0.0,0.0,0.0,0.0,0.0,0.0,0.0,0.0,0.0,0.0,0.0,0.0,0.0,0.0,0.0,0.0,0.0,0.0,0.0,0.0,0.0,0.0,0.0,0.0,0.0,0.0,0.0,0.0,0.0,0.0,0.0,0.0,0.0,0.0,0.0,0.0,0.0,0.0,0.0,0.0,0.0,0.0,5.8252,5.8943,0.0,0.0,0.0,0.0,0.0,0.0,0.0,0.0,0.0,0.0,0.0,0.0,0.0,0.0,0.0,0.0,0.0,0.0,0.0,0.0,0.0,0.0,0.0,6.3828,6.1523,5.7591,5.7989,5.7037,0.0,0.0,0.0,0.0,0.0,0.0,5.9257,5.8036,5.6928,5.6196,5.4323,5.2809,5.1641,5.1641,5.1094,5.0078,5.2086,0.0,0.0,0.0,0.0,0.0,0.0,0.0,0.0,0.0,0.0,0.0,0.0,0.0,0.0,0.0,0.0,0.0,0.0,0.0,0.0,0.0,0.0,0.0,0.0,0.0,0.0,0.0,0.0,0.0,0.0,0.0,0.0,0.0,0.0,0.0,0.0,0.0,0.0,0.0,0.0,0.0,0.0,0.0,0.0,0.0,0.0,0.0,0.0,0.0,0.0,0.0,0.0,0.0,0.0,0.0,0.0,0.0,0.0,0.0,0.0,0.0,0.0,0.0,5.3486,5.6034,6.1009,6.059,5.9659,5.8753,5.9097,5.5832,5.1034,5.8308,0.0,0.0,0.0,0.0,0.0,0.0,0.0,0.0,0.0,0.0,0.0,0.0,0.0,0.0,0.0,0.0,0.0,0.0,0.0,0.0,0.0,6.3619,6.2085,5.8868,5.8187,5.7103,5.5182,0.0,0.0,0.0,0.0,0.0,6.1517,5.8617,5.7402,5.8206,5.4553,5.262,5.2539,5.2539,5.2461,5.2266,5.1873,5.3962,5.8246,0.0,0.0,0.0,0.0,0.0,0.0,0.0,0.0,0.0,0.0,0.0,0.0,0.0,0.0,0.0,0.0,0.0,0.0,0.0,0.0,0.0,0.0,0.0,0.0,0.0,0.0,0.0,0.0,0.0,0.0,0.0,0.0,0.0,0.0,0.0,0.0,0.0,0.0,0.0,0.0,0.0,5.7762,5.8756,0.0,0.0,0.0,0.0,0.0,0.0,0.0,0.0,0.0,0.0,0.0,0.0,0.0,5.9159,5.9424,5.6013,5.452,5.4503,5.0439,4.977,5.1942,5.19,5.3256,5.5258,5.5072,0.0,5.4238,5.4621,0.0,0.0,0.0,0.0,0.0,0.0,0.0,0.0,0.0,0.0,0.0,0.0,0.0,0.0,0.0,0.0,0.0,0.0,0.0,0.0,0.0,6.3209,6.1432,5.8076,5.9024,5.8641,5.6037,5.8102,0.0,0.0,0.0,6.1768,6.3375,5.9844,5.7262,5.5931,5.4484,5.3945,5.418,5.418,5.418,5.4141,5.3789,5.4998,5.7582,6.0568,0.0,0.0,0.0,0.0,0.0,0.0,0.0,0.0,0.0,0.0,0.0,0.0,0.0,0.0,0.0,0.0,0.0,0.0,0.0,0.0,0.0,0.0,0.0,0.0,0.0,0.0,0.0,0.0,0.0,0.0,0.0,0.0,0.0,0.0,0.0,0.0,0.0,0.0,0.0,5.8647,6.1203,6.1634,6.3989,6.6042,0.0,0.0,0.0,0.0,0.0,0.0,0.0,0.0,0.0,5.7178,5.7502,5.7192,5.5828,5.3797,5.3185,5.3912,5.2106,5.2447,5.4672,5.4672,5.6038,5.8181,5.7431,5.6198,5.4556,5.341,5.4632,5.7254,0.0,0.0,0.0,0.0,6.6538,6.7292,0.0,0.0,0.0,0.0,0.0,0.0,0.0,0.0,0.0,0.0,0.0,0.0,6.3506,6.2256,6.0546,5.862,5.9763,6.0011,5.7951,6.0362,6.1617,6.1215,6.2621,6.3544,6.3984,6.0204,5.7056,5.4531,5.4844,5.5234,5.5625,5.5625,5.5625,5.5625,5.5625,5.6168,5.741,6.1032,6.3339,6.4395,0.0,0.0,0.0,0.0,0.0,0.0,0.0,0.0,0.0,0.0,0.0,0.0,0.0,0.0,0.0,0.0,0.0,0.0,0.0,0.0,0.0,0.0,0.0,0.0,0.0,0.0,0.0,0.0,0.0,0.0,0.0,0.0,0.0,0.0,0.0,0.0,0.0,6.0628,6.2391,6.3265,6.4157,6.5917,0.0,0.0,0.0,0.0,0.0,0.0,5.8003,5.942,5.9053,5.6301,5.6558,5.5828,5.3691,5.345,5.3828,5.5,5.5351,5.6464,5.858,5.8662,5.9448,6.0441,5.9627,5.741,5.4553,5.3052,5.2896,5.4068,5.6148,6.0616,6.5868,6.5063,6.6086,6.7292,0.0,0.0,0.0,0.0,0.0,0.0,0.0,0.0,0.0,0.0,0.0,6.2912,6.314,6.0618,5.9747,6.1668,6.0379,6.0468,6.237,6.1718,6.1918,6.3475,6.458,6.4358,6.235,5.9299,5.7065,5.582,5.5859,5.6094,5.6523,5.6523,5.6523,5.6523,5.6523,5.741,5.9145,5.9347,6.1729,6.5303,6.5489,0.0,0.0,0.0,0.0,0.0,0.0,0.0,0.0,0.0,0.0,0.0,0.0,0.0,0.0,0.0,0.0,0.0,0.0,0.0,0.0,0.0,0.0,0.0,0.0,0.0,0.0,0.0,0.0,0.0,0.0,0.0,0.0,0.0,0.0,0.0,0.0,0.0,0.0,6.0748,5.9475,0.0,0.0,0.0,0.0,5.8591,6.0183,5.8829,5.341,5.5061,5.5258,5.3054,5.4502,5.6149,5.7639,5.793,5.8594,5.9453,5.9531,5.9531,5.9795,6.0187,5.9874,5.9351,5.8878,5.7482,5.5691,5.264,5.2932,5.5298,5.7222,6.1948,6.7345,6.5868,6.5685,6.5584,0.0,0.0,0.0,0.0,0.0,0.0,0.0,0.0,6.4357,6.3328,6.239,6.1931,6.1844,6.1699,6.1327,6.0993,6.1634,6.237,6.2822,6.3776,6.4781,6.5785,6.684,6.5933,6.2761,6.0885,5.9072,5.7187,5.7734,5.8086,5.8242,5.8242,5.8242,5.8242,5.8242,5.8327,5.8733,5.9409,6.1503,6.4508,6.5964,6.7504,0.0,0.0,0.0,0.0,0.0,0.0,0.0,0.0,0.0,0.0,0.0,0.0,0.0,0.0,0.0,0.0,0.0,0.0,0.0,0.0,0.0,0.0,0.0,0.0,0.0,0.0,0.0,0.0,0.0,0.0,0.0,0.0,0.0,0.0,0.0,0.0,0.0,6.7156,6.6187,0.0,6.6061,6.3921,6.1641,5.9972,5.7966,5.6275,5.5586,5.6875,5.75,5.7305,5.8437,5.9297,5.9922,6.039,6.0742,6.1015,6.1015,6.1015,6.1015,6.1211,6.1094,6.0781,6.039,6.0573,6.1131,5.9114,5.8019,5.7555,5.9131,6.2161,6.5615,6.4993,6.5333,6.5936,0.0,0.0,0.0,0.0,0.0,0.0,0.0,0.0,6.2282,6.1727,6.1154,6.1038,6.1711,6.2582,6.3252,6.3187,6.3977,6.4731,6.5283,6.5986,6.689,6.8045,6.742,6.5586,6.256,6.1034,5.9672,5.8711,5.9453,6.0,6.0273,6.0117,6.0117,6.0234,6.0117,5.9805,5.9336,5.9888,6.1744,6.4393,6.5725,6.7773,7.0255,0.0,0.0,0.0,0.0,0.0,0.0,0.0,0.0,0.0,0.0,0.0,0.0,0.0,0.0,0.0,0.0,0.0,0.0,0.0,0.0,0.0,0.0,0.0,0.0,0.0,0.0,0.0,0.0,0.0,0.0,0.0,0.0,0.0,0.0,6.7911,6.9401,7.2163,6.9422,6.7869,6.9196,6.408,6.0634,6.0021,5.7588,5.707,5.9062,5.9883,6.0742,6.1719,6.2305,6.2695,6.2812,6.3086,6.3164,6.3047,6.3047,6.293,6.2812,6.2812,6.2656,6.2344,6.1953,6.3012,6.4907,6.4509,6.3887,6.3325,6.2988,6.4499,6.6739,6.689,6.7342,6.7794,0.0,0.0,0.0,0.0,0.0,0.0,6.41,6.2152,6.0634,6.0634,6.0146,6.0658,6.2824,6.3549,6.5183,6.8396,6.7191,6.7392,7.0104,6.8296,6.8095,7.0305,6.6043,6.304,6.1829,5.9637,5.9297,6.0508,6.0976,6.1601,6.2422,6.2031,6.207,6.2422,6.2226,6.1795,6.1364,6.0932,6.2721,6.5513,6.4773,6.7461,7.1811,0.0,0.0,0.0,0.0,0.0,0.0,0.0,0.0,0.0,0.0,0.0,0.0,0.0,0.0,0.0,0.0,0.0,0.0,0.0,0.0,0.0,0.0,0.0,0.0,0.0,0.0,0.0,0.0,0.0,0.0,0.0,0.0,0.0,6.7106,6.9136,7.2263,7.5025,6.8277,6.4548,6.7183,6.1029,5.7344,5.8633,5.9922,6.1367,6.3086,6.3555,6.4375,6.5625,6.5664,6.582,6.6289,6.6211,6.6055,6.5625,6.5586,6.539,6.5,6.4961,6.4492,6.3991,6.352,6.4613,6.6833,6.8503,7.0626,7.2748,6.9066,6.9054,7.1259,7.1811,7.1661,7.1108,0.0,0.0,0.0,0.0,0.0,0.0,6.3796,6.1342,5.9515,6.0367,6.1028,6.2058,6.389,6.6379,6.8547,7.0255,6.925,6.92,7.0757,6.9903,6.9734,7.0613,6.5041,6.2508,6.3753,6.2074,6.164,6.2344,6.3398,6.4023,6.4258,6.4414,6.4414,6.4219,6.6427,6.6916,6.6074,6.8151,7.0218,7.1472,6.7733,6.8633,7.2464,0.0,0.0,0.0,0.0,0.0,0.0,0.0,0.0,0.0,0.0,0.0,0.0,0.0,0.0,0.0,0.0,0.0,0.0,0.0,0.0,0.0,0.0,0.0,0.0,0.0,0.0,0.0,0.0,0.0,0.0,0.0,6.7619,7.0519,7.0129,7.2716,7.5427,7.7385,7.3158,7.0264,7.0122,6.6803,6.436,6.3324,6.4375,6.543,6.6211,6.668,6.7109,6.7461,6.7148,6.7031,6.7148,6.6836,6.664,6.6523,6.6211,6.5976,6.5859,6.5547,6.6463,6.8566,6.7873,7.0501,7.4884,7.4945,7.6144,7.7862,7.4392,7.3492,7.4071,7.382,7.3619,7.3136,0.0,0.0,0.0,0.0,0.0,0.0,6.2363,6.0208,5.8766,5.9643,6.1799,6.3827,6.5032,6.8346,7.0907,7.2012,7.1108,7.0958,7.2062,7.1476,7.0609,6.9685,6.5627,6.3673,6.4469,6.3878,6.3867,6.4648,6.5586,6.6211,6.6562,6.8066,6.8773,6.8692,7.1625,7.2441,7.1226,7.263,7.4108,7.5001,7.1657,7.1828,7.4071,7.3619,7.2765,7.1711,7.1158,7.0606,7.0054,6.9501,0.0,0.0,0.0,0.0,0.0,0.0,0.0,0.0,0.0,0.0,0.0,0.0,0.0,0.0,0.0,0.0,0.0,0.0,0.0,0.0,0.0,0.0,0.0,0.0,6.9999,7.3014,7.3438,7.5495,7.7276,7.8453,7.5993,7.3674,7.1821,6.9328,6.7553,6.6758,6.7539,6.8203,6.8828,6.8945,6.9062,6.9219,6.8828,6.8476,6.8281,6.8086,6.7773,6.7422,6.7148,6.7031,6.7031,6.8026,6.9395,7.1099,7.1749,7.4662,7.8378,7.8045,7.9273,8.0951,0.0,0.0,0.0,0.0,7.5226,7.5034,0.0,0.0,0.0,0.0,0.0,0.0,6.0539,5.9148,5.8202,5.8855,6.2722,6.5534,6.5986,6.9602,7.2464,7.3569,7.2715,7.2615,7.377,7.2494,7.0751,6.8659,6.7144,6.5812,6.4726,6.5234,6.6094,6.7305,6.8285,6.8915,6.9883,7.2993,7.4509,7.4973,7.7528,7.7986,7.6943,7.6131,7.6397,7.7318,7.6359,7.593,7.613,7.5025,7.392,7.2916,7.2263,7.1661,7.1158,7.0556,0.0,0.0,0.0,0.0,0.0,0.0,0.0,0.0,0.0,0.0,0.0,0.0,0.0,0.0,0.0,0.0,0.0,0.0,0.0,0.0,0.0,0.0,0.0,0.0,7.4309,7.696,7.5909,7.7148,7.8368,7.8924,7.7087,7.5054,7.2703,6.9999,6.8867,6.9687,6.9805,7.0156,7.0898,7.0625,0.0,0.0,0.0,7.0195,6.9805,6.9726,6.9258,6.8476,6.8359,6.8578,6.9054,7.1454,7.2693,7.3004,7.5613,7.7886,7.9812,7.9812,8.0856,8.2658,8.0499,7.8992,7.7938,7.6933,7.6633,7.6329,0.0,0.0,0.0,0.0,0.0,0.0,6.1448,5.9968,5.9056,6.0512,6.3776,6.5835,6.5484,6.9702,7.3016,7.4171,7.3669,7.392,7.5477,7.0729,6.8953,7.2099,6.7772,6.5845,6.7383,6.8515,6.9375,6.9961,7.3803,7.5569,7.5735,7.9601,8.1135,8.0467,8.3122,8.3555,8.2377,8.3747,8.3537,8.2044,8.1398,7.973,7.7285,7.618,7.5327,7.4573,7.3117,7.2514,7.2263,7.1259,7.0857,7.0656,7.0104,6.9551,0.0,0.0,0.0,0.0,0.0,0.0,0.0,0.0,0.0,0.0,0.0,0.0,0.0,0.0,0.0,0.0,0.0,0.0,0.0,6.6794,7.053,7.3836,7.4547,7.7854,8.0715,8.2235,7.7639,7.4468,7.4797,7.2284,7.0976,7.1484,7.1875,7.2109,7.2305,7.2578,7.293,7.332,7.2578,7.2148,7.207,7.1367,7.0742,7.0195,6.9531,0.0,7.3154,7.304,7.5753,8.0724,8.0681,8.2296,8.4529,8.4529,8.4426,8.3813,8.2056,8.0951,8.0298,7.9645,7.794,7.5357,0.0,0.0,0.0,0.0,0.0,0.0,6.0577,6.0074,6.0111,6.1768,6.4881,6.7041,6.7342,7.0556,7.3067,7.392,7.4272,7.4488,7.4419,7.1437,7.0487,7.2053,6.9183,6.8359,7.0039,7.2725,7.4516,7.5207,7.928,8.1082,8.1082,8.496,8.6226,8.5738,8.8555,8.9093,8.7769,8.7592,8.6676,8.5019,8.3361,8.1503,7.9595,7.8239,7.6883,7.5527,7.4674,7.4021,7.3468,7.2615,7.2163,7.1811,7.1259,7.0706,7.0154,0.0,0.0,0.0,0.0,0.0,0.0,0.0,0.0,0.0,0.0,0.0,0.0,0.0,0.0,6.7518,6.9682,0.0,7.0478,7.2116,7.5005,7.7554,7.8474,7.9255,7.947,7.9755,7.7489,7.5306,7.4249,7.3117,7.25,7.293,7.3203,7.332,7.332,7.3711,7.3945,7.3984,7.375,7.3555,7.332,7.2695,7.2767,7.3925,7.3277,7.4572,7.7816,7.9087,8.105,8.3799,8.5021,8.581,8.6023,8.6023,8.5822,8.547,8.4617,8.3311,8.1592,7.9747,7.804,7.5979,0.0,0.0,0.0,0.0,0.0,0.0,0.0,6.0111,6.1115,6.2772,6.5634,6.7844,6.8848,7.1008,7.2765,7.3669,7.4875,7.4933,7.3581,7.3401,7.2721,7.1871,7.1842,7.2284,7.3514,7.7749,8.0262,8.1073,8.4696,8.6279,8.6279,8.9612,9.0858,9.0581,9.2681,9.3154,9.1949,8.9839,8.8182,8.6676,8.4165,8.2658,8.1805,8.0298,7.834,7.6331,7.613,7.5427,7.4473,7.392,7.3468,7.2966,7.2514,7.2012,7.151,7.1058,7.1209,0.0,0.0,0.0,0.0,0.0,0.0,0.0,0.0,6.9456,7.0398,6.8802,6.8235,6.9203,7.418,7.4137,7.5047,7.9354,8.1242,8.2239,8.2656,8.0273,7.8041,7.6281,7.6611,7.594,7.344,7.3555,7.3945,7.4297,7.4258,7.4219,7.4219,7.4609,7.4687,7.4375,7.4765,7.5009,7.5417,7.4862,7.6062,7.859,7.8036,7.9296,8.2366,8.5053,8.5997,8.5615,8.827,8.8333,8.6525,8.6525,8.6676,8.6927,8.6826,8.542,8.2977,7.9729,7.8073,7.6583,0.0,0.0,0.0,0.0,0.0,0.0,0.0,0.0,6.1667,6.3375,6.5183,6.6538,6.7191,6.9652,7.2113,7.4121,7.5778,7.651,7.6182,7.4811,7.4289,7.4664,7.6624,7.8352,7.9041,8.366,8.6034,8.6524,8.992,9.1314,9.1314,9.4339,9.5716,9.5116,9.4865,9.4259,9.3104,9.1396,8.9438,8.7329,8.5571,8.3914,8.2457,8.1302,7.9444,7.7385,7.6431,7.5678,7.5075,7.4523,7.4272,7.4222,7.4171,7.377,7.3318,7.3217,7.3268,7.3318,7.3217,7.4322,7.4887,7.2148,7.2766,7.2894,0.0,6.834,6.8828,6.7387,6.775,6.9464,7.4089,7.5609,7.7875,8.2239,8.3742,8.3456,8.127,8.0618,7.9127,7.6164,7.529,7.5054,7.4883,7.5351,7.5586,7.5664,7.5273,7.5117,7.5117,7.5508,7.5703,7.5664,7.6055,7.7732,8.0584,7.9667,8.086,8.4026,8.3043,8.3913,8.668,8.6748,8.8028,9.0221,9.0006,8.9287,8.8182,8.8182,8.7931,8.7429,8.6977,8.6625,8.5725,8.1706,7.8256,7.5327,0.0,0.0,0.0,0.0,0.0,0.0,0.0,0.0,6.1918,6.3877,6.5283,6.6689,6.8246,7.0907,7.2916,7.387,7.603,7.7457,7.7301,7.8394,7.9257,7.9903,8.1651,8.283,8.3529,8.769,9.006,8.9979,9.3909,9.5676,9.5381,9.686,9.7221,9.6368,9.6167,9.5062,9.3304,9.1999,9.0141,8.7931,8.5922,8.4315,8.301,8.1553,8.0047,7.8591,7.7787,7.6933,0.0,7.5929,7.5628,7.5377,7.5377,7.5226,7.5025,7.5025,7.5276,7.5728,7.6682,7.7938,7.8887,7.8186,7.9286,7.9853,7.7009,7.5864,7.4867,7.3352,7.3615,7.4615,7.7027,8.1563,8.5109,8.527,8.626,8.5749,8.2372,8.0169,7.8172,7.6224,7.5586,7.539,7.5586,7.5742,7.5859,7.5859,7.5703,7.5586,7.5586,7.625,7.7598,7.9275,8.0456,8.2293,8.5364,8.5015,8.617,8.8573,8.7829,8.8873,9.1399,9.0858,9.1095,9.1798,9.0944,9.0542,9.0392,8.9689,8.9086,8.8534,8.8333,8.7831,8.6446,8.0305,7.7315,7.5287,0.0,0.0,0.0,0.0,0.0,0.0,0.0,0.0,0.0,0.0,6.5584,6.7241,6.9652,7.1962,7.3468,7.377,7.608,7.7605,7.7633,8.0905,8.2728,8.2933,8.5699,8.7409,8.7553,9.1908,9.3909,9.3909,9.6893,9.8125,9.7573,9.7824,9.7322,9.6267,9.6267,9.5112,9.3053,9.2049,9.0392,8.8283,8.6073,8.4567,8.3512,8.1704,8.0549,7.9746,7.8842,7.7938,7.7084,7.7084,7.6833,7.6532,7.6532,7.6532,7.6532,7.6682,7.7335,7.834,7.9896,8.1202,8.2193,8.2372,8.3883,8.4974,8.3417,8.148,7.986,8.016,7.9611,7.9582,8.1301,8.6166,8.9595,8.7428,8.7306,8.6417,8.3566,8.0112,7.7422,7.5859,7.5586,7.5469,7.5351,7.5742,7.6172,7.6406,7.6172,7.6172,7.6406,7.8113,8.0004,8.24,8.4717,8.7243,9.0239,8.9965,9.0943,9.3282,9.251,9.331,9.4911,9.4158,9.3556,9.3003,9.22,9.1798,9.1748,9.1045,9.0291,8.9538,8.9337,8.8222,8.5794,7.9451,7.694,7.5757,0.0,0.0,0.0,0.0,0.0,0.0,0.0,0.0,0.0,0.0,0.0,6.7995,7.0757,7.2062,7.3217,7.4322,7.5929,7.7003,7.7538,8.1005,8.2717,8.2227,8.8554,9.2075,9.2123,9.6673,9.8872,9.8872,9.8577,9.8075,9.7523,9.7021,9.6167,9.5162,9.5162,9.4158,9.2501,9.1446,9.004,8.8283,8.6073,8.4818,8.4064,8.1855,8.1001,8.075,7.9093,7.8139,7.7687,7.7687,7.7687,7.7637,7.7637,7.7637,7.7737,7.8289,7.9595,8.1152,8.2257,8.3813,8.4603,8.2815,8.4038,8.5592,8.4077,8.1913,8.1372,8.6125,8.3943,8.2334,8.6123,8.7425,8.8277,8.8448,8.6326,8.4666,8.4666,8.0957,7.7656,7.5508,7.4883,7.4492,7.4062,7.5508,7.6836,7.7695,7.6953,7.6836,7.7695,8.1398,8.3323,8.3323,8.7919,9.1791,9.4943,9.3947,9.5331,9.8822,9.7219,9.6669,9.6619,9.5514,9.4711,9.4158,9.4108,9.3204,9.1798,9.23,9.1547,9.004,8.9538,8.6974,8.3277,7.9772,7.8239,7.673,0.0,0.0,0.0,0.0,0.0,0.0,0.0,0.0,0.0,0.0,0.0,0.0,0.0,0.0,0.0,0.0,7.603,7.8181,7.9813,8.3336,8.62,8.7302,9.1446,9.3666,9.4011,9.6415,9.7573,9.7573,9.7774,9.7372,9.6468,9.6669,9.5916,9.451,9.451,9.3405,9.1446,9.0693,8.9187,8.7228,8.5722,8.4366,8.306,8.1604,8.08,8.0348,0.0,7.8741,7.8239,7.8239,7.8239,7.8289,7.8691,7.9093,7.9545,8.0449,8.1905,8.3462,8.4567,8.4644,8.5215,8.8835,8.9047,8.9332,9.3169,9.1429,8.9052,8.8601,8.9283,8.9737,8.8012,9.0693,9.2115,8.9845,8.7318,8.4667,8.1802,8.051,7.8633,7.5586,7.5586,7.5351,7.4101,7.4492,7.539,7.6836,7.6953,7.847,8.1808,8.3877,8.713,9.1886,9.3964,9.626,9.8349,9.8349,9.8642,9.8627,9.7724,9.7071,9.6719,9.6719,9.6418,9.5866,9.5464,9.5062,9.4459,9.3505,9.2551,9.1647,9.0693,8.8449,8.4977,8.0728,7.8177,7.6122,0.0,0.0,0.0,0.0,0.0,0.0,0.0,0.0,0.0,0.0,0.0,0.0,0.0,0.0,0.0,0.0,0.0,7.844,8.085,8.4064,8.6776,8.8835,9.1547,9.3204,9.3556,9.466,9.5213,9.5213,9.5414,9.5263,9.4711,9.4911,9.4409,9.3355,9.3154,9.2049,9.0291,8.9337,8.8032,8.6374,8.5069,8.3813,8.2558,8.1453,8.07,0.0,7.9595,7.9143,7.8842,7.8842,7.8942,7.9193,7.9545,8.0348,8.1302,8.2407,8.2988,8.3581,8.4909,8.4467,8.4947,9.0561,9.1365,9.2139,9.7906,9.6578,9.3268,9.1334,9.1786,9.1011,8.6908,8.859,8.972,8.66,8.5378,8.3814,8.0772,8.0664,7.9492,7.5859,7.582,7.5469,7.3906,7.3867,7.529,7.8538,7.9509,8.1892,8.6471,8.8684,9.2085,9.6593,9.8443,9.9782,10.0938,10.1088,10.0285,9.8678,9.8326,9.7824,9.7322,9.7673,9.7673,9.7272,9.6518,9.6066,9.5815,9.4309,9.3254,9.2501,9.1798,8.8805,8.428,8.1456,7.8004,7.4191,0.0,0.0,0.0,0.0,0.0,0.0,0.0,0.0,0.0,0.0,0.0,0.0,0.0,0.0,0.0,0.0,0.0,0.0,8.08,8.301,8.4968,8.6575,8.9287,9.0794,9.0844,9.1898,9.2501,9.2501,9.1999,9.1949,9.235,9.1898,9.1647,9.1547,9.1045,9.0191,8.9036,8.7429,8.6425,8.5772,8.4115,8.311,8.2457,8.1403,8.065,8.0097,7.9595,7.9394,7.9444,7.9444,7.9846,8.0348,8.0348,8.1503,8.2844,8.3846,8.3002,8.1951,8.3511,8.3004,8.3562,8.8579,9.1149,9.3554,9.8255,9.6559,9.4405,9.4358,9.0873,8.6775,8.2693,8.2232,8.1889,7.9601,8.0742,8.207,8.1758,8.1679,8.0312,7.6523,7.5703,7.4922,7.3672,7.4185,7.6935,8.2652,8.3861,8.6428,9.1145,9.5685,9.7964,9.7917,10.0863,10.2544,10.2494,10.1892,10.0787,9.923,9.918,9.8929,9.8427,9.8427,9.8376,9.807,9.6968,9.6217,9.5616,9.4514,9.3462,9.2752,9.2652,8.8261,8.1824,8.2138,7.7944,7.1875,0.0,0.0,0.0,0.0,0.0,0.0,0.0,0.0,0.0,0.0,0.0,0.0,0.0,0.0,0.0,0.0,0.0,0.0,8.0248,8.2106,8.3663,8.4918,8.7178,8.8835,8.9689,9.0794,9.1346,9.1346,9.1195,9.0593,8.9538,8.9789,8.9438,8.8684,8.8935,8.8484,8.7379,8.6525,8.5671,8.4667,8.3361,8.2307,8.1353,8.07,8.0097,7.9595,7.9444,7.9645,7.9997,7.9997,8.0901,8.2056,8.2056,8.1785,8.1479,8.2152,8.1244,8.0119,8.1616,8.0727,8.1382,8.9468,9.006,9.0674,9.8182,9.6822,9.3111,8.9591,8.7698,8.523,8.0249,8.0407,8.1113,8.0978,8.0449,8.0703,8.1562,8.1679,8.0937,7.8984,7.8633,7.8047,7.6797,7.9272,8.3271,8.8554,8.6299,8.8116,9.6433,9.8547,10.0372,10.2543,10.3259,10.3147,10.1942,10.0938,10.0234,9.9783,9.9381,9.913,9.8979,9.8979,9.7587,9.4825,9.415,9.3523,9.3041,9.2317,9.331,9.4962,9.4158,8.9992,8.4154,8.2765,7.8368,7.2851,0.0,0.0,0.0,0.0,0.0,0.0,0.0,0.0,0.0,0.0,0.0,0.0,0.0,0.0,0.0,0.0,0.0,0.0,0.0,8.3035,8.4585,8.6935,8.8245,8.9346,9.0289,8.9697,8.9747,9.0464,8.8463,8.7429,8.773,8.7278,8.7027,8.6927,8.6977,8.6676,8.6023,8.5219,8.4416,0.0,0.0,8.1654,8.065,8.0348,7.9846,7.9444,7.9645,7.9361,7.8729,7.7583,7.8741,8.0757,8.1738,8.0461,7.9041,8.0242,7.9292,7.7866,7.9255,7.9579,8.1073,8.7729,8.962,9.1291,9.7191,9.56,9.1523,8.6742,8.4254,8.1289,7.5951,7.6211,7.7599,7.8177,7.9517,8.0586,8.1562,8.2344,8.2265,8.0781,8.0586,8.0156,7.9023,8.1104,8.538,9.2022,9.1503,9.3908,10.1304,10.2216,10.31,10.4553,10.38,10.2996,10.2042,10.0938,10.0385,10.0385,9.9582,9.918,9.918,9.7525,9.5594,9.3644,9.1712,9.1291,9.2408,9.1837,9.3121,9.5815,9.5213,9.081,8.4468,8.3348,7.8749,7.293,0.0,0.0,0.0,0.0,0.0,0.0,0.0,0.0,0.0,0.0,0.0,0.0,0.0,0.0,0.0,0.0,0.0,0.0,0.0,0.0,8.6743,9.0124,9.0235,9.0565,9.1172,8.9056,8.8459,8.9513,8.5339,8.44,8.6174,8.4818,8.4717,8.5671,8.5219,8.4968,8.4868,8.3914,8.311,8.2508,8.1955,8.1102,8.0198,0.0,7.9846,7.9595,7.978,7.8398,7.6368,7.422,7.5312,7.7943,7.9877,7.8197,7.6111,7.8058,7.7059,7.5265,7.6714,7.8833,8.1463,8.5275,8.9482,9.3434,9.5555,9.3328,8.9354,8.4057,7.9944,7.5786,7.0961,7.1367,7.2695,7.3828,7.7695,8.0781,8.1367,8.2969,8.3554,8.2109,8.1914,8.164,8.0898,8.1706,8.5192,9.3103,9.6698,10.0662,10.5734,10.606,10.5658,10.4905,10.3448,10.2595,10.2544,10.154,10.0988,10.0988,9.9833,9.9022,9.8454,9.5115,9.3158,9.2132,8.8826,8.8829,9.1604,9.1494,9.3089,9.5315,9.5866,9.1147,8.393,8.4102,7.9313,7.2617,0.0,0.0,0.0,0.0,0.0,0.0,0.0,0.0,0.0,0.0,7.1814,7.0921,0.0,0.0,0.0,0.0,0.0,0.0,0.0,0.0,0.0,8.8801,8.9353,8.9959,9.0565,9.0662,8.983,8.7932,8.7145,8.5566,8.3361,8.3562,8.3763,8.3914,8.4315,8.4215,8.3763,8.3562,8.2909,8.1905,8.1403,8.08,8.0147,7.9695,7.9746,0.0,7.828,7.6052,7.3992,7.4662,7.4977,7.5622,7.6798,7.5603,7.4381,7.5609,7.4393,7.2925,7.4584,7.7966,8.1506,8.5674,8.9759,9.2813,9.1851,8.8767,8.4461,7.8993,7.4656,7.0673,6.8147,6.918,7.0625,7.0859,7.5117,7.875,7.9883,8.1875,8.3203,8.3242,8.3242,8.3203,8.3086,8.6084,8.8713,9.0751,9.4165,9.9238,10.6886,10.7215,10.6311,10.4352,10.3599,10.2996,10.2544,10.1892,10.154,10.154,10.0435,9.8217,9.5379,9.4149,9.0647,8.5182,8.4376,8.4078,8.4494,8.7859,9.0721,9.2926,9.6207,9.2301,8.5135,8.4326,7.9313,7.2617,0.0,0.0,0.0,0.0,0.0,0.0,0.0,7.5333,7.5325,7.5497,7.4306,7.3299,7.2481,7.3804,7.5766,0.0,0.0,0.0,0.0,0.0,0.0,9.3081,9.3325,9.3599,9.4521,9.3322,9.1831,8.9951,0.0,8.5522,8.3512,8.3211,8.306,8.306,8.3361,8.316,8.2608,8.2608,8.2005,8.0951,8.07,8.0298,7.9746,7.9495,7.9013,0.0,7.5679,7.3448,7.1234,7.0298,7.0404,7.1192,7.375,7.3165,7.2116,7.5248,7.4411,7.3323,7.6934,7.9458,8.1887,8.589,8.8009,8.9177,8.9821,8.5233,8.0035,7.6624,7.2547,6.8828,6.6875,6.7969,6.9662,7.164,7.4224,7.7296,8.1413,8.2205,8.3005,8.4262,8.4258,8.4258,8.4258,8.5765,8.7967,9.0317,9.4058,9.7792,10.1718,10.3311,10.3969,10.38,10.3549,10.3097,10.2544,10.1992,10.058,9.8607,9.7751,9.5305,9.1426,8.9232,8.6456,8.3121,8.164,8.1726,8.3356,8.741,8.91,8.9701,9.3475,8.9515,8.1773,8.1339,7.7314,7.2305,0.0,0.0,0.0,0.0,0.0,0.0,0.0,7.7502,7.7823,7.795,7.6674,7.5945,7.6317,7.6899,7.8046,0.0,0.0,0.0,0.0,0.0,0.0,0.0,0.0,0.0,9.8089,0.0,0.0,9.2412,8.8477,0.0,0.0,0.0,0.0,0.0,8.2307,8.2056,8.1654,8.1654,8.1102,0.0,0.0,7.9896,7.9394,0.0,0.0,0.0,0.0,7.1036,6.8408,6.6416,6.6211,6.7655,7.0864,7.0777,7.0331,7.4475,7.5289,7.5692,8.0264,8.2632,8.4565,8.7787,8.7604,8.6679,8.776,8.2338,7.6607,7.4364,7.0961,6.8125,6.6406,6.7148,6.9152,7.2872,7.4713,7.7148,8.2585,8.3379,8.3424,8.4341,8.4687,8.4922,8.5,8.4922,8.6083,8.9441,9.3355,9.6668,9.928,10.1008,10.2655,10.368,10.3599,10.3248,10.2695,10.1294,9.9243,9.607,9.4353,9.161,8.7558,8.483,8.2918,8.218,8.0153,8.0369,8.2715,8.6721,8.7117,8.5896,8.9655,8.6076,7.8664,7.858,7.5925,7.2109,0.0,0.0,0.0,0.0,0.0,0.0,0.0,7.7741,7.8136,7.9424,7.8686,7.8688,8.0109,7.701,7.7009,0.0,0.0,0.0,0.0,0.0,0.0,0.0,0.0,0.0,0.0,0.0,0.0,9.3511,9.0185,0.0,0.0,0.0,0.0,0.0,0.0,8.1152,8.1102,8.1102,0.0,0.0,0.0,0.0,0.0,0.0,0.0,0.0,0.0,7.0141,6.6002,6.5586,6.6406,6.75,6.8264,6.9284,7.0273,7.2102,7.5506,7.9398,8.2176,8.7191,9.2136,9.2922,9.1929,8.9708,8.4823,8.0296,7.5278,7.0522,6.8813,6.7734,6.5976,6.668,6.8557,7.1996,7.6659,7.9839,8.057,8.4962,8.6784,8.3713,8.4179,8.5039,8.539,8.5117,8.5203,8.5484,8.9127,9.6231,10.662,10.6874,10.6535,10.5608,10.4603,10.38,10.3248,9.931,9.6772,9.6295,9.2576,8.8396,8.3935,8.3827,8.2054,7.899,7.9165,7.9126,7.9246,8.2924,8.3513,8.2142,8.5896,8.3931,7.9126,7.8706,7.6129,7.2578,0.0,0.0,0.0,0.0,0.0,0.0,7.6963,7.7861,7.8878,8.0255,7.8088,7.7992,8.2167,7.8608,7.868,8.4817,0.0,0.0,0.0,0.0,0.0,0.0,0.0,0.0,0.0,0.0,9.434,9.2505,9.1103,0.0,0.0,0.0,0.0,0.0,0.0,8.085,8.0549,8.0549,0.0,0.0,0.0,0.0,0.0,0.0,0.0,0.0,0.0,0.0,6.5586,6.5586,6.6445,6.7539,6.8008,6.8867,7.0713,7.6355,7.9772,8.3014,8.7383,8.7381,8.6568,8.928,8.5138,8.0348,7.9772,7.579,7.1723,6.9245,6.8086,6.7031,6.582,6.6211,6.8095,7.1788,7.3333,7.6117,8.2371,8.1675,8.1889,8.5661,8.418,8.3672,8.5351,8.5586,8.7679,9.232,9.5935,10.1402,10.8488,10.5853,10.4919,10.5859,10.5407,10.4553,10.3348,9.9377,9.5867,9.3081,8.8793,8.4577,8.0837,8.0756,8.0034,7.8867,7.9258,7.9101,7.9069,8.4898,8.4924,8.1544,8.5352,8.3486,7.8562,7.655,7.4383,7.2305,0.0,0.0,0.0,0.0,0.0,7.5527,7.6664,7.7801,7.8878,8.0075,7.6906,7.6751,8.2491,7.9306,7.9564,8.6102,8.8155,0.0,0.0,0.0,0.0,0.0,0.0,0.0,0.0,0.0,9.3687,9.2435,9.1651,8.9731,0.0,0.0,8.3438,8.1697,0.0,0.0,0.0,0.0,0.0,0.0,0.0,0.0,0.0,0.0,0.0,0.0,0.0,0.0,0.0,0.0,0.0,6.7383,6.7851,6.9133,7.1655,7.8045,8.1635,8.4803,9.0507,8.8719,8.6125,8.8013,8.2371,7.6506,7.6763,7.2993,6.9258,6.8594,6.7617,6.6601,6.5742,6.6055,6.7856,7.1788,7.2451,7.4891,8.2562,8.0334,7.9736,8.529,8.3377,8.3162,8.656,8.8197,9.2075,9.8765,10.1871,10.5101,10.9324,10.6254,10.5038,10.6361,10.5809,10.4955,10.3599,9.8374,9.4147,9.0652,8.5322,8.117,7.8711,7.8711,7.8828,7.9101,7.957,7.9817,8.0463,8.5756,8.6002,8.2886,8.4534,8.263,7.852,7.5179,7.3281,7.2383,0.0,0.0,0.0,0.0,0.0,0.0,7.6724,7.7382,7.8041,7.8699,7.5592,7.5509,8.1181,7.8551,7.9111,8.6102,8.7317,0.0,0.0,0.0,0.0,0.0,0.0,0.0,0.0,0.0,9.396,9.4618,9.1975,9.0835,9.0653,8.5475,8.3235,8.3036,0.0,0.0,0.0,0.0,0.0,0.0,0.0,0.0,8.1102,0.0,0.0,0.0,0.0,0.0,0.0,0.0,0.0,0.0,0.0,6.9702,7.2829,7.5096,7.9342,8.4429,8.9354,9.2999,9.5014,9.2301,8.7385,8.1857,7.7185,7.2588,6.9101,6.7773,6.7148,6.6601,6.5742,6.6289,6.8214,7.1788,7.569,7.8554,7.9482,8.2652,8.3583,8.0879,8.1172,8.3695,8.9187,9.4014,9.852,10.2768,10.3537,10.5681,10.9926,10.9926,10.9173,10.7516,10.5859,10.4704,10.4151,9.5591,9.0607,8.9666,8.2586,7.8633,7.789,7.8711,7.9101,7.9101,7.957,8.1224,8.4037,8.4079,8.5205,8.6438,8.2929,8.0511,7.875,7.5298,7.3672,7.3242,0.0,0.0,0.0,0.0,0.0,0.0,0.0,7.816,7.9238,7.9477,7.7507,7.7587,8.1332,7.9307,7.9762,8.4947,8.6359,0.0,0.0,0.0,0.0,0.0,0.0,0.0,0.0,0.0,9.2105,9.3242,9.2496,9.1631,9.0777,8.907,8.7386,8.5668,8.4894,8.5088,0.0,0.0,0.0,0.0,0.0,8.211,8.1102,0.0,0.0,0.0,0.0,0.0,0.0,0.0,0.0,0.0,0.0,0.0,0.0,7.9484,8.2566,8.5582,9.0172,9.0759,8.9809,8.8903,8.3266,7.7444,7.5311,7.1655,6.8359,6.7656,6.668,6.5937,6.5664,6.6055,6.701,6.9304,7.2404,7.5668,7.8791,7.8987,8.0112,8.3967,8.701,9.0003,9.2348,9.8225,10.3014,10.4631,10.7239,10.9276,11.0529,11.0529,10.9575,10.7566,10.6562,10.4108,9.9862,9.4005,8.9651,8.6185,8.0676,7.8398,7.8711,7.8711,7.8984,7.9531,7.9648,8.1224,8.4037,8.6221,8.7085,8.6664,8.527,8.2316,7.8791,7.5656,7.3945,7.332,0.0,0.0,0.0,0.0,0.0,0.0,0.0,7.7801,7.8998,7.8699,7.7528,7.795,8.1123,7.9167,7.956,8.3991,8.5342,0.0,0.0,0.0,0.0,0.0,0.0,0.0,0.0,9.0908,9.1506,9.2583,9.2823,9.2793,9.2154,9.1197,9.0048,8.8326,8.7386,8.7575,0.0,0.0,0.0,0.0,8.4426,8.3034,8.1102,0.0,0.0,0.0,0.0,0.0,0.0,0.0,0.0,0.0,0.0,0.0,0.0,0.0,8.2991,8.5086,8.9436,8.9419,8.7785,8.647,8.157,7.6333,7.43,7.0885,6.7773,6.7344,6.6367,6.5586,6.5586,6.6055,6.6836,6.8008,7.0547,7.3439,7.6265,7.6492,7.8416,8.3774,9.0053,9.4347,9.5338,10.2421,10.7335,10.787,10.978,11.1081,11.1081,11.0881,10.9876,10.7918,10.7064,10.3803,9.7592,9.3168,8.8905,8.4457,8.0009,7.8359,7.8867,7.875,7.9101,7.9687,8.0989,8.3336,0.0,8.9226,8.978,8.8544,8.6707,8.3267,7.8791,7.5776,7.414,7.3555,0.0,0.0,0.0,0.0,0.0,0.0,0.0,7.6544,7.7562,7.6963,7.6271,7.7054,8.0347,7.8381,7.8663,8.3214,0.0,0.0,0.0,0.0,0.0,0.0,0.0,0.0,0.0,9.1267,9.1865,9.2583,9.3182,9.39,9.4618,9.2154,9.1016,9.1016,8.8512,8.8884,0.0,0.0,0.0,0.0,8.5594,8.3345,0.0,0.0,0.0,0.0,0.0,0.0,0.0,0.0,0.0,0.0,0.0,0.0,0.0,0.0,0.0,0.0,0.0,8.8735,8.8439,8.5182,8.1351,7.7684,7.4037,7.0237,0.0,6.6992,6.6172,6.5586,6.5586,6.6289,6.7109,6.8008,7.039,7.2187,7.2461,7.5234,7.8398,8.2178,9.0893,9.7182,9.8565,10.6064,11.1081,11.1684,11.1684,11.1634,11.1584,11.1081,11.0027,10.832,10.6886,10.3149,9.7219,9.2801,8.8138,8.3707,8.0089,7.8437,7.8476,7.8867,7.9258,7.9949,8.3207,8.6385,8.9531,9.2143,9.2449,9.1503,8.7196,8.2998,7.856,7.5776,7.4375,7.3945,0.0,0.0,0.0,0.0,0.0,0.0,0.0,0.0,0.0,0.0,7.7789,7.8444,7.9238,7.9098,7.9991,0.0,0.0,0.0,0.0,0.0,0.0,0.0,0.0,0.0,0.0,9.0788,9.1446,9.2583,9.2763,9.3421,9.4618,9.4037,9.3687,9.3687,9.31,9.31,0.0,0.0,0.0,0.0,8.7668,8.5337,0.0,0.0,0.0,0.0,7.076,6.812,0.0,0.0,0.0,0.0,0.0,0.0,0.0,0.0,8.4899,8.5324,8.625,0.0,8.7752,8.7013,8.2518,7.7683,0.0,7.1664,6.7383,6.6992,6.6172,6.5586,6.5586,6.6015,6.664,6.75,7.0664,7.2461,7.0898,7.4726,8.0572,8.8575,9.5016,10.075,10.5669,10.9585,11.2287,11.2889,11.2538,11.2036,11.1584,11.1081,10.9826,10.7767,10.3619,9.8832,9.2696,9.0855,8.624,7.9357,7.8263,7.8164,7.8476,7.8594,7.8867,7.9518,8.2714,8.5698,8.8501,8.8738,8.8373,8.7196,8.2945,7.8908,7.5536,7.4813,7.4531,7.4375,0.0,0.0,0.0,0.0,0.0,0.0,0.0,0.0,0.0,0.0,0.0,7.822,7.7921,7.8519,0.0,0.0,0.0,0.0,0.0,0.0,0.0,0.0,0.0,9.0608,9.0608,9.0608,9.1147,9.2165,9.2464,9.3122,9.4139,9.4439,9.4618,9.4618,9.4618,9.4618,0.0,0.0,0.0,8.7754,8.8305,0.0,0.0,0.0,0.0,0.0,7.2153,7.042,0.0,7.3987,7.6632,7.9139,0.0,0.0,0.0,0.0,8.542,8.5571,8.5571,8.6224,8.655,8.4891,8.0728,7.6476,7.4595,7.034,6.6797,6.6367,6.5937,6.5547,6.5351,6.582,6.6523,6.7383,6.9453,7.2214,7.5465,8.0048,8.6029,9.4225,9.9963,10.428,10.7674,11.0573,11.2688,11.3241,11.2739,11.2186,11.1584,11.0881,10.9575,10.7918,10.4216,9.8686,9.1428,8.8422,8.4198,7.8125,7.793,7.8047,7.8476,7.8476,7.8476,7.8773,8.1933,8.4164,8.5349,8.6296,8.563,8.3249,8.0912,7.7803,7.4609,7.4609,7.4609,7.4492,0.0,0.0,0.0,0.0,0.0,0.0,0.0,0.0,0.0,0.0,0.0,0.0,0.0,0.0,0.0,0.0,0.0,0.0,0.0,0.0,0.0,0.0,0.0,9.0608,9.0608,9.0608,9.0968,9.1626,9.2284,9.2943,9.3601,9.4319,9.4618,9.4618,9.4211,9.4037,0.0,0.0,9.1055,8.7285,8.7778,0.0,0.0,0.0,0.0,0.0,0.0,0.0,0.0,7.5532,7.7701,8.0784,8.4032,0.0,0.0,0.0,0.0,0.0,8.5119,8.5025,8.4328,8.1251,7.7793,7.4132,7.1116,6.8251,6.6055,6.5664,6.5547,6.5351,6.5,6.5625,6.6445,6.7265,6.8008,7.1676,8.0834,8.5672,9.0855,9.7784,10.4121,10.7694,10.8159,11.0624,11.2688,11.3241,11.2688,11.2036,11.1383,11.0278,10.9173,10.8018,10.4754,9.9468,9.1428,8.713,8.2758,7.8476,7.8125,7.8047,7.8359,7.8281,7.8047,7.791,8.1029,8.2232,8.2008,8.4457,8.352,8.0469,7.9542,7.7248,7.4609,7.4609,7.4609,7.4492,0.0,0.0,0.0,0.0,0.0,0.0,0.0,0.0,0.0,0.0,0.0,0.0,0.0,0.0,0.0,0.0,0.0,0.0,0.0,0.0,0.0,8.8933,9.007,9.0608,9.0608,9.0608,9.0968,9.1626,9.2284,9.2943,9.3601,9.4319,9.4618,9.4445,9.2332,9.1377,9.1197,0.0,8.7039,8.5369,8.5422,0.0,0.0,0.0,0.0,0.0,0.0,0.0,0.0,7.7322,7.883,8.021,8.3535,0.0,0.0,0.0,0.0,0.0,8.4968,8.3286,8.1251,8.0699,7.6156,7.1583,7.0635,6.8008,6.5664,6.5586,6.5312,6.5,6.4961,6.5625,6.6406,6.6875,6.8555,7.1872,7.7705,8.2714,8.905,9.7866,10.3515,10.8475,11.3251,11.2996,11.2688,11.3241,11.2337,11.1282,11.0278,10.9173,10.7817,10.621,9.8832,9.3651,9.1428,8.9952,8.5855,7.8476,7.8398,7.8242,7.789,7.7539,7.7148,7.6969,8.0083,8.1308,8.0847,8.1231,8.0935,7.9775,7.6494,7.5133,7.4609,7.4609,7.4609,7.4492,0.0,0.0,0.0,0.0,0.0,0.0,0.0,0.0,0.0,0.0,0.0,0.0,0.0,0.0,0.0,0.0,0.0,0.0,0.0,0.0,8.7137,8.8095,8.9052,8.9771,9.013,9.0429,9.0788,9.1087,9.1746,9.2404,9.3062,9.2804,9.251,9.251,8.9864,8.8699,8.8699,8.7575,8.5964,8.4449,0.0,0.0,0.0,0.0,0.0,0.0,0.0,0.0,0.0,0.0,8.0163,8.2008,8.3427,0.0,0.0,0.0,0.0,0.0,8.4165,8.0983,7.7332,7.7332,7.3928,6.9953,6.7642,6.6019,6.5195,6.4961,6.4922,6.5,6.5234,6.5976,6.7031,6.8359,7.1601,7.573,8.0821,8.8118,9.5163,10.1539,10.7152,11.1167,11.3197,11.2889,11.2538,11.2789,11.1785,11.078,11.0027,10.832,10.6913,10.5809,9.8918,9.4275,9.1833,8.8796,8.4541,7.8476,7.8008,7.7656,7.7461,7.6797,7.6211,7.5781,7.7255,7.7374,7.697,7.697,7.6849,7.6688,7.5054,7.4609,7.457,7.4375,7.414,7.3828,0.0,0.0,0.0,0.0,0.0,0.0,0.0,0.0,0.0,0.0,0.0,0.0,0.0,0.0,0.0,0.0,0.0,0.0,0.0,0.0,8.6201,8.6335,8.7533,8.8693,8.9651,9.013,9.0489,9.0608,9.1327,9.1925,9.2643,9.1159,9.0547,9.0365,8.7519,8.6053,8.6053,8.5475,8.4488,8.3125,0.0,0.0,0.0,0.0,0.0,0.0,0.0,0.0,0.0,0.0,0.0,0.0,0.0,0.0,0.0,8.2658,8.296,8.3311,8.3462,7.9139,7.4932,7.5219,7.2181,6.8289,6.4939,6.4531,6.4726,6.4492,6.4726,6.5117,6.5625,6.6758,6.8398,7.0781,7.4531,7.8629,8.2799,9.2223,9.9658,10.3231,10.9487,11.3391,11.2538,11.2337,11.2186,11.2036,11.1031,11.0027,10.9173,10.7416,10.606,10.5256,9.9323,9.4891,9.1788,8.6249,8.1747,7.8594,7.7773,7.7226,7.7031,7.6094,7.543,7.4883,7.4492,7.414,7.3789,7.3789,7.3867,7.4023,7.4297,7.4414,7.4414,7.4101,7.3672,7.3242,0.0,0.0,0.0,0.0,0.0,0.0,0.0,0.0,0.0,0.0,0.0,0.0,0.0,0.0,0.0,0.0,0.0,0.0,0.0,0.0,8.351,8.2638,8.5243,8.7736,8.9651,8.9711,9.001,9.0608,9.1327,9.1925,9.2583,9.0692,8.9855,8.9733,8.5396,8.338,8.338,8.0931,8.0109,8.0456,8.101,0.0,0.0,0.0,0.0,0.0,0.0,0.0,0.0,0.0,0.0,0.0,0.0,0.0,8.2658,8.2658,8.2708,8.2859,8.3361,7.8901,7.4758,7.7954,7.192,6.5128,6.4375,6.4336,6.4492,6.4844,6.4922,6.5195,6.6055,6.8203,7.0859,7.3789,7.5937,7.7734,7.9714,8.974,9.7213,9.7754,10.6594,11.2538,11.2437,11.1935,11.1483,11.0981,10.9876,10.852,10.6964,10.621,10.5106,10.3599,9.6199,9.1698,9.0517,8.3084,7.9361,7.9023,7.8164,7.7344,7.6523,7.5664,7.4805,7.4023,7.3594,7.3398,7.3359,7.3359,7.3594,7.3984,7.4023,7.4023,7.4023,7.3984,7.3672,7.3242,0.0,0.0,0.0,0.0,0.0,0.0,0.0,0.0,0.0,0.0,0.0,0.0,0.0,0.0,0.0,0.0,0.0,0.0,0.0,8.06,8.1034,8.1043,8.1528,8.3289,8.6247,8.8516,8.9771,9.001,9.1087,9.1746,9.1985,9.0051,8.8496,8.7372,8.4054,8.1926,8.0728,7.9756,7.9495,7.9796,8.065,8.1152,0.0,0.0,0.0,0.0,0.0,0.0,0.0,0.0,8.2658,8.2658,8.2658,8.2658,8.2658,8.2658,8.2658,8.2708,8.2909,7.8378,7.4491,7.766,7.3057,6.788,6.719,6.5909,6.4765,6.4883,6.5351,6.6406,6.8594,7.0898,7.332,7.582,7.7656,8.0233,8.4579,9.1629,9.7857,10.1445,10.719,11.1182,11.1835,11.078,11.0077,11.0278,10.8571,10.7315,10.6612,10.5106,10.385,10.2846,9.5077,9.0607,8.9935,8.2095,7.8164,7.789,7.7305,7.6562,7.5664,7.4844,7.4258,7.3906,7.3203,7.293,7.293,7.293,7.3203,7.3672,7.4414,7.4609,7.4297,7.4062,7.3672,7.3203,0.0,0.0,0.0,0.0,0.0,0.0,0.0,0.0,0.0,0.0,0.0,0.0,0.0,0.0,0.0,0.0,0.0,0.0,7.9357,7.9859,7.992,7.9502,8.0297,8.1319,8.2795,8.7097,8.9471,8.9651,9.0788,9.1327,9.1327,8.941,8.7441,8.5604,8.3206,8.1518,8.0524,7.9756,7.9756,8.0626,8.0967,8.1051,0.0,0.0,0.0,0.0,0.0,0.0,0.0,0.0,8.2658,8.2658,8.2658,8.2658,8.2658,8.2658,8.2658,8.2443,8.1529,7.7378,7.3992,7.6218,7.2593,6.8682,7.0742,6.8765,6.6628,6.6907,6.7276,6.8242,7.0859,7.2969,7.5117,7.7422,7.9101,8.2143,8.789,9.3184,9.8683,10.3669,10.7771,11.0479,11.1031,10.9876,10.9023,10.8922,10.7315,10.611,10.5608,10.4051,10.2846,10.2293,9.4189,8.9666,8.9173,8.1522,7.7109,7.6562,7.625,7.5742,7.5,7.4297,7.3789,7.3515,7.2812,7.2461,7.2461,7.2461,7.2812,7.3437,7.457,7.4765,7.4375,7.4219,7.3789,7.2926,0.0,0.0,0.0,0.0,0.0,0.0,0.0,0.0,0.0,0.0,0.0,0.0,0.0,0.0,0.0,0.0,0.0,0.0,8.0674,8.1392,8.0688,7.7892,8.2197,8.3102,7.9833,8.5671,8.8993,8.9651,9.0309,9.0608,9.0502,8.8711,8.6761,8.4998,8.2992,8.2654,8.2984,8.0524,8.0931,8.3089,8.1748,8.1051,8.1152,0.0,0.0,0.0,0.0,0.0,0.0,0.0,8.2658,8.2658,8.2658,8.2658,8.2658,8.2658,8.2658,8.1962,7.8978,7.5761,7.3624,7.4117,6.9597,6.6832,7.4325,7.2962,7.0604,7.1528,7.0832,7.0664,7.2383,7.4062,7.6094,7.8672,8.0156,8.2939,8.835,9.3665,9.882,10.2768,10.7673,11.0529,11.0027,10.9424,10.842,10.6713,10.611,10.5055,10.3448,10.2846,10.2243,10.1691,9.3348,8.8956,8.8417,8.0576,7.6055,7.5234,7.5234,7.5,7.4609,7.414,7.3515,7.2695,7.2187,7.1992,7.1992,7.1992,7.25,7.3398,7.4258,7.4297,7.4023,7.4414,7.4062,7.2727,0.0,0.0,0.0,0.0,0.0,0.0,0.0,0.0,0.0,0.0,0.0,0.0,0.0,0.0,0.0,0.0,0.0,0.0,8.0614,7.9918,7.9631,8.0234,8.0524,8.1149,8.2112,8.6391,8.9232,9.0369,9.0549,9.0608,9.0668,9.012,8.8944,8.7565,8.7009,8.6387,8.5861,8.5088,8.5088,8.597,8.6385,8.6474,8.6383,0.0,0.0,0.0,0.0,0.0,0.0,0.0,0.0,0.0,8.2658,8.2658,8.2658,8.2658,8.2658,8.1962,7.8978,7.6039,7.4488,7.6955,7.5246,7.4289,7.8949,7.3762,6.8425,7.0263,7.1108,7.207,7.4062,7.5625,7.7265,7.9219,8.2929,8.7346,9.2565,9.7268,10.2057,10.742,10.8005,10.8219,10.9274,10.7466,10.616,10.606,10.4804,10.3699,10.2846,10.2243,10.1339,9.9933,9.4921,9.1665,9.0403,8.299,7.9137,7.8244,7.5536,7.4414,7.4609,7.3828,7.3359,7.3086,7.1992,7.1562,7.1601,7.1875,7.2344,7.2969,7.414,7.4297,7.4023,7.4414,7.2491,6.9384,0.0,0.0,0.0,0.0,0.0,0.0,0.0,0.0,0.0,0.0,7.1503,7.1876,0.0,0.0,0.0,0.0,0.0,0.0,0.0,8.007,8.0161,8.1216,8.1414,8.2656,8.4959,8.7446,8.9172,9.0249,9.0489,9.0608,9.0668,9.0908,9.0264,8.8876,8.9107,8.8895,8.8512,8.7386,8.7575,8.8438,8.8717,8.8775,8.8746,0.0,0.0,0.0,0.0,0.0,0.0,0.0,0.0,0.0,8.2658,8.2809,8.2744,8.1609,8.1271,8.0538,7.6135,7.3832,7.3208,7.548,7.5628,7.5913,7.9042,7.4883,7.0343,7.0735,7.1875,7.3398,7.5351,7.668,7.8008,7.9726,8.4416,8.927,9.4345,9.8796,10.3314,10.8538,10.7817,10.7315,10.8068,10.6411,10.5156,10.4854,10.3699,10.2695,10.1942,10.1088,10.0084,9.8879,9.4673,9.1885,9.0696,8.4653,8.0988,7.9105,7.8353,7.7261,7.6209,7.5485,7.5083,7.4841,7.4037,7.291,7.164,7.2109,7.2539,7.3047,7.3984,7.4297,7.3977,7.272,7.058,6.7751,0.0,0.0,0.0,0.0,0.0,0.0,0.0,0.0,0.0,0.0,7.0029,7.0979,0.0,0.0,0.0,0.0,0.0,0.0,0.0,8.1512,8.1734,8.1655,8.4238,8.6359,8.7676,8.8334,8.8993,8.9651,9.0309,9.0608,9.0668,9.1327,9.0677,8.9289,8.9925,9.0561,9.1016,8.8699,8.907,9.1074,8.9861,8.9354,8.9328,9.0156,0.0,0.0,0.0,0.0,0.0,0.0,0.0,0.0,8.2708,8.311,8.3027,8.0066,7.9459,7.8706,7.2377,7.0791,7.1328,7.2134,7.2897,7.4042,7.6497,7.6177,7.4985,7.2653,7.332,7.4726,7.6367,7.7636,7.9069,8.0761,8.5181,9.0164,9.464,9.8994,10.3214,10.7186,10.7416,10.7114,10.6662,10.606,10.5055,10.3448,10.2796,10.1942,10.0787,9.9682,9.8778,9.8176,9.3377,9.0732,9.0158,8.6009,8.2441,7.9343,8.2134,8.1871,7.8765,7.8343,7.8145,7.768,7.7375,7.5335,7.2575,7.2774,7.293,7.3359,7.375,7.386,7.3569,7.0083,6.8325,6.6557,0.0,0.0,0.0,0.0,0.0,0.0,0.0,0.0,0.0,0.0,0.0,0.0,0.0,0.0,0.0,0.0,0.0,0.0,0.0,8.217,8.3274,8.4714,8.5902,8.6838,8.7676,8.8334,8.8993,8.9651,9.0309,9.0608,9.0668,9.1327,9.1588,9.1902,9.2555,9.3209,9.3687,9.3277,9.3277,9.3747,9.4694,9.3657,9.1672,9.0939,8.9003,0.0,0.0,0.0,0.0,0.0,0.0,0.0,8.316,8.3412,8.3345,8.3088,8.3286,8.1957,7.5667,7.6255,7.8299,7.6119,7.7305,7.9265,8.1074,7.8645,7.5493,7.457,7.5273,7.6367,7.7773,8.1009,8.3793,8.5284,9.1775,9.7456,9.9393,10.2918,10.6077,10.7416,10.6713,10.6311,10.6612,10.5357,10.4202,10.3448,10.2444,10.1189,9.9632,9.8929,9.7874,9.6468,9.4867,9.3672,9.2678,8.8963,8.7037,8.6643,8.3763,8.2471,8.2704,8.2,8.1775,8.1244,7.7824,7.654,7.6405,7.3672,7.293,7.332,7.3437,7.1766,6.8953,6.8429,6.4404,5.8971,0.0,0.0,0.0,0.0,0.0,0.0,0.0,0.0,0.0,0.0,0.0,0.0,0.0,0.0,0.0,0.0,0.0,0.0,0.0,0.0,8.3786,8.606,8.6479,8.7018,8.7676,8.8334,8.8993,8.9651,9.0309,9.0788,9.1147,9.1805,9.2464,9.3122,9.378,9.4259,9.4618,9.4618,9.4618,9.4738,9.6055,9.5763,9.438,9.3114,9.0795,8.8249,8.5472,0.0,0.0,0.0,0.0,0.0,0.0,0.0,8.4096,8.2746,8.2543,8.1788,7.7048,7.7406,7.9647,8.062,8.2183,8.3462,8.3661,8.0955,7.8261,7.693,7.7305,7.8008,7.8906,8.2366,8.538,8.6346,9.3487,9.9066,9.9875,10.3739,10.621,10.6311,10.5758,10.5407,10.5457,10.4453,10.3448,10.2595,10.154,10.0184,9.8477,9.7673,9.6418,9.4761,9.4409,9.3756,9.2652,9.1053,8.9527,8.8223,8.745,8.745,8.7972,8.5877,8.5139,8.4563,8.0765,7.8774,7.7599,7.4257,7.293,7.332,7.3086,7.0941,6.7499,6.5787,6.1362,5.6416,0.0,0.0,0.0,0.0,0.0,0.0,0.0,0.0,0.0,0.0,0.0,0.0,0.0,0.0,0.0,0.0,0.0,0.0,0.0,0.0,0.0,8.6599,8.6659,8.7018,8.7676,8.8334,8.8993,8.9651,9.0309,9.0968,9.1626,9.2284,9.2943,9.3601,9.4319,9.4618,9.4618,9.4618,9.4385,9.4156,9.5878,9.5763,9.4562,9.406,9.1971,8.9003,8.6665,8.4474,8.2708,8.2759,0.0,0.0,0.0,0.0,8.4676,8.216,8.1587,8.1414,7.8059,7.7805,7.9479,8.4944,8.6475,8.6525,8.587,8.3335,8.1053,8.0273,7.9601,7.9518,8.051,8.3701,8.6717,8.777,9.4505,9.9564,9.9813,10.318,10.5357,10.4905,10.4754,10.4553,10.4051,10.3448,10.2595,10.154,10.0435,9.9079,9.7372,9.6317,9.5062,9.3455,9.3304,9.2802,9.1949,9.2401,9.1099,8.8549,9.1392,9.2652,9.2601,8.9731,8.8453,8.8302,8.4103,8.0819,7.8526,7.4337,7.2969,7.3281,7.2261,6.9672,6.65,6.2196,5.8458,5.5451,0.0,0.0,0.0,0.0,0.0,0.0,0.0,0.0,0.0,0.0,6.9395,6.9602,0.0,0.0,0.0,0.0,0.0,0.0,8.0794,0.0,0.0,8.6599,8.6659,8.7018,8.7676,8.8334,8.8993,8.9651,9.0309,9.0968,9.1626,9.2284,9.2943,9.3601,9.4319,9.4618,9.4618,9.4618,9.3277,9.1674,9.5229,9.2435,8.6781,8.9959,8.8046,8.3677,8.3251,8.3087,8.2759,8.3211,8.3412,0.0,0.0,0.0,8.5048,8.5225,8.525,8.4575,8.1414,8.1431,8.3418,8.8776,8.8222,8.6976,8.86,8.523,8.2752,8.6544,8.2758,8.0373,8.3913,8.7663,9.1563,9.5452,9.9894,10.2839,10.3337,10.3981,10.4352,10.4252,10.385,10.3549,10.3448,10.2544,10.144,10.0335,9.9682,9.8376,9.6217,9.5514,9.466,9.3405,9.2903,9.2652,9.2501,9.2551,9.2561,9.2475,9.3012,9.3053,9.2551,9.2019,9.2076,9.2231,8.53,8.2552,8.2615,7.583,7.3281,7.3004,6.9095,6.5758,6.213,5.8303,5.486,5.1701,0.0,0.0,0.0,0.0,0.0,0.0,0.0,0.0,0.0,0.0,0.0,6.9901,0.0,0.0,0.0,7.6125,7.6904,7.84,8.1153,8.3786,8.5521,8.612,8.6838,8.7556,8.8274,8.8873,8.9531,9.019,9.0489,9.0968,9.1626,9.2284,9.2943,9.3601,9.4319,9.4618,9.4618,9.4618,9.4037,9.3218,9.5642,9.4626,9.1427,9.0744,8.9204,8.6665,8.389,8.2658,8.2759,8.3311,8.3713,8.4064,8.4918,0.0,0.0,0.0,8.6023,8.5849,8.4644,8.4876,8.6271,8.9355,8.9657,8.9439,8.9236,8.8096,8.7248,8.8002,8.6287,8.5026,8.7433,9.1261,9.438,9.5986,9.9684,10.2595,10.3147,10.3197,10.3197,10.3197,10.2745,10.2293,10.2042,10.154,10.0787,9.9632,9.8778,9.7422,9.5564,9.461,9.3656,9.2551,9.2551,9.2401,9.2149,9.2401,9.2652,9.2903,9.2903,9.2802,9.2551,9.2551,9.1684,8.9778,8.4448,8.1642,7.9982,7.4761,7.1594,6.9412,6.7332,6.3347,5.8566,5.6979,5.4215,5.1543,0.0,0.0,0.0,0.0,0.0,0.0,0.0,0.0,0.0,0.0,0.0,0.0,0.0,0.0,0.0,0.0,7.6724,7.846,8.1811,8.4145,8.5701,8.618,8.7197,8.8095,8.8933,8.9412,9.001,9.0608,9.0608,9.0908,9.1386,9.2224,9.2883,9.3361,9.4199,9.4618,9.4618,9.4618,9.4331,9.3984,9.5938,9.5524,9.3637,9.1384,8.9804,8.8046,8.4051,8.2658,8.2759,8.3462,8.3964,8.4416,8.5169,8.5671,0.0,0.0,0.0,8.6123,8.6625,8.7178,8.7881,8.9036,9.0442,9.118,8.9865,8.9489,8.9037,8.8778,8.7555,8.7306,9.0095,9.3494,9.5961,9.6437,9.9503,10.159,10.2042,10.2093,10.2093,10.2093,10.159,10.1038,10.0536,10.0285,9.9783,9.8678,9.7673,9.6518,9.4911,9.3907,9.2953,9.2049,9.2401,9.2401,9.1999,9.2401,9.2551,9.2551,9.2551,9.2501,9.2401,9.2401,8.9975,8.5495,8.3204,8.0427,7.7165,7.2535,6.9091,6.6601,6.4315,6.0516,5.6148,5.5459,5.3643,5.1944,0.0,0.0,0.0,0.0,0.0,0.0,0.0,0.0,0.0,0.0,0.0,0.0,0.0,7.3013,7.4629,7.6604,7.7382,7.9178,8.2469,8.4025,8.5581,8.7496,8.7676,0.0,8.9591,8.9651,9.001,9.0608,9.0608,9.0668,9.0728,9.1985,9.2643,9.2703,9.402,9.4618,9.4618,9.4618,9.3631,9.2122,9.5348,9.2464,8.6582,8.9585,8.7434,8.3087,8.2873,8.2658,8.2859,8.3914,8.4315,8.4516,8.5571,8.5973,8.6023,0.0,0.0,0.0,8.6625,8.7178,8.7881,8.9036,9.0141,9.1246,9.216,8.8114,8.5245,8.9426,8.55,8.3323,9.0854,9.371,9.6389,9.9999,10.0887,10.0988,10.0988,10.0988,10.0988,10.0988,10.0486,9.9883,9.9331,9.8778,9.8025,9.692,9.6317,9.5464,9.4309,9.3706,9.3154,9.2551,9.2551,9.2551,9.2551,9.2551,9.2551,9.2551,9.2551,9.23,9.1798,9.1798,8.7979,8.118,8.1869,8.0253,7.6665,6.9615,6.6557,6.6039,5.8881,5.6142,5.5939,5.2977,5.1933,5.1971,0.0,0.0,0.0,0.0,0.0,0.0,0.0,0.0,0.0,0.0,0.0,0.0,0.0,7.3373,7.4689,7.6664,7.8998,8.1033,8.2649,8.3965,8.5402,8.6958,8.7856,8.8753,8.9651,9.007,9.0967,9.2544,9.2973,9.3218,9.3279,9.4627,9.4472,9.3242,9.4199,9.4618,9.4618,9.4618,9.4394,9.4281,9.594,9.4248,9.0743,9.0574,8.8452,8.5053,0.0,8.2658,8.2859,8.3914,8.4315,8.4516,8.5671,8.6023,8.5525,8.357,8.4299,8.5575,8.3815,8.5464,8.768,8.8132,8.9287,9.0171,8.9,8.7213,8.6296,8.6866,8.4916,8.4476,8.7729,9.1182,9.4369,9.8164,9.8728,9.8828,9.923,9.8929,9.8828,9.923,9.8778,9.8376,9.8176,9.8025,9.7422,9.6317,9.5665,9.4911,9.3756,9.2852,9.23,9.2049,9.1697,9.1697,9.2049,9.2049,9.225,9.2551,9.2551,9.23,9.1798,9.1798,8.7639,8.0793,8.1152,7.7053,6.9743,6.756,6.3924,5.9202,5.6547,5.4425,5.2673,5.1701,5.1597,5.2238,0.0,0.0,0.0,0.0,0.0,0.0,0.0,0.0,0.0,0.0,0.0,0.0,0.0,0.0,7.6006,7.7981,8.0375,8.217,8.3008,8.4325,8.5821,8.7616,8.8753,8.9771,9.0608,9.1087,9.2365,9.4272,9.4768,9.5429,9.6056,9.7184,9.6628,9.4668,9.5395,9.4844,9.3453,9.4211,9.4162,9.3438,9.463,9.3568,9.1022,8.9838,8.7638,8.5053,0.0,0.0,0.0,0.0,0.0,8.3092,8.5148,8.5101,8.4073,8.1923,8.2659,8.3846,8.1693,8.4255,8.7101,8.6107,8.7991,8.8815,8.5205,8.4732,8.4723,8.27,8.1386,8.1203,8.3186,8.6825,9.0794,9.4977,9.671,9.7673,9.8025,9.7824,9.7673,9.8075,9.7774,9.7422,9.7071,9.7021,9.6569,9.5414,9.4811,9.4108,9.3154,9.23,9.1697,9.1547,9.1095,9.1095,9.1547,9.1547,9.1898,9.2551,9.2551,9.2401,9.2049,9.2049,8.7979,8.0614,8.0928,7.5278,6.5667,6.5052,6.1213,5.5494,5.4577,5.2642,5.1036,5.1143,5.1543,5.2078,0.0,0.0,0.0,0.0,0.0,0.0,0.0,0.0,0.0,7.3732,0.0,0.0,0.0,0.0,0.0,8.0614,8.1392,8.235,8.3666,8.4983,8.6898,8.9531,9.0309,9.1267,9.2583,9.2583,9.3638,9.5796,9.5796,9.6902,9.8833,9.9538,9.8847,9.6851,9.7433,9.5116,9.0958,9.3453,9.2312,8.9161,9.1501,9.0132,8.6665,8.6665,8.5053,8.2658,8.2658,8.2658,0.0,8.3311,0.0,8.0388,8.4032,8.3405,8.1184,0.0,8.0953,8.0953,0.0,0.0,0.0,8.3361,8.5966,8.7367,8.1475,8.0435,7.9839,7.7469,7.4265,7.3236,7.7522,8.1343,8.5642,9.1125,9.5026,9.7523,9.7523,9.7523,9.7523,9.7523,9.7472,9.7021,9.5966,9.5815,9.5414,9.4309,9.3656,9.3154,9.2551,9.2049,9.1446,9.0944,9.0844,9.0844,9.0944,9.0944,9.1446,9.2551,9.2551,9.2551,9.2551,9.2551,8.8076,8.0166,8.1152,7.5472,6.5712,6.2034,5.8688,5.588,5.2067,5.0768,5.1062,5.1356,5.1463,5.1543,0.0,0.0,0.0,0.0,0.0,0.0,7.4477,7.4685,7.4951,0.0,0.0,0.0,0.0,0.0,7.9477,8.0016,8.1153,8.235,8.3666,8.4983,8.6898,8.9531,9.0309,9.1267,9.2583,9.4134,9.5796,9.7922,9.9946,10.1157,10.1675,10.246,10.1686,9.9544,9.8207,9.5901,9.2979,9.2156,9.1709,9.1501,9.0367,8.8566,8.6665,8.6665,8.5053,0.0,0.0,8.2658,8.2759,0.0,8.3208,8.3313,8.5248,8.3699,8.0721,0.0,7.7633,7.7824,7.7824,0.0,0.0,0.0,0.0,0.0,7.6998,7.6461,7.5948,7.299,7.1819,7.1519,7.3069,7.8597,8.3506,8.5187,9.0919,9.5313,9.5715,9.5414,9.5313,9.5765,9.5414,9.5062,9.4711,9.4711,9.4409,9.3656,9.3154,9.2551,9.2049,9.1095,9.0291,8.9789,8.9387,8.9538,9.0342,9.0342,9.0894,9.2049,9.2802,9.2752,9.1999,9.1999,8.7785,8.0076,7.9987,7.2808,6.1324,6.1268,5.7731,5.2094,5.11,5.0956,5.1036,5.1089,5.1276,5.1517,0.0,0.0,0.0,0.0,0.0,7.5635,7.531,7.5864,7.627,0.0,0.0,0.0,0.0,0.0,0.0,7.9977,8.1658,8.3068,8.4085,8.5641,8.7616,8.995,9.0968,9.2548,9.4654,9.5915,9.7876,10.0715,10.2554,10.3678,10.4448,10.4848,10.3986,10.201,9.9861,9.7106,9.3728,9.0604,8.9243,8.9161,8.7801,8.6166,8.5053,8.5053,8.4051,0.0,0.0,0.0,8.1095,8.2577,8.274,0.0,0.0,0.0,0.0,0.0,0.0,0.0,0.0,7.6626,7.88,7.8077,0.0,0.0,7.274,7.3236,7.3692,7.0831,7.0312,7.0586,7.1015,7.5873,8.0243,8.1792,8.6964,9.1742,9.4264,9.4409,9.4309,9.466,9.4409,9.4108,9.3907,9.3907,9.3656,9.3053,9.2551,9.1898,9.1145,9.0291,8.9538,8.8935,8.8634,8.8634,8.9036,8.9538,9.0342,9.1446,9.2551,9.2802,9.2451,9.225,8.793,8.039,7.9852,7.1923,5.9382,6.0335,5.6547,5.0448,5.0742,5.0929,5.1036,5.1036,5.1143,5.1276,0.0,0.0,7.6318,7.7739,7.711,7.6309,7.64,7.6741,7.7139,0.0,7.8833,7.9765,0.0,0.0,0.0,0.0,8.2369,8.3965,8.4564,8.6539,8.8574,9.0429,9.1865,9.4137,9.7127,9.7845,9.9861,10.3487,10.392,10.5048,10.69,10.69,10.5948,10.4064,10.1795,9.8341,9.384,8.9085,8.6127,8.4669,8.4466,8.3395,8.2228,8.2228,8.1962,8.1746,8.1746,7.9905,7.8093,8.0926,8.0732,0.0,0.0,0.0,0.0,0.0,7.8576,0.0,0.0,0.0,0.0,7.408,7.4497,0.0,6.9249,7.063,7.2527,7.0002,6.9648,7.0078,7.043,7.3377,7.6975,8.0245,8.3786,8.7832,9.3268,9.3957,9.3957,9.4108,9.4058,9.3807,9.3304,9.3304,9.3053,9.2501,9.1949,9.1145,9.009,8.9538,8.9036,8.8484,8.8484,8.8232,8.768,8.8785,8.9839,9.0944,9.1999,9.2752,9.3204,9.2652,8.8269,8.1,8.0211,7.2344,6.0019,5.9827,5.5818,5.0154,5.0475,5.0742,5.0982,5.1036,5.1062,5.1089,0.0,7.686,7.6927,7.7807,7.8757,7.8736,7.6708,7.9185,8.0284,7.7028,7.7968,7.8793,7.8731,0.0,0.0,0.0,8.2074,8.3786,8.3906,8.6299,8.8334,8.9771,9.1626,9.3112,9.4403,9.8181,10.064,10.1406,10.4766,10.6562,10.69,10.69,10.6765,10.6086,10.2393,9.9073,9.6017,8.9705,8.6127,8.4669,8.2571,8.0702,7.8978,7.8978,7.7378,7.531,7.531,7.4902,7.4584,7.6045,7.7834,7.9757,0.0,0.0,0.0,8.0257,0.0,0.0,0.0,0.0,0.0,0.0,7.2524,0.0,6.7833,6.8482,6.9054,6.8657,6.875,6.9101,6.918,7.2482,7.6463,7.971,8.36,8.7542,9.2219,9.2551,9.2551,9.3455,9.3154,9.2852,9.2752,9.2752,9.2501,9.1999,9.1045,9.0141,8.9488,8.9337,8.9036,8.8484,8.8484,8.8383,8.8283,8.8935,8.9839,9.0944,9.1647,9.1999,9.2049,9.1547,8.735,8.0211,7.9718,7.3361,6.2827,6.0204,5.5526,4.986,5.0368,5.0635,5.0688,5.0956,5.1169,5.1383,7.7942,7.7671,7.7874,7.9363,8.0581,8.0615,7.8698,8.1278,8.1922,7.8108,7.7892,7.8193,7.8461,0.0,0.0,0.0,0.0,0.0,0.0,8.624,8.7856,8.8155,9.0369,9.2548,9.4622,9.7298,9.9948,10.231,10.4207,10.5948,10.69,10.69,10.69,10.6697,10.2607,9.8631,9.4714,8.9282,8.5399,8.2727,7.9795,7.8499,7.7823,7.6436,7.4857,7.3534,7.3534,7.3534,7.3164,7.1126,7.356,0.0,7.8487,7.9978,8.1184,0.0,8.1184,8.0721,0.0,0.0,0.0,7.4486,0.0,0.0,0.0,6.75,6.7851,6.7851,6.8203,6.8515,6.8515,7.0343,7.2857,7.6021,7.9898,8.3682,8.8025,9.0194,9.1547,9.2099,9.1949,9.1798,9.1798,9.1798,9.1547,9.1045,9.0442,8.989,8.9287,8.9036,8.8634,8.8032,8.778,8.763,8.763,8.8433,8.9287,9.009,9.0944,9.1346,9.1346,9.0492,8.6431,7.9921,7.8956,7.3035,6.3691,6.0074,5.6009,5.2118,5.0864,5.0421,5.0849,5.1143,5.1437,5.1677,7.9025,7.8483,7.8686,8.0919,8.1794,8.1757,8.0752,8.2302,8.2744,7.9846,7.7701,7.6793,7.7742,0.0,0.0,0.0,0.0,0.0,0.0,8.4803,8.606,8.6299,8.8993,9.1795,9.4807,9.6094,9.8788,10.3196,10.3632,10.4907,10.69,10.69,10.6765,10.6086,10.2393,9.777,9.221,8.8546,8.461,8.0579,7.6957,7.6261,7.6931,7.3763,7.2153,7.1646,7.1646,7.1646,7.1312,6.7643,7.0269,7.5381,7.6843,7.9465,0.0,0.0,0.0,0.0,0.0,0.0,0.0,0.0,0.0,7.0958,0.0,0.0,0.0,6.7383,6.7734,6.8086,6.8086,6.8125,6.9408,7.258,7.6234,7.9863,8.3703,8.7859,9.0593,9.0894,9.0944,9.0944,9.0944,9.0844,9.0593,9.0141,9.004,8.9789,8.9287,8.8785,8.8182,8.763,8.7178,8.6877,8.6776,8.7881,8.8735,8.9287,9.009,9.0593,9.0743,8.8888,8.4992,7.9562,7.7817,7.2615,6.4908,6.1061,5.7972,5.5499,5.1372,5.0288,5.1062,5.1437,5.173,5.1971,7.9363,7.8483,7.8686,8.0919,8.1283,8.1049,8.0694,8.2276,8.2824,8.1138,7.5589,7.2721,0.0,0.0,0.0,0.0,0.0,0.0,7.9118,0.0,8.1332,8.4803,8.8035,9.0534,9.2021,9.5097,9.8221,10.1037,10.2837,10.4907,10.69,10.69,10.5948,10.413,10.1795,9.6961,9.0266,8.7915,8.461,8.0579,7.4724,7.3045,0.0,7.0526,6.7782,6.5226,6.5226,6.5226,6.5829,0.0,7.214,7.5803,0.0,8.2887,8.48,8.2152,0.0,0.0,0.0,0.0,0.0,0.0,7.3805,0.0,6.7592,0.0,6.6914,6.6914,0.0,6.7539,6.7539,0.0,0.0,7.258,7.5769,7.918,8.266,8.6384,8.9287,9.0743,9.0944,9.0944,9.0944,9.0492,9.0191,9.009,8.9639,8.9337,8.9287,8.8785,8.8182,8.763,8.7529,8.7278,8.6776,8.7881,8.8735,8.9287,8.8935,8.9287,9.0141,8.6082,8.241,7.9359,7.6279,7.2795,6.9166,6.531,6.2231,5.8843,5.2371,5.0475,5.1089,5.165,5.2051,5.2292,8.1325,8.0784,8.1257,8.349,8.2932,8.2256,8.2489,8.1891,8.182,8.2462,7.8588,7.7013,0.0,0.0,0.0,0.0,0.0,7.7861,0.0,0.0,0.0,8.235,8.6,8.8753,9.0429,9.3048,9.5629,9.8442,10.0908,10.3049,10.5048,10.5048,10.4558,10.3632,9.8915,9.4293,8.9963,8.6271,8.332,8.0368,7.4283,7.2367,0.0,6.802,6.5468,6.4297,6.4297,6.4297,6.49,0.0,7.2377,0.0,0.0,0.0,0.0,8.3846,0.0,0.0,0.0,0.0,0.0,0.0,0.0,0.0,6.8055,0.0,6.6875,0.0,0.0,0.0,0.0,0.0,0.0,0.0,7.2451,7.6022,7.9204,8.2801,8.6433,8.9155,8.9789,8.994,8.994,8.9789,8.9639,8.9639,8.9438,8.9136,8.8785,8.8283,8.768,8.7128,8.6826,8.6676,8.6776,8.7278,8.778,8.8283,8.8383,8.8735,8.9136,8.5222,8.1936,7.8665,7.5476,7.2456,6.9548,6.3724,6.1088,5.9962,5.2808,5.0394,5.0875,5.1624,5.2078,5.2372,8.4099,8.3625,8.3858,8.5379,8.4424,8.3363,8.3479,8.16,8.1003,8.3362,0.0,0.0,8.3971,8.3033,0.0,0.0,7.9663,7.7921,0.0,0.0,7.8519,0.0,0.0,0.0,8.9651,9.1566,9.4001,9.6628,9.9481,10.1795,10.3776,10.3776,10.3487,10.2689,9.731,9.2861,8.8985,8.5752,8.2917,8.0368,7.4283,7.1502,7.0526,6.591,6.4297,6.4297,6.4297,6.4375,6.5097,6.9096,7.1988,0.0,7.8767,0.0,8.021,0.0,0.0,0.0,8.1693,0.0,0.0,0.0,0.0,0.0,0.0,0.0,0.0,0.0,6.6875,0.0,0.0,0.0,6.6875,6.6875,0.0,7.3101,7.5539,7.9827,8.3973,8.7903,8.8735,8.9036,8.9036,8.9187,8.9287,8.9287,8.9287,8.9136,8.8735,8.8032,8.7429,8.7027,8.6374,8.6174,8.6525,8.6877,8.7178,8.758,8.7212,8.7328,8.7194,8.2989,7.9647,7.7561,7.4088,7.1842,6.9703,6.3322,6.0699,6.006,5.3904,5.1028,5.0475,5.1517,5.2051,5.2265,8.7685,8.667,8.5624,8.5365,8.4458,8.3613,8.2917,8.1197,0.0,0.0,0.0,0.0,0.0,0.0,0.0,0.0,0.0,7.056,7.5587,0.0,7.6365,0.0,0.0,8.7616,0.0,9.1566,9.4001,9.6628,9.9481,10.1795,10.3776,10.3776,10.2755,10.073,9.8592,9.362,8.7197,8.7007,8.461,8.0368,7.4283,6.9016,6.454,0.0,6.4297,6.4297,6.4297,0.0,0.0,6.9221,7.0804,0.0,0.0,0.0,0.0,0.0,0.0,0.0,0.0,0.0,0.0,7.2633,0.0,0.0,0.0,0.0,6.6875,0.0,0.0,0.0,0.0,0.0,0.0,0.0,6.9554,0.0,0.0,7.785,8.3394,8.7073,8.8132,8.8484,8.8484,8.8986,8.9287,8.9287,8.9287,8.9287,8.9287,8.8182,8.758,8.758,8.6575,8.6023,8.6023,8.7077,8.758,8.758,8.5021,8.4038,8.4275,7.7576,7.4847,7.5054,7.1541,7.0312,7.0397,6.6511,6.2853,5.9626,5.6351,5.2877,4.994,5.1356,5.1891,5.1971,9.0797,9.0527,8.9663,8.7876,8.5818,8.4298,8.3552,8.3961,0.0,0.0,0.0,0.0,0.0,8.7425,8.5396,0.0,0.0,7.8041,7.7203,7.6724,0.0,0.0,0.0,8.7796,0.0,0.0,9.3222,9.4668,9.7371,9.9861,10.186,10.0421,10.0111,10.064,9.5335,9.0843,8.6817,8.5282,8.3118,8.0417,7.4976,6.9526,6.4297,0.0,6.4297,6.4297,6.4297,6.4609,0.0,6.9221,7.0604,7.151,7.5314,7.5011,7.3563,7.453,7.4047,0.0,0.0,0.0,7.5686,7.2388,0.0,0.0,0.0,0.0,0.0,0.0,0.0,0.0,0.0,0.0,0.0,0.0,0.0,6.9305,0.0,7.7295,8.1052,8.0213,8.466,8.7881,8.7881,8.8383,8.8735,8.8735,8.9036,8.9136,8.8785,8.8383,8.8032,8.763,8.7278,8.7077,8.7077,8.7429,8.6386,8.4439,8.3797,8.2369,8.038,7.6581,7.497,7.488,7.19,7.0586,7.0207,6.4268,6.1079,5.9344,5.3762,5.0889,4.986,5.0929,5.133,5.1437,9.2353,9.2086,9.1181,8.8851,8.6252,8.4462,0.0,0.0,0.0,0.0,9.0218,0.0,9.3527,0.0,9.1278,0.0,8.6599,8.3606,8.0794,8.0614,0.0,8.4684,8.6479,0.0,0.0,0.0,0.0,9.3601,9.628,9.8332,9.9704,9.8332,9.8493,9.9547,9.4431,9.0231,8.6817,8.5282,8.3118,8.0467,7.5616,6.9824,6.4297,0.0,6.4297,6.4297,0.0,6.4648,6.5441,6.7846,6.9027,6.9847,7.2261,7.1654,7.0464,7.2346,7.1654,7.0505,7.2346,7.3077,0.0,7.0464,7.001,0.0,6.738,0.0,0.0,0.0,0.0,0.0,0.0,0.0,0.0,0.0,0.0,6.8055,0.0,7.6164,7.9279,7.8341,8.3615,8.6824,8.563,8.7094,8.8132,8.8132,8.8484,8.8634,8.8484,8.8283,8.8082,8.7931,8.768,8.758,8.758,8.6585,8.5012,8.3039,8.112,7.9202,7.7238,7.4755,7.3697,7.3558,7.1848,7.0132,6.8436,6.2644,5.9442,5.7517,5.1935,4.9833,4.9833,5.0581,5.0982,5.1276,9.2372,9.1459,9.0097,8.8385,8.5657,0.0,0.0,0.0,8.9631,0.0,9.2863,9.5765,9.5575,9.3926,9.3302,9.4499,8.995,8.6659,8.6,8.5881,0.0,0.0,8.8155,8.9471,9.0728,0.0,0.0,0.0,9.628,9.758,9.7743,9.758,9.758,9.758,9.5358,9.1558,8.7007,8.6817,8.4465,8.0467,7.5662,7.0059,6.454,6.454,6.454,6.4297,6.4336,6.4883,6.5586,6.5586,6.6172,6.6875,6.6875,6.6875,6.6875,6.6875,6.6875,6.6875,6.6875,6.6875,6.6875,6.6875,0.0,0.0,0.0,0.0,6.6875,0.0,0.0,0.0,0.0,0.0,0.0,0.0,0.0,0.0,7.0958,7.4289,7.7397,8.049,8.4288,8.5544,8.241,8.5532,8.758,8.758,8.758,8.7831,8.8383,8.7931,8.7881,8.8433,8.7931,8.768,8.768,8.4835,8.3562,8.3324,7.7195,7.4676,7.488,7.206,7.0976,7.1367,7.1367,6.9161,6.5487,6.1865,5.8087,5.446,5.1324,4.9967,4.9833,5.0368,5.0956,5.1517,9.1536,8.8858,8.6868,8.6806,8.5144,8.4145,0.0,0.0,0.0,0.0,9.4458,9.683,9.6415,9.6298,9.5815,9.4738,9.2464,0.0,0.0,0.0,0.0,9.0309,9.0668,9.1506,9.2823,9.3182,0.0,9.4319,9.4955,9.6145,9.7743,9.6145,9.6145,9.7518,9.3625,9.0048,8.6817,8.5379,8.2213,7.8112,7.7364,7.326,6.7782,0.0,6.639,6.4375,6.4648,6.5117,6.5664,6.5937,6.6406,6.6875,6.6875,6.6875,6.6875,6.6875,6.6875,6.6875,6.6875,6.6875,6.6875,6.6875,6.6875,6.6875,0.0,0.0,0.0,0.0,0.0,0.0,0.0,0.0,0.0,6.6875,6.6875,6.7088,6.8055,7.2834,7.5731,7.4332,8.1327,8.5999,8.4999,8.6174,8.7027,8.7027,8.7379,8.768,8.778,8.8132,8.8283,8.8484,8.8735,8.8885,8.8885,8.5797,8.2885,8.0409,7.671,7.3723,7.1398,7.1394,7.125,7.1367,7.1719,6.9388,6.5487,6.1898,5.8405,5.446,5.1104,5.0047,5.0368,5.0528,5.0956,5.157,9.118,8.8427,8.6173,8.572,0.0,0.0,8.594,9.019,0.0,9.2524,9.6174,0.0,9.7551,9.7491,9.7072,9.5935,9.5157,0.0,9.2883,0.0,0.0,9.2883,9.2643,9.2943,9.402,9.3721,0.0,9.4618,9.4618,9.5247,9.6313,9.5076,9.5247,9.6313,9.3569,9.1131,8.8962,8.599,8.2622,7.8933,7.8249,7.531,0.0,6.9354,6.7865,6.6512,6.553,6.5351,6.5664,6.6094,6.6523,6.6875,6.6875,6.6875,6.6875,6.6875,6.6875,6.6875,6.6875,6.6875,6.6875,6.6875,6.6875,6.6875,6.6875,6.6875,6.6875,0.0,0.0,0.0,0.0,0.0,0.0,6.6875,6.6875,6.738,6.8806,7.3363,7.6208,7.5925,8.1923,8.6023,8.6023,8.6274,8.6425,8.6425,8.6726,8.7027,8.7228,8.7529,8.7981,8.8433,8.8785,8.9036,8.9287,8.4562,8.1325,7.9359,7.4886,7.1963,7.039,7.1055,7.1484,7.164,7.1875,6.8717,6.3199,6.1603,5.7445,5.2355,5.0647,5.0127,5.0448,5.0688,5.1062,5.157,9.0356,8.8512,8.6542,8.5233,8.5462,0.0,0.0,9.1757,0.0,9.3661,0.0,9.8912,9.8447,9.7729,9.7491,9.791,0.0,9.7132,9.5935,9.5755,9.5456,9.4917,9.4319,9.4199,9.4738,9.4139,9.408,0.0,9.4618,9.4618,9.4618,9.4618,9.4618,9.4618,9.4211,9.3277,9.163,8.7844,8.4996,8.2721,8.0503,7.7728,7.4357,7.1646,7.0122,6.9203,6.7112,6.616,6.5742,6.6172,6.6562,6.6875,6.6875,6.6875,6.6875,6.6875,6.6875,6.6875,6.6875,6.6875,6.6875,6.6875,6.7127,6.7592,6.7592,6.7804,6.8055,6.7592,6.7592,6.738,0.0,0.0,0.0,6.6875,6.6875,0.0,0.0,7.4289,7.7588,8.0721,8.4073,0.0,8.6023,8.6023,8.6023,8.6023,8.6023,8.6174,8.6676,8.6776,8.7228,8.8232,8.8283,8.8634,8.9187,8.2495,7.9359,7.9449,7.3205,7.0312,7.082,7.1211,7.1601,7.1992,7.1992,6.7763,6.0685,6.1015,5.6564,4.9753,5.0047,5.0181,5.0261,5.0795,5.1223,5.1543,8.7651,8.6078,8.5448,8.612,8.6419,8.7077,8.8873,8.8282,8.8883,9.2414,9.217,9.3419,9.8087,9.7387,9.754,9.9761,9.8987,0.0,0.0,0.0,0.0,9.6234,9.6114,9.5875,9.5456,9.5277,9.5037,0.0,0.0,9.4618,9.4618,9.4618,9.4618,9.4445,9.2332,9.1602,9.1803,8.9799,9.0105,9.1378,8.9276,8.5263,8.0602,8.0392,7.595,6.9442,6.9836,6.8248,6.6172,6.664,6.6797,6.6875,6.6875,6.6875,6.6875,6.6875,6.6875,6.6875,6.6875,6.6875,6.6875,6.6875,6.8765,7.0958,7.0958,7.2834,7.4004,7.145,7.0958,6.9969,6.738,0.0,0.0,0.0,0.0,0.0,0.0,7.4486,7.7588,8.0721,8.4073,8.6023,8.6023,8.6023,8.6023,8.6023,8.6023,8.6023,8.6174,8.6525,8.6877,8.7027,8.7529,8.8032,0.0,0.0,7.9135,7.9693,7.3328,7.0508,7.125,7.1328,7.1601,7.1992,7.1992,6.7763,6.0652,6.0751,5.6381,4.9753,5.0047,5.0288,5.0555,5.0902,5.1223,5.1543,8.544,8.5662,8.612,8.5701,8.6539,0.0,0.0,8.525,8.5635,9.1045,9.0502,9.1603,9.6545,9.6376,9.7279,10.0239,9.9885,9.9226,9.8568,9.8269,9.797,9.7611,9.7252,9.6892,9.6593,9.6294,9.5755,9.5097,0.0,0.0,9.4618,9.4618,9.5247,9.6206,9.6801,9.7581,9.8144,9.6299,0.0,9.5617,9.3305,9.0235,8.6771,8.3881,8.0586,7.6871,7.4518,7.1594,6.8732,6.7262,6.6875,6.6875,6.6875,6.6875,6.6875,6.6875,6.6875,6.6875,6.6875,6.8095,6.9264,6.9264,7.1899,7.4004,7.4004,7.5207,7.5925,7.4573,7.2876,7.0711,6.7592,6.6875,0.0,0.0,0.0,0.0,0.0,7.6877,8.0025,8.3392,8.5026,8.5922,8.5571,8.5571,8.5671,8.5973,8.6023,8.6023,8.6023,8.6274,8.6525,8.6776,0.0,0.0,8.8484,0.0,7.9001,7.9718,7.3246,7.0312,7.0742,7.1172,7.1484,7.1719,7.1875,6.7763,6.0368,5.6395,5.2799,4.9539,4.9833,5.002,5.0181,5.0635,5.0982,5.1356,8.4032,8.5641,8.6778,8.5222,8.6359,8.6987,8.5706,8.3783,8.4112,8.9111,8.8662,8.9377,9.397,9.4562,9.5979,9.9617,10.0478,10.0483,9.9945,9.9645,9.9286,9.8748,9.8089,9.767,9.7491,9.7012,9.6473,0.0,0.0,0.0,0.0,9.4678,9.5759,9.8155,10.0966,10.3068,0.0,0.0,10.1152,9.9843,9.683,9.4767,9.2559,8.7767,8.5441,8.3855,7.9317,7.5093,7.1204,6.8806,6.7592,6.6875,6.6875,6.6875,6.6875,6.6875,6.738,6.7843,6.7843,7.0258,7.2633,7.2633,7.5011,7.7351,7.7351,7.8059,7.8295,7.7633,7.4289,7.0711,6.7592,6.6875,0.0,0.0,0.0,0.0,0.0,7.9279,8.2381,8.5525,8.6023,8.5822,8.537,8.5219,8.537,8.5922,8.5922,8.5822,8.5822,8.5922,8.6174,0.0,0.0,8.7128,8.8283,0.0,7.8822,7.9494,7.3082,7.0039,7.0273,7.0859,7.1211,7.1367,7.1601,6.7542,5.9953,5.2393,4.9272,4.9326,4.9539,4.9646,4.978,5.0234,5.0635,5.1036,8.4212,8.4923,8.5821,0.0,0.0,0.0,8.738,8.5297,8.4392,8.6145,8.3247,8.3495,8.9714,9.1411,9.357,9.7365,9.9952,10.1381,10.1261,10.0184,9.9466,9.9406,9.8808,9.8149,9.7491,9.7431,9.7132,0.0,0.0,9.5576,0.0,9.4917,9.6001,9.8776,9.9687,0.0,0.0,10.5269,10.5527,10.6841,10.3224,10.0361,9.8016,9.6595,9.1282,8.4567,8.4403,7.8953,7.1654,7.1408,6.9264,6.6875,6.6875,6.6875,6.6875,6.6875,6.9055,7.1204,7.1204,7.3563,7.5925,7.5925,7.8341,8.0721,8.0721,8.2887,8.4299,8.1414,7.597,7.0711,6.7592,6.6875,6.6875,0.0,0.0,0.0,0.0,0.0,8.2381,8.5525,8.6023,8.5973,8.5922,8.547,8.537,8.5922,8.5521,8.5219,8.5219,8.5722,8.6023,8.6073,8.6073,8.6575,8.768,8.1097,7.8442,7.9782,7.2918,6.9922,7.0664,7.0312,7.0625,7.1367,7.1015,6.6842,5.9593,5.2279,4.9272,4.9272,4.9326,4.9486,4.9726,4.978,5.0154,5.0662,0.0,0.0,0.0,0.0,0.0,0.0,0.0,8.4168,8.3547,8.226,8.1187,8.2779,8.8717,9.0408,9.326,9.8737,10.0286,10.0902,10.0902,10.0364,9.9765,9.8927,9.8688,9.8389,9.8149,9.8089,9.779,0.0,0.0,0.0,0.0,9.5336,9.7398,10.1573,0.0,10.7368,10.969,10.9018,10.864,10.804,10.6544,10.4311,10.1446,9.9572,9.5319,9.01,8.8705,8.3503,7.7397,7.7397,7.409,6.9554,6.7592,6.8305,6.9264,6.7592,6.9264,7.1696,7.1696,7.5491,7.9279,7.9279,8.1693,8.4073,8.4073,8.5026,8.5575,8.4299,7.9045,7.352,7.0464,6.8305,6.7592,0.0,0.0,0.0,0.0,0.0,8.4575,8.5749,8.6023,8.5872,8.5521,8.532,8.5069,8.5019,8.5069,8.532,8.5671,8.5922,8.6023,8.6023,0.0,8.6525,8.758,8.105,7.8129,7.9225,7.2632,6.9492,6.957,6.9922,7.0547,7.1058,6.6114,6.268,5.9855,5.2136,4.9112,4.9272,4.9272,4.9352,4.9459,4.9646,4.9967,5.0368,8.0494,0.0,8.3726,0.0,8.594,8.6461,8.3058,8.4223,8.425,8.1134,8.2161,8.4518,8.7409,9.0271,9.3778,9.8652,9.9936,10.0483,10.0483,10.0304,9.9765,9.8867,9.8628,0.0,9.8508,9.8508,9.8269,9.779,9.7611,0.0,0.0,0.0,0.0,0.0,10.6873,10.9566,11.1365,11.1365,11.059,10.915,10.8755,10.694,10.4384,10.1933,9.8211,9.3983,9.1955,8.6898,8.1184,8.1184,7.8105,7.3805,6.9513,6.9762,7.1204,6.7843,6.9762,7.3077,7.3077,7.7633,8.261,8.261,8.4349,8.6023,8.6023,8.6023,8.5749,8.48,8.0257,7.5447,7.2388,6.9015,6.7843,7.1204,0.0,0.0,0.0,8.4073,8.6023,8.6023,8.6023,8.5822,8.542,8.5219,8.5069,8.4818,8.5019,8.532,8.5722,8.5922,8.6023,0.0,0.0,0.0,0.0,8.0817,7.8015,7.8598,7.2345,6.914,6.9023,6.9765,7.0312,7.0513,6.4161,6.1079,5.9757,5.3209,5.0233,4.9272,4.9272,4.9272,4.9326,4.9513,4.9833,5.0181,8.0075,8.1931,8.3726,8.3726,8.594,8.6814,8.4405,8.6751,8.7643,8.461,8.6886,8.7856,8.5327,9.0855,9.4809,9.5443,9.8525,10.0483,10.0483,9.9885,9.9526,0.0,0.0,9.8508,9.8508,9.8508,9.8508,9.8508,0.0,0.0,9.7431,0.0,9.9316,10.393,10.4088,10.6865,11.1365,11.1365,11.1433,11.1292,10.9799,10.8248,10.6801,10.5195,10.02,9.4189,9.4189,8.8593,8.1184,8.1184,8.1184,8.0025,7.3563,7.1654,7.1204,6.7843,7.1366,7.6402,7.6402,8.1,8.5973,8.5973,8.5973,8.6023,8.6023,8.6023,8.5026,8.1923,7.8764,7.5447,7.2388,6.9015,6.7843,7.1204,0.0,0.0,0.0,8.4073,0.0,8.6023,8.6023,8.6023,8.6023,8.547,8.537,8.5922,0.0,0.0,0.0,0.0,0.0,8.6023,8.6023,0.0,8.6776,8.0304,7.7657,7.8397,7.2017,6.9023,6.9453,6.9922,6.9844,6.9268,6.6621,6.3269,5.907,5.6119,5.2713,4.9272,4.9272,4.9272,4.9272,4.9272,4.9646,5.0154,7.9656,8.1212,8.3128,8.5342,8.7556,8.8659,8.7534,8.8914,8.9396,8.7011,8.9929,9.1938,9.0929,9.3057,9.5622,0.0,9.9697,10.0483,0.0,10.0304,9.9945,9.9526,9.8867,9.8508,9.8508,9.8508,9.8508,9.8508,0.0,0.0,0.0,9.8774,10.0257,10.195,10.5455,10.7626,10.9298,11.08,11.1365,11.1292,10.9799,10.8248,10.6737,10.5257,10.02,9.4189,9.4189,8.9991,8.4575,8.4575,8.2887,8.0443,7.6208,7.5011,7.3762,6.8556,7.1408,7.6402,7.6402,8.1184,8.6023,8.6023,8.6023,8.6023,8.6023,8.6023,8.5749,8.48,8.1923,7.8764,7.5491,7.4047,7.3805,7.4727,7.7588,0.0,8.4073,0.0,8.6023,8.6023,8.6023,8.6023,8.6023,8.5822,8.5822,8.6023,0.0,0.0,0.0,0.0,0.0,0.0,8.6023,0.0,8.6776,8.241,7.9635,7.815,7.4088,7.1019,6.9453,6.957,6.9726,6.9618,6.6117,6.4353,6.3304,5.6825,5.3728,5.3005,5.0424,4.9272,4.9272,4.9272,4.9646,5.0154,7.9896,8.1452,8.3367,8.618,8.8155,8.9122,8.8884,9.0513,9.1377,9.0013,9.2966,9.5199,9.5492,9.5901,0.0,9.8925,9.9526,9.9765,9.9765,10.0004,9.9825,9.9167,9.8987,9.8808,9.8508,9.8508,0.0,9.8508,9.8508,9.8329,9.791,9.9382,10.0361,10.1321,10.4441,10.622,10.7061,10.8341,10.9003,10.8855,10.8044,10.6814,10.5405,10.3541,9.9207,9.3983,9.2948,8.9666,8.6023,8.6023,8.3846,8.0721,7.7351,7.5686,7.3762,6.9969,7.2388,7.664,7.7824,8.2104,8.6023,8.6023,8.6023,8.6023,8.6023,8.6023,8.6023,8.6023,8.3392,8.0674,7.853,7.7114,7.6402,7.6402,7.9045,8.1923,8.3797,0.0,8.6023,8.6023,0.0,0.0,0.0,8.6023,8.6023,0.0,0.0,0.0,0.0,0.0,0.0,8.6023,8.6023,0.0,8.6525,8.3324,8.0258,7.7657,7.3837,7.118,6.9453,6.9805,6.9961,7.0078,6.7455,6.6106,6.471,6.0319,5.7044,5.4721,5.2563,5.0588,4.9459,4.9459,4.9753,5.0154,8.0853,8.2529,8.4444,0.0,8.7975,0.0,8.9118,9.1803,9.3744,9.3058,9.5577,9.779,9.8448,9.8508,9.8508,9.8508,0.0,0.0,0.0,9.9167,9.9226,9.8688,9.9167,9.9167,9.8628,9.8568,9.8508,9.8508,9.8508,9.8508,9.8508,9.8508,9.9638,10.1602,10.154,10.2827,10.4857,10.4954,10.5018,10.5018,10.4857,10.4374,10.3407,10.0431,9.7269,9.3777,9.111,8.8252,8.5973,8.5749,8.357,8.0163,7.7114,7.4047,7.1612,7.1696,7.4047,7.7114,8.021,8.3619,8.6023,8.6023,8.6023,8.6023,8.6023,8.6023,8.6023,8.6023,8.357,8.1414,8.1184,7.9045,7.6922,7.6402,7.9325,8.1414,8.1184,8.4073,8.6023,0.0,0.0,0.0,0.0,8.6023,8.6023,0.0,0.0,0.0,0.0,0.0,8.6023,8.6023,8.6023,8.6023,8.6023,8.3067,8.0072,7.7057,7.1803,6.9492,6.957,7.039,7.0508,7.0117,7.0508,6.852,6.4879,6.5402,6.1449,5.53,5.5339,5.32,4.9726,4.9726,4.9887,5.0234,0.0,0.0,8.5282,8.7796,9.013,9.1876,9.2437,9.4808,9.6536,9.6417,9.7491,9.8329,9.8508,9.8508,9.8508,9.8508,9.8987,9.9286,9.9286,9.9406,9.9645,10.0004,9.9226,9.8927,9.9286,9.8808,9.8508,9.8508,9.8508,9.8508,9.8508,9.8508,9.8868,9.9344,10.0914,10.205,10.2555,10.4372,10.5018,10.4857,10.3789,10.3293,10.3294,9.9361,9.6338,9.3777,9.111,8.8252,8.5525,8.3067,7.9975,7.6662,7.3675,7.2134,7.1234,7.157,7.4047,7.716,8.021,8.3619,8.6023,8.6023,8.6023,8.6023,8.6023,8.6023,8.6023,8.6023,8.53,8.4073,8.1693,8.261,8.2152,7.716,8.1184,8.4073,8.1462,8.4073,8.6023,0.0,8.6023,8.6023,8.6023,8.6023,8.6023,0.0,0.0,0.0,0.0,8.6023,8.6023,8.6023,8.6023,8.6023,8.6023,8.525,8.2594,7.804,7.2088,6.9805,7.043,7.0625,7.0508,7.0078,7.0195,6.9625,6.8521,6.6533,6.3164,5.8977,5.6747,5.3372,4.9726,4.9726,5.0047,5.0475,8.3846,8.4743,8.594,8.8274,9.0608,9.2464,9.3421,9.5576,9.7192,9.7431,9.8089,9.8508,9.8508,9.8508,9.8508,9.8508,9.8867,9.9047,9.9047,9.9346,9.9526,9.9586,9.9466,9.9286,9.9047,9.8987,9.8808,9.8508,9.8508,9.8508,9.8508,9.8508,9.8508,9.8508,9.9638,10.028,10.028,10.143,10.205,10.2004,10.1171,10.1257,10.1332,9.7891,9.5121,9.2952,9.0309,8.6505,8.2837,8.1155,7.8164,7.5226,7.4049,7.3329,7.3439,7.5553,7.716,7.9325,8.261,8.48,8.6023,8.6023,8.6023,8.6023,8.6023,8.6023,8.6023,8.6023,8.6023,8.5525,8.3619,8.48,8.3797,7.7351,8.1923,8.4299,7.9792,8.3067,0.0,8.6023,8.6023,8.6023,8.6023,8.6023,8.6023,8.6023,8.6023,0.0,8.6023,8.6023,8.6023,8.6023,8.6023,8.6023,8.6023,8.3115,8.1103,8.0269,7.4595,7.2124,7.3013,7.3457,7.2619,7.0664,7.043,7.039,7.0163,6.8858,6.522,6.0378,5.939,5.5111,4.9887,4.9887,5.0047,5.0261,8.4504,8.5342,8.6479,8.8514,9.0549,9.2344,9.3661,9.5576,9.7072,9.7551,9.8149,9.8508,9.8508,9.8508,9.8508,9.8508,9.8508,9.8508,9.8508,9.9047,9.9167,9.8688,9.9645,9.9765,9.8867,9.9286,9.9167,9.8508,9.8508,9.8508,9.8508,9.8508,9.8508,9.8508,9.8508,9.8508,9.8508,9.8508,9.8508,9.8508,9.8508,9.8927,9.9101,9.6507,9.4103,9.2017,8.9401,8.4885,8.034,7.9841,7.8021,7.5803,7.5741,7.5966,7.6951,8.0348,8.1462,8.261,8.525,8.6023,8.6023,8.6023,8.6023,8.6023,8.6023,8.6023,8.6023,8.6023,8.6023,8.6023,8.6023,8.6023,8.4073,7.8059,8.2152,8.3846,7.8059,0.0,8.6023,8.6023,8.6023,8.6023,8.6023,8.6023,8.6023,8.6023,8.6023,8.6023,8.6023,8.6023,8.6023,8.6023,8.6023,8.6023,8.6023,8.0072,7.922,8.3039,7.781,7.5567,7.6019,7.6775,7.513,7.1367,7.0976,7.0781,7.0781,7.1328,6.745,6.1026,6.2039,5.7185,5.0234,5.0154,5.002,4.9967,8.4564,8.5701,8.7137,8.9172,9.1626,9.3721,9.5097,9.6952,9.8269,9.8329,9.8448,9.8508,9.8508,9.8508,9.8508,9.8508,9.8508,9.8508,9.8508,9.8628,9.8867,9.9346,9.8987,9.9226,10.0184,9.9765,9.9167,9.8508,9.8508,9.8508,9.8508,9.8508,9.8508,9.8508,9.8508,9.8508,9.8508,9.8508,9.8508,9.8508,9.8508,9.8927,9.9101,9.6507,9.4103,9.2017,8.9401,8.6281,8.3165,8.0565,7.9388,7.8572,7.6255,7.756,8.0059,8.1041,8.3115,8.525,8.5749,8.6023,8.6023,8.6023,8.6023,8.6023,8.6023,8.6023,8.6023,8.6023,8.6023,8.6023,8.6023,8.6023,8.48,8.0953,8.3619,8.48,8.0953,0.0,8.6023,8.6023,8.6023,8.6023,8.6023,8.6023,8.6023,8.6023,8.6023,8.6023,8.6023,8.6023,8.6023,8.6023,8.6023,8.6023,8.6023,8.2815,8.2093,8.3846,8.0708,7.8425,7.6985,7.7111,7.513,7.1367,7.1289,7.1055,7.082,7.1992,6.8,6.1026,6.2336,5.7846,5.0475,5.0261,5.0288,5.0475,8.5043,8.6599,8.8155,8.9412,9.1026,9.2923,9.5221,9.5761,9.652,9.8268,9.8508,9.8688,9.8987,9.8748,9.8688,9.9047,9.8748,9.8508,9.8508,9.8508,9.8688,9.8987,9.9047,9.9526,10.0483,9.9466,9.8987,9.9047,9.8688,9.8508,9.8508,9.8508,9.8508,9.8508,9.8508,9.8508,9.8508,9.8508,9.8508,9.8508,9.8508,9.8688,9.8806,9.7589,9.5592,9.3204,9.0424,8.6673,8.2677,7.9825,7.8949,7.9056,7.816,8.0185,8.3111,8.365,8.48,8.6023,8.6023,8.6023,8.6023,8.6023,8.6023,8.6023,8.6023,8.6023,8.6023,8.6023,8.6023,8.6023,8.6023,8.6023,8.5026,8.1645,8.3797,0.0,0.0,8.4073,8.6023,8.6023,8.6023,8.6023,8.6023,8.6023,8.6023,8.6023,8.6023,8.6023,8.6023,8.6023,8.6123,8.6425,8.6425,8.6575,8.6877,8.4003,8.4172,8.7238,8.4741,8.3116,8.2784,8.31,8.0124,7.4516,7.4272,7.3166,7.1484,7.2344,6.822,6.1288,6.2468,5.7907,5.0555,5.0261,5.0154,4.9853,8.5462,8.7317,8.8993,8.995,9.0805,9.239,9.546,9.5223,9.5558,9.8208,9.8508,9.8748,9.9406,9.9047,9.8927,9.9466,9.9047,9.8688,9.8508,9.8508,9.8508,9.8508,9.9167,9.9645,10.0004,9.9346,9.9047,9.9286,9.8927,9.8688,9.8508,9.8508,9.8508,9.8508,9.8508,9.8508,9.8508,9.8688,9.8688,9.8508,9.8688,9.8688,9.8568,9.8688,9.7169,9.4619,9.2559,8.841,8.3149,8.1194,8.0538,8.0452,8.0838,8.2991,8.542,8.5872,8.6023,8.6023,8.6023,8.6023,8.6023,8.6023,8.6023,8.6023,8.6023,8.6023,8.6023,8.6023,8.6023,8.6023,8.6023,8.6023,8.53,8.2659,0.0,0.0,0.0,8.4349,8.6023,8.6023,8.6023,8.6023,8.6023,8.6023,8.6023,8.6023,8.6023,8.6023,8.6023,8.6023,8.6274,8.6927,8.6977,8.7178,8.758,8.5429,8.626,9.009,8.8314,8.7539,8.7414,8.8128,8.4396,7.7153,7.6985,7.5212,7.2031,7.2617,6.8403,6.1486,6.2534,5.7968,5.0662,5.0368,4.9447,4.8011,8.5581,8.7317,8.9292,9.1147,9.2473,9.4086,9.6234,9.6894,9.7551,9.8448,9.8508,9.8748,9.9406,9.9466,9.9466,9.9526,9.9466,9.9167,9.8568,9.8508,9.8508,9.8508,9.9167,9.9226,9.8688,9.9765,9.9765,9.8568,9.9167,9.9107,9.8508,9.8508,9.8508,9.8508,9.8508,9.8508,9.8568,9.9167,9.9107,9.8568,9.9167,9.9047,9.8568,9.9226,9.7817,9.55,9.5884,9.2657,8.7986,8.7775,8.6323,8.4576,8.4797,8.5248,8.5922,8.6023,8.6023,8.6023,8.6023,8.6023,8.6023,8.6023,8.6023,8.6023,8.6023,8.6023,8.6023,8.6023,8.6023,8.6023,8.6023,8.6023,8.6023,8.5749,0.0,0.0,8.5749,8.5749,8.6023,8.6023,8.6023,8.6023,8.6023,8.6023,8.6023,8.6023,8.6023,8.6023,8.6023,8.6023,8.6475,8.7529,8.7529,8.758,8.758,8.8404,8.9255,9.009,9.0958,8.9973,8.7414,8.846,8.4762,7.7237,7.8301,7.6114,7.207,7.293,6.8623,6.1486,6.2534,5.8091,5.0956,5.0662,4.7869,4.4539,8.6659,8.8215,8.9651,9.0788,9.115,9.21,9.4982,9.4872,9.5336,9.7611,9.8628,9.9406,10.0004,9.9765,9.9645,10.0064,9.9346,9.8808,9.8568,9.8508,9.8508,9.8508,9.8748,9.8987,9.9107,9.9226,9.9406,9.9765,9.9167,9.8987,9.9107,9.8688,9.8748,9.9107,9.9107,9.9346,9.9765,10.0004,9.9945,9.9582,9.822,9.7351,9.6929,9.5576,9.4273,9.3343,9.1907,9.0177,8.8144,8.6333,8.5494,8.5119,8.5119,8.5571,8.6419,8.8033,8.7425,8.6419,8.8084,8.7255,8.6023,8.6023,8.6023,8.6023,8.6023,8.7425,8.847,8.847,8.847,8.847,8.847,8.7204,8.6023,8.6023,0.0,8.6023,8.6023,8.6023,8.6023,8.6023,8.6023,8.6023,8.6023,8.7645,8.847,8.847,9.0096,9.1163,9.1163,9.0184,8.9098,8.758,8.8634,8.9187,8.9187,8.9588,9.0291,9.1195,9.1898,9.1777,9.125,9.2434,8.876,8.1607,8.1915,7.8638,7.2537,7.0284,6.6395,6.1196,5.9636,5.5576,5.0677,4.7894,4.5532,4.3554,8.7077,8.8454,8.9651,9.0489,9.0624,9.1572,9.4564,9.428,9.4861,9.7491,9.8628,9.9466,10.0124,9.9765,9.9705,10.0124,9.9346,9.8748,9.8508,9.8508,9.8508,9.8508,9.8508,9.8748,9.9167,9.8927,9.9167,9.9885,9.9406,9.9286,9.9526,9.9226,9.9406,9.9825,9.9825,10.0064,10.0483,10.0663,10.0234,9.9066,9.7479,9.6013,9.4865,9.3191,9.2495,9.2347,9.0662,8.9515,8.8723,8.7709,8.7157,8.6812,8.7632,8.8108,8.8853,9.0897,9.0096,8.907,9.0897,9.0096,8.8252,8.6419,8.6591,8.7255,8.7255,8.9503,9.1322,9.1322,9.1322,9.111,9.031,8.847,8.7034,8.6246,8.6023,8.6023,8.6023,8.6023,8.6023,8.6023,8.6023,8.6469,8.7459,8.9175,9.0577,9.1589,9.3265,9.4189,9.4189,9.2499,9.0803,8.9061,8.9498,9.004,9.0342,9.0542,9.1045,9.1798,9.23,9.2903,9.3405,9.456,9.1821,8.5857,8.4768,8.0893,7.4582,6.9449,6.4977,6.1196,5.7745,5.33,4.8658,4.5442,4.2885,3.9643,8.6539,8.7796,8.9112,9.0429,9.1746,9.3242,9.5277,9.6114,9.7072,9.8329,9.8508,9.8808,9.9406,9.9526,9.9526,9.9466,9.9466,9.9226,9.8568,9.8508,9.8508,9.8508,9.8508,9.8508,9.8508,9.9167,9.9167,9.8508,9.9825,10.0124,9.9526,10.0184,10.0483,10.0483,10.0483,10.0483,10.0543,10.1201,9.9468,9.6479,9.7171,9.5234,9.2274,9.288,9.3101,9.3156,9.3968,9.2375,9.0524,9.3156,9.2375,9.0685,9.3363,9.4189,9.4189,9.4189,9.4189,9.4189,9.4189,9.4189,9.3002,8.7476,8.8033,9.0096,9.0096,9.2375,9.4189,9.4189,9.4189,9.3363,9.0685,9.0096,8.9287,8.6368,8.6023,8.6023,8.6023,8.6023,8.6023,8.6023,8.6023,8.7238,9.0724,9.0413,9.1589,9.5072,9.452,9.4189,9.4189,9.207,9.1204,9.1838,9.0186,8.9789,9.0944,9.1547,9.1798,9.1798,9.23,9.2903,9.3455,9.456,9.2927,8.8825,8.6405,8.2791,7.7999,7.0549,6.5187,6.1486,5.7745,5.1628,4.4377,4.4636,3.9273,3.1925,8.7796,8.8394,8.9112,9.0429,9.1746,9.2943,9.402,9.5516,9.6892,9.767,9.8628,9.9286,9.9466,9.9526,9.9346,9.8867,9.8389,9.803,9.779,9.8269,9.8508,9.8508,9.8508,9.8508,9.8508,9.8748,9.8927,9.9226,9.9167,9.9466,10.0184,9.9945,10.0304,10.1201,10.1201,10.1441,10.192,10.2099,10.0412,9.7551,9.5939,9.3447,9.0629,8.8757,8.8211,8.8263,8.8418,8.907,9.031,9.111,9.2166,9.3156,9.3983,9.4189,9.4599,9.6478,9.5616,9.4599,9.6478,9.5616,9.3777,9.2166,9.2375,9.2948,9.2948,9.5007,9.7078,9.7078,9.7078,9.6277,9.3363,9.1322,8.9287,8.6368,8.6023,8.6023,8.6023,8.6023,8.6023,8.6023,8.6023,8.7238,9.0724,9.2333,9.4465,9.773,9.9316,9.9163,9.7078,9.6842,9.6026,9.4747,9.3368,9.3047,9.4004,9.2394,9.2149,9.2903,9.3053,9.3656,9.461,9.5313,9.2345,8.6689,8.6166,8.213,7.5615,6.7535,6.3635,6.1883,5.5276,4.9244,4.4327,4.1269,3.6852,3.1795,8.7676,8.8334,8.8993,9.007,9.1566,9.2943,9.384,9.5217,9.6473,9.7371,9.797,9.8448,9.8688,9.8508,9.8209,9.779,9.7371,9.7252,9.7491,9.791,9.8209,9.8508,9.8508,9.8508,9.8508,9.8508,9.8748,9.9107,9.8987,9.9346,10.0064,9.9945,10.0483,10.1441,10.1441,10.186,10.2458,10.1265,9.9163,9.6478,9.357,9.0897,8.8252,8.6641,8.6023,8.6023,8.6023,8.7865,9.031,9.1322,9.4189,9.7533,9.7533,9.7533,9.7731,9.9552,9.8715,9.7929,9.9552,9.8773,9.7533,9.7533,9.6679,9.5818,9.5818,9.7929,9.9997,9.9997,9.9997,9.8715,9.4803,9.2739,9.0524,8.6641,8.6023,8.6023,8.6023,8.6023,8.6023,8.6023,8.7034,8.8895,9.2392,9.4575,9.7249,10.0329,10.1882,10.1893,9.9997,9.9548,9.8733,9.7673,9.6491,9.581,9.5321,9.4371,9.3647,9.3405,9.3405,9.4007,9.5062,9.5414,9.255,8.7307,8.6121,8.1543,7.4161,6.6081,6.2013,6.0097,5.3559,4.7681,4.1936,3.9522,3.4761,2.9353,8.6778,8.7856,8.8993,8.9651,9.1386,9.3122,9.4439,9.5157,9.6055,9.7252,9.6892,9.6773,9.7371,9.6892,9.6533,9.6414,9.6414,9.6653,9.7311,9.7371,9.773,9.8389,9.8448,9.8448,9.8508,9.8508,9.8508,9.8508,9.9107,9.9466,9.9526,10.0124,10.0782,10.1381,10.1441,10.18,10.2151,9.9745,9.6879,9.3983,9.1533,8.8688,8.6023,8.6023,8.6023,8.6023,8.6196,8.8033,9.0897,9.3983,9.8323,10.2518,10.2518,10.2518,10.2518,10.2518,10.2518,10.2518,10.2518,10.2518,10.2518,10.2518,10.0633,9.8715,9.8715,10.0633,10.2518,10.2518,10.2518,10.0824,9.521,9.4189,9.2375,8.6813,8.6023,8.6023,8.6023,8.6023,8.5973,8.6419,8.8688,9.1536,9.5224,9.7476,9.9804,10.227,10.2518,10.2518,10.2518,10.0776,9.9987,10.0681,9.9737,9.7964,9.5495,9.6483,9.5746,9.3455,9.3455,9.4058,9.5162,9.5112,9.2923,8.9281,8.6279,8.0717,7.2697,6.5721,6.0756,5.6915,5.2723,4.5993,3.856,3.8426,3.3001,2.5925,8.7377,8.8574,8.9651,9.0309,9.2045,9.3661,9.4499,9.5157,9.5875,9.6653,9.6653,9.6593,9.6773,9.6653,9.6174,9.5157,9.5037,9.5336,9.5935,9.6473,9.7072,9.767,9.773,9.797,9.8508,9.8508,9.8508,9.8508,9.8688,9.8987,9.9526,9.9645,10.0064,10.0723,10.1261,10.1561,10.174,10.1596,9.8773,9.4189,9.357,9.031,8.6023,8.6023,8.6023,8.6196,8.847,9.0897,9.3983,9.8968,10.1455,10.2518,10.2518,10.2518,10.2518,10.2518,10.2518,10.2518,10.2518,10.2518,10.2518,10.2518,10.2022,10.1645,10.1645,10.2082,10.2518,10.2518,10.2518,10.0824,9.521,9.4189,9.2375,8.6813,8.6023,8.6023,8.6023,8.6023,8.6813,8.8853,8.9666,9.2382,9.7932,10.0816,10.2429,10.2518,10.2518,10.2518,10.2518,10.2429,10.2892,10.3546,10.2474,10.0976,9.8565,9.7572,9.6005,9.4058,9.4058,9.466,9.5715,9.5263,9.1666,8.5779,8.4866,7.9,6.9697,6.5302,6.1487,5.7566,4.981,4.3657,3.8647,3.5053,3.0546,2.6061,8.7556,8.8753,8.989,9.0549,9.1985,9.3242,9.3601,9.396,9.4379,9.5037,9.4858,9.4798,9.5097,9.4858,9.4379,9.3721,9.396,9.4379,9.5097,9.5755,9.6414,9.7012,9.7311,9.767,9.803,9.8329,9.8508,9.8508,9.8508,9.8688,9.9047,9.9047,9.9406,10.0004,10.0364,10.0902,10.1255,9.8969,9.6595,9.3983,9.1322,8.847,8.6023,8.6023,8.6863,8.8033,8.9666,9.2739,9.6879,10.1074,10.2518,10.2518,10.2518,10.2518,10.2518,10.2518,10.2518,10.2518,10.2518,10.2518,10.2518,10.2518,10.2518,10.2518,10.2518,10.2518,10.2518,10.2518,10.2518,10.0824,9.521,9.4189,9.2375,8.6813,8.6023,8.6023,8.6023,8.7204,8.847,8.9881,9.2375,9.5784,10.0465,10.212,10.2817,10.2518,10.2518,10.2638,10.2937,10.3535,10.4194,10.4912,10.5268,10.4299,10.1595,9.9989,9.818,9.5829,9.4789,9.456,9.5112,9.5313,9.1316,8.3841,8.4558,7.7547,6.5533,6.4185,5.922,5.1845,4.7611,4.2056,3.608,3.3737,2.9815,2.6237,8.7556,8.8753,8.989,9.0549,9.1746,9.2583,9.2583,9.2583,9.2823,9.3361,9.2943,9.2823,9.3361,9.2823,9.2464,9.2583,9.3122,9.3721,9.4379,9.5037,9.5695,9.6354,9.6892,9.7252,9.7491,9.803,9.8389,9.8508,9.8508,9.8508,9.8508,9.8508,9.8808,9.9346,9.9466,10.0124,10.0711,9.6054,9.4191,9.4283,8.9451,8.7034,8.6813,8.7255,8.847,9.031,9.111,9.4951,9.9822,10.2339,10.3019,10.3019,10.3019,10.2832,10.2518,10.2518,10.2518,10.2518,10.2518,10.2518,10.2518,10.2518,10.2518,10.2518,10.2518,10.2518,10.2518,10.2518,10.2518,10.0824,9.521,9.4189,9.2375,8.6813,8.6023,8.6196,8.6591,8.8636,9.0524,9.1322,9.5874,9.9997,10.227,10.2518,10.2518,10.2518,10.2518,10.2757,10.3416,10.4014,10.4732,10.5391,10.7366,10.7065,10.3967,10.2834,10.1089,9.8445,9.6546,9.5083,9.4409,9.5162,9.1074,8.3348,8.4468,7.6163,6.2176,6.2469,5.6018,4.561,4.4563,3.9672,3.3075,3.2407,2.9721,2.6359,8.7556,8.8753,8.989,9.0549,9.1746,9.2583,9.2583,9.2583,9.2643,9.2703,9.2643,9.2643,9.2703,9.2165,9.1985,9.2524,9.2703,9.3002,9.3661,9.4379,9.5037,9.5695,9.5815,9.6354,9.7491,9.7611,9.791,9.8508,9.8508,9.8508,9.8508,9.8508,9.8568,9.8688,9.9226,9.9586,9.9642,9.777,9.6872,9.679,9.4228,9.1745,8.9881,9.2166,9.1955,9.0685,9.5413,10.0529,10.4848,10.5267,10.5329,10.5329,10.5329,10.3944,10.2518,10.2518,10.2518,10.2518,10.2518,10.2518,10.2518,10.2518,10.2518,10.2518,10.2518,10.2518,10.2518,10.2518,10.2518,10.0824,9.521,9.4189,9.2375,8.6813,8.6023,8.6813,8.9287,8.9881,9.1955,9.6679,9.9997,10.2082,10.2518,10.2518,10.2518,10.2518,10.2518,10.2757,10.3416,10.4014,10.4732,10.5391,10.7366,10.7065,10.3967,10.4813,10.3943,10.0924,10.1078,9.9009,9.4911,9.4158,9.0243,8.4289,8.4065,7.5799,6.2177,5.878,5.2975,4.4974,3.7769,3.4259,3.2933,2.889,2.7136,2.6359,8.7556,8.9052,9.0309,9.0608,9.1446,9.1925,9.1566,9.1506,9.1506,9.1506,9.1506,9.1506,9.1506,9.1267,9.1327,9.1985,9.2404,9.2883,9.3541,9.4199,9.4738,9.5037,9.5396,9.5875,9.6414,9.7132,9.7611,9.797,9.8329,9.8508,9.8508,9.8508,9.8508,9.8508,9.8808,9.8377,9.713,9.5257,9.4837,9.5031,9.273,9.2166,9.253,9.3777,9.4394,9.521,9.9163,10.2963,10.5801,10.5801,10.5801,10.5801,10.5801,10.4309,10.2518,10.2518,10.2518,10.2518,10.2518,10.2518,10.2518,10.2518,10.2518,10.2518,10.2518,10.2518,10.2518,10.2518,10.2518,10.0824,9.521,9.4189,9.2375,8.6813,8.7255,8.8636,8.9881,9.1322,9.3363,9.5616,9.8519,10.019,10.019,10.1645,10.2638,10.2997,10.2997,10.3416,10.4493,10.4792,10.5331,10.5929,10.7485,10.7726,10.64,10.613,10.5174,10.3887,10.2307,9.9783,9.6669,9.6772,9.2087,8.4109,8.4468,7.6042,6.1948,5.8358,5.0942,4.1225,3.5349,3.159,2.9396,2.7373,2.6658,2.6603]},{"header":{"parameterUnit":"m.s-1","parameterCategory":1,"la1":30.6,"la2":28.766,"lo1":-90.7593,"lo2":-88.6598,"dy":0.0162,"dx":0.0183,"nx":116,"ny":114,"refTime":"2023-04-12T06:00:00:Z","depth":0,"parameterNumber":3,"parameterNumberName":"V-component_of_WINDS"},"data":[0.0,0.0,0.0,0.0,0.0,0.0,0.0,0.0,0.0,0.0,0.0,0.0,0.0,0.0,0.0,0.0,0.0,0.0,0.0,0.0,0.0,0.0,0.0,0.0,0.0,0.0,0.0,0.0,0.0,0.0,0.0,0.0,0.0,0.0,0.0,0.0,0.0,0.0,0.0,0.0,0.0,0.0,0.0,0.0,0.0,0.0,0.0,0.0,0.0,0.0,0.0,0.0,0.0,0.0,0.0,0.0,0.0,0.0,0.0,0.0,0.0,0.0,0.0,0.0,0.0,0.0,0.0,0.0,0.0,0.0,0.0,0.0,0.0,0.0,0.0,0.0,0.0,0.0,0.0,0.0,0.0,0.0,0.0,0.0,0.0,0.0,0.0,0.0,0.0,0.0,0.0,0.0,0.0,0.0,0.0,0.0,0.0,0.0,0.0,0.0,0.0,0.0,0.0,0.0,0.0,0.0,0.0,0.0,0.0,0.0,0.0,0.0,0.0,0.0,0.0,0.0,0.0,0.0,0.0,0.0,0.0,0.0,0.0,0.0,0.0,0.0,0.0,0.0,0.0,0.0,0.0,0.0,0.0,0.0,0.0,0.0,0.0,0.0,0.0,0.0,0.0,0.0,0.0,0.0,0.0,0.0,0.0,0.0,0.0,0.0,0.0,0.0,0.0,0.0,0.0,0.0,0.0,0.0,0.0,0.0,0.0,0.0,0.0,0.0,0.0,0.0,0.0,0.0,0.0,0.0,0.0,0.0,0.0,0.0,0.0,0.0,0.0,0.0,0.0,0.0,0.0,0.0,0.0,0.0,0.0,0.0,0.0,0.0,0.0,0.0,0.0,0.0,0.0,0.0,0.0,0.0,0.0,0.0,0.0,0.0,0.0,0.0,0.0,0.0,0.0,0.0,0.0,0.0,0.0,0.0,0.0,0.0,0.0,0.0,0.0,0.0,0.0,0.0,0.0,0.0,0.0,0.0,0.0,0.0,0.0,0.0,0.0,0.0,0.0,0.0,0.0,0.0,0.0,0.0,0.0,0.0,0.0,0.0,0.0,0.0,0.0,0.0,0.0,0.0,0.0,0.0,0.0,0.0,0.0,0.0,0.0,0.0,0.0,0.0,0.0,0.0,0.0,0.0,0.0,0.0,0.0,0.0,0.0,0.0,0.0,0.0,0.0,0.0,0.0,0.0,0.0,0.0,0.0,0.0,0.0,0.0,0.0,0.0,0.0,0.0,0.0,0.0,0.0,0.0,0.0,0.0,0.0,0.0,0.0,0.0,0.0,0.0,0.0,0.0,0.0,0.0,0.0,0.0,0.0,0.0,0.0,0.0,0.0,0.0,0.0,0.0,0.0,0.0,0.0,0.0,0.0,0.0,0.0,0.0,0.0,0.0,0.0,0.0,0.0,0.0,0.0,0.0,0.0,0.0,0.0,0.0,0.0,0.0,0.0,0.0,0.0,0.0,0.0,0.0,0.0,0.0,0.0,0.0,0.0,0.0,0.0,0.0,0.0,0.0,0.0,0.0,0.0,0.0,0.0,0.0,0.0,0.0,0.0,0.0,0.0,0.0,0.0,0.0,0.0,0.0,0.0,0.0,0.0,0.0,0.0,0.0,0.0,0.0,0.0,0.0,0.0,0.0,0.0,0.0,0.0,0.0,0.0,0.0,0.0,0.0,0.0,0.0,0.0,0.0,0.0,0.0,0.0,0.0,0.0,0.0,0.0,0.0,0.0,0.0,0.0,0.0,0.0,0.0,0.0,0.0,0.0,0.0,0.0,0.0,0.0,0.0,0.0,0.0,0.0,0.0,0.0,0.0,0.0,0.0,0.0,0.0,0.0,0.0,0.0,0.0,0.0,0.0,0.0,0.0,0.0,0.0,0.0,0.0,0.0,0.0,0.0,0.0,0.0,0.0,0.0,0.0,0.0,0.0,0.0,0.0,0.0,0.0,0.0,0.0,0.0,0.0,0.0,0.0,0.0,0.0,0.0,0.0,0.0,0.0,0.0,0.0,0.0,0.0,0.0,0.0,0.0,0.0,0.0,0.0,0.0,0.0,0.0,0.0,0.0,0.0,0.0,0.0,0.0,0.0,0.0,0.0,0.0,0.0,0.0,0.0,0.0,0.0,0.0,0.0,0.0,0.0,0.0,0.0,0.0,0.0,0.0,0.0,0.0,0.0,0.0,0.0,0.0,0.0,0.0,0.0,0.0,0.0,0.0,0.0,0.0,0.0,0.0,0.0,0.0,0.0,0.0,0.0,0.0,0.0,0.0,0.0,0.0,0.0,0.0,0.0,0.0,0.0,0.0,0.0,0.0,0.0,0.0,0.0,0.0,0.0,0.0,0.0,0.0,0.0,0.0,0.0,0.0,0.0,0.0,0.0,0.0,0.0,0.0,0.0,0.0,0.0,0.0,0.0,0.0,0.0,0.0,0.0,0.0,0.0,0.0,0.0,0.0,0.0,0.0,0.0,0.0,0.0,0.0,0.0,0.0,0.0,0.0,0.0,0.0,0.0,0.0,0.0,0.0,0.0,0.0,0.0,0.0,0.0,0.0,0.0,0.0,0.0,0.0,0.0,0.0,0.0,0.0,0.0,0.0,0.0,0.0,0.0,0.0,0.0,0.0,0.0,0.0,0.0,0.0,0.0,0.0,0.0,0.0,0.0,0.0,0.0,0.0,0.0,0.0,0.0,0.0,0.0,0.0,0.0,0.0,0.0,0.0,0.0,0.0,0.0,0.0,0.0,0.0,0.0,0.0,0.0,0.0,0.0,0.0,0.0,0.0,0.0,0.0,0.0,0.0,0.0,0.0,0.0,0.0,0.0,0.0,0.0,0.0,0.0,0.0,0.0,0.0,0.0,0.0,0.0,0.0,0.0,0.0,0.0,0.0,0.0,0.0,0.0,0.0,0.0,0.0,0.0,0.0,0.0,0.0,0.0,0.0,0.0,0.0,0.0,0.0,0.0,0.0,0.0,0.0,0.0,0.0,0.0,0.0,0.0,0.0,0.0,0.0,0.0,0.0,0.0,0.0,0.0,0.0,0.0,0.0,0.0,0.0,0.0,0.0,0.0,0.0,0.0,0.0,0.0,0.0,0.0,0.0,0.0,0.0,0.0,0.0,0.0,0.0,0.0,0.0,0.0,0.0,0.0,0.0,0.0,0.0,0.0,0.0,0.0,0.0,0.0,0.0,0.0,0.0,0.0,0.0,0.0,0.0,0.0,0.0,0.0,0.0,0.0,0.0,0.0,0.0,0.0,0.0,0.0,0.0,0.0,0.0,0.0,0.0,0.0,0.0,0.0,0.0,0.0,0.0,0.0,0.0,0.0,0.0,0.0,0.0,0.0,0.0,0.0,0.0,0.0,0.0,0.0,0.0,0.0,0.0,0.0,0.0,0.0,0.0,0.0,0.0,0.0,0.0,0.0,0.0,0.0,0.0,0.0,0.0,0.0,0.0,0.0,0.0,0.0,0.0,0.0,0.0,0.0,0.0,0.0,0.0,0.0,0.0,0.0,0.0,0.0,0.0,0.0,0.0,0.0,0.0,0.0,0.0,0.0,0.0,0.0,0.0,0.0,0.0,0.0,0.0,0.0,0.0,0.0,0.0,0.0,0.0,0.0,0.0,0.0,0.0,0.0,0.0,0.0,0.0,0.0,0.0,0.0,0.0,0.0,0.0,0.0,0.0,0.0,0.0,0.0,0.0,0.0,0.0,0.0,0.0,0.0,0.0,0.0,0.0,0.0,0.0,0.0,0.0,0.0,0.0,0.0,0.0,0.0,0.0,0.0,0.0,0.0,0.0,0.0,0.0,0.0,0.0,0.0,0.0,0.0,0.0,0.0,0.0,0.0,0.0,0.0,0.0,0.0,0.0,0.0,0.0,0.0,0.0,0.0,0.0,0.0,0.0,0.0,0.0,0.0,0.0,0.0,0.0,0.0,0.0,0.0,0.0,0.0,0.0,0.0,0.0,0.0,0.0,0.0,0.0,0.0,0.0,0.0,0.0,0.0,0.0,0.0,0.0,0.0,0.0,0.0,0.0,0.0,0.0,0.0,0.0,0.0,0.0,0.0,0.0,0.0,0.0,0.0,0.0,0.0,0.0,0.0,0.0,0.0,0.0,0.0,0.0,0.0,0.0,0.0,0.0,0.0,0.0,0.0,0.0,0.0,0.0,0.0,0.0,0.0,0.0,0.0,0.0,0.0,0.0,0.0,0.0,0.0,0.0,0.0,0.0,0.0,0.0,0.0,0.0,0.0,0.0,0.0,0.0,0.0,0.0,0.0,0.0,0.0,0.0,0.0,0.0,0.0,0.0,0.0,0.0,0.0,0.0,0.0,0.0,0.0,0.0,0.0,0.0,0.0,0.0,0.0,0.0,0.0,0.0,0.0,0.0,0.0,0.0,0.0,0.0,0.0,0.0,0.0,0.0,0.0,0.0,0.0,0.0,0.0,0.0,0.0,0.0,0.0,0.0,0.0,0.0,0.0,0.0,0.0,0.0,0.0,0.0,0.0,0.0,0.0,0.0,0.0,0.0,0.0,0.0,0.0,0.0,0.0,0.0,0.0,0.0,0.0,0.0,0.0,0.0,0.0,0.0,0.0,0.0,0.0,0.0,0.0,0.0,0.0,0.0,0.0,0.0,0.0,0.0,0.0,0.0,0.0,0.0,0.0,0.0,0.0,0.0,0.0,0.0,0.0,0.0,0.0,0.0,0.0,0.0,0.0,0.0,0.0,0.0,0.0,0.0,0.0,0.0,0.0,0.0,0.0,0.0,0.0,0.0,0.0,0.0,0.0,0.0,0.0,0.0,0.0,0.0,0.0,0.0,0.0,0.0,0.0,0.0,0.0,0.0,0.0,0.0,0.0,0.0,0.0,0.0,0.0,0.0,0.0,0.0,0.0,0.0,0.0,0.0,0.0,0.0,0.0,0.0,0.0,0.0,0.0,0.0,0.0,0.0,0.0,0.0,0.0,0.0,0.0,0.0,0.0,0.0,0.0,0.0,0.0,0.0,0.0,0.0,0.0,0.0,0.0,0.0,0.0,0.0,0.0,0.0,0.0,0.0,0.0,0.0,0.0,0.0,0.0,0.0,0.0,0.0,0.0,0.0,0.0,0.0,0.0,0.0,0.0,0.0,0.0,0.0,0.0,0.0,0.0,0.0,0.0,0.0,0.0,0.0,0.0,0.0,0.0,0.0,0.0,0.0,0.0,0.0,0.0,0.0,0.0,0.0,0.0,0.0,0.0,0.0,0.0,0.0,0.0,0.0,0.0,0.0,0.0,0.0,0.0,0.0,0.0,0.0,0.0,0.0,0.0,0.0,0.0,0.0,0.0,0.0,0.0,0.0,0.0,0.0,0.0,0.0,0.0,0.0,0.0,0.0,0.0,0.0,0.0,0.0,0.0,0.0,0.0,0.0,0.0,0.0,0.0,0.0,0.0,0.0,0.0,0.0,0.0,0.0,0.0,0.0,0.0,0.0,0.0,0.0,0.0,0.0,0.0,0.0,0.0,0.0,0.0,0.0,0.0,0.0,0.0,0.0,0.0,0.0,0.0,0.0,0.0,0.0,0.0,0.0,0.0,0.0,0.0,0.0,0.0,0.0,0.0,0.0,0.0,0.0,0.0,0.0,0.0,0.0,0.0,0.0,0.0,0.0,0.0,0.0,0.0,0.0,0.0,0.0,0.0,0.0,0.0,0.0,0.0,0.0,0.0,0.0,0.0,0.0,0.0,0.0,0.0,0.0,0.0,0.0,0.0,0.0,0.0,0.0,0.0,0.0,0.0,0.0,0.0,0.0,0.0,0.0,0.0,0.0,0.0,0.0,0.0,0.0,0.0,0.0,0.0,0.0,0.0,0.0,0.0,0.0,0.0,0.0,0.0,0.0,0.0,0.0,0.0,0.0,0.0,0.0,0.0,0.0,0.0,0.0,0.0,0.0,0.0,0.0,0.0,0.0,0.0,0.0,0.0,0.0,0.0,0.0,0.0,0.0,0.0,0.0,0.0,0.0,0.0,0.0,0.0,0.0,0.0,0.0,0.0,0.0,0.0,0.0,0.0,0.0,0.0,0.0,0.0,0.0,0.0,0.0,0.0,6.9004,7.3971,0.0,0.0,0.0,0.0,0.0,0.0,0.0,0.0,0.0,0.0,0.0,0.0,0.0,0.0,0.0,0.0,0.0,0.0,0.0,0.0,0.0,0.0,0.0,0.0,0.0,0.0,0.0,0.0,0.0,0.0,0.0,0.0,0.0,0.0,0.0,0.0,0.0,7.7618,8.0343,8.2987,8.5491,8.4066,8.3389,8.3422,0.0,0.0,0.0,0.0,0.0,0.0,0.0,0.0,0.0,0.0,0.0,0.0,0.0,0.0,0.0,0.0,0.0,0.0,0.0,0.0,0.0,0.0,0.0,0.0,0.0,0.0,0.0,0.0,0.0,0.0,0.0,0.0,0.0,0.0,0.0,0.0,0.0,0.0,0.0,0.0,0.0,0.0,0.0,0.0,0.0,0.0,0.0,0.0,0.0,0.0,0.0,0.0,0.0,0.0,0.0,0.0,0.0,0.0,0.0,0.0,0.0,0.0,0.0,0.0,0.0,0.0,0.0,0.0,0.0,0.0,6.9423,7.1186,0.0,0.0,0.0,0.0,0.0,0.0,0.0,0.0,0.0,0.0,0.0,0.0,0.0,0.0,0.0,0.0,0.0,0.0,0.0,0.0,0.0,0.0,0.0,4.8098,5.1624,5.7091,5.901,6.0898,0.0,0.0,0.0,0.0,0.0,0.0,7.062,7.4618,7.7997,8.063,8.4051,8.7027,8.9444,8.9444,8.8497,8.6738,8.4997,0.0,0.0,0.0,0.0,0.0,0.0,0.0,0.0,0.0,0.0,0.0,0.0,0.0,0.0,0.0,0.0,0.0,0.0,0.0,0.0,0.0,0.0,0.0,0.0,0.0,0.0,0.0,0.0,0.0,0.0,0.0,0.0,0.0,0.0,0.0,0.0,0.0,0.0,0.0,0.0,0.0,0.0,0.0,0.0,0.0,0.0,0.0,0.0,0.0,0.0,0.0,0.0,0.0,0.0,0.0,0.0,0.0,0.0,0.0,0.0,0.0,0.0,0.0,8.4771,8.3861,8.2074,8.151,7.8102,7.2554,7.2979,7.019,6.5911,7.5988,0.0,0.0,0.0,0.0,0.0,0.0,0.0,0.0,0.0,0.0,0.0,0.0,0.0,0.0,0.0,0.0,0.0,0.0,0.0,0.0,0.0,5.1288,5.4447,5.8356,6.1317,6.3698,6.5472,0.0,0.0,0.0,0.0,0.0,7.3313,7.8498,8.1979,8.3514,8.8157,9.0683,9.1,9.1,9.0865,9.0527,8.8948,8.6778,8.3962,0.0,0.0,0.0,0.0,0.0,0.0,0.0,0.0,0.0,0.0,0.0,0.0,0.0,0.0,0.0,0.0,0.0,0.0,0.0,0.0,0.0,0.0,0.0,0.0,0.0,0.0,0.0,0.0,0.0,0.0,0.0,0.0,0.0,0.0,0.0,0.0,0.0,0.0,0.0,0.0,0.0,7.5619,7.5543,0.0,0.0,0.0,0.0,0.0,0.0,0.0,0.0,0.0,0.0,0.0,0.0,0.0,8.2938,8.4473,8.4626,8.4761,8.5143,8.3531,8.2018,8.0753,8.0687,8.008,7.9284,7.8651,0.0,7.005,7.0544,0.0,0.0,0.0,0.0,0.0,0.0,0.0,0.0,0.0,0.0,0.0,0.0,0.0,0.0,0.0,0.0,0.0,0.0,0.0,0.0,0.0,5.3985,5.7037,6.0667,6.3851,6.5991,6.6488,6.9243,0.0,0.0,0.0,7.3612,7.5527,8.0506,8.5296,8.9509,9.2035,9.3436,9.3842,9.3842,9.3842,9.3774,9.3165,9.0634,8.6585,8.4523,0.0,0.0,0.0,0.0,0.0,0.0,0.0,0.0,0.0,0.0,0.0,0.0,0.0,0.0,0.0,0.0,0.0,0.0,0.0,0.0,0.0,0.0,0.0,0.0,0.0,0.0,0.0,0.0,0.0,0.0,0.0,0.0,0.0,0.0,0.0,0.0,0.0,0.0,0.0,7.8182,7.6599,7.9243,7.8668,7.9407,0.0,0.0,0.0,0.0,0.0,0.0,0.0,0.0,0.0,8.1659,8.4851,8.6,8.4748,8.6512,8.8078,8.9282,8.8902,8.8156,8.7071,8.7071,8.6291,8.5051,8.3954,8.1769,7.901,7.7712,7.8387,8.0267,0.0,0.0,0.0,0.0,7.9297,8.0195,0.0,0.0,0.0,0.0,0.0,0.0,0.0,0.0,0.0,0.0,0.0,0.0,5.4479,5.7297,6.0546,6.3693,6.6665,6.8429,6.9064,7.1936,7.3432,7.2954,7.4629,7.6403,7.7965,8.3245,8.8703,9.4451,9.4992,9.5669,9.6345,9.6345,9.6345,9.6345,9.6345,9.3942,8.9683,8.7163,8.5209,8.3922,0.0,0.0,0.0,0.0,0.0,0.0,0.0,0.0,0.0,0.0,0.0,0.0,0.0,0.0,0.0,0.0,0.0,0.0,0.0,0.0,0.0,0.0,0.0,0.0,0.0,0.0,0.0,0.0,0.0,0.0,0.0,0.0,0.0,0.0,0.0,0.0,0.0,7.7253,7.7047,8.134,7.9938,8.032,0.0,0.0,0.0,0.0,0.0,0.0,8.6398,8.8928,8.8797,8.5466,8.9207,9.0217,8.8046,9.074,9.3233,9.5263,9.5872,9.5856,9.5128,9.5261,9.4219,9.2187,9.0946,8.9683,8.8157,8.449,8.1065,7.8303,8.0187,8.0807,8.026,7.7883,7.8759,8.0195,0.0,0.0,0.0,0.0,0.0,0.0,0.0,0.0,0.0,0.0,0.0,5.3732,5.7604,6.1685,6.5203,6.7892,6.9765,7.1745,7.433,7.3552,7.3791,7.5647,7.6963,7.877,8.1257,8.7503,9.2667,9.6683,9.6751,9.7157,9.7901,9.7901,9.7901,9.7901,9.7901,9.6021,9.2839,9.2709,8.9817,8.549,8.5347,0.0,0.0,0.0,0.0,0.0,0.0,0.0,0.0,0.0,0.0,0.0,0.0,0.0,0.0,0.0,0.0,0.0,0.0,0.0,0.0,0.0,0.0,0.0,0.0,0.0,0.0,0.0,0.0,0.0,0.0,0.0,0.0,0.0,0.0,0.0,0.0,0.0,0.0,7.7754,7.6468,0.0,0.0,0.0,0.0,9.0222,9.3565,9.4146,9.1126,9.4414,9.4752,9.0972,9.3926,9.6764,9.9332,10.0337,10.1487,10.2976,10.3111,10.3111,10.3048,10.3724,10.3184,10.177,10.0961,9.9062,9.5494,8.5482,8.3087,8.556,8.2485,8.4101,8.737,8.026,7.828,7.816,0.0,0.0,0.0,0.0,0.0,0.0,0.0,0.0,5.2115,5.4567,5.692,5.9806,6.3763,6.6165,6.841,7.0474,7.2805,7.433,7.4869,7.6006,7.7203,7.84,7.9656,8.2519,8.7181,9.1988,9.5926,9.9051,9.9999,10.0608,10.0878,10.0878,10.0878,10.0878,10.0878,10.0016,9.8234,9.5074,9.2046,8.9196,8.7538,8.4864,0.0,0.0,0.0,0.0,0.0,0.0,0.0,0.0,0.0,0.0,0.0,0.0,0.0,0.0,0.0,0.0,0.0,0.0,0.0,0.0,0.0,0.0,0.0,0.0,0.0,0.0,0.0,0.0,0.0,0.0,0.0,0.0,0.0,0.0,0.0,0.0,0.0,8.183,8.1009,0.0,8.7269,8.798,8.9688,9.3237,9.413,9.506,9.6277,9.851,9.9593,9.9254,10.1216,10.2705,10.3787,10.4599,10.5208,10.5682,10.5682,10.5682,10.5682,10.602,10.5817,10.5276,10.4599,10.2321,9.8787,9.3691,8.8917,8.4532,8.0644,7.9922,8.0668,7.8145,7.7861,7.8579,0.0,0.0,0.0,0.0,0.0,0.0,0.0,0.0,5.6573,5.8322,6.1154,6.432,6.7642,7.0118,7.2444,7.497,7.6245,7.7143,7.7801,7.8639,7.9716,8.1093,8.363,8.7431,9.2748,9.6267,9.9311,10.169,10.2976,10.3923,10.4396,10.4126,10.4126,10.4329,10.4126,10.3585,10.2773,9.918,9.5533,9.1962,9.0049,8.7137,8.3726,0.0,0.0,0.0,0.0,0.0,0.0,0.0,0.0,0.0,0.0,0.0,0.0,0.0,0.0,0.0,0.0,0.0,0.0,0.0,0.0,0.0,0.0,0.0,0.0,0.0,0.0,0.0,0.0,0.0,0.0,0.0,0.0,0.0,0.0,8.2018,8.2709,8.6,8.5729,8.726,9.2244,9.2371,9.3367,9.6993,9.7279,9.8848,10.2299,10.372,10.5208,10.69,10.7915,10.8591,10.8794,10.9268,10.9403,10.92,10.92,10.8997,10.8794,10.8794,10.8524,10.7982,10.7306,10.4869,10.1395,9.8862,9.3831,8.7159,8.2834,8.0364,7.9537,7.9716,8.0255,8.0794,0.0,0.0,0.0,0.0,0.0,0.0,5.4505,5.8212,6.0899,6.0899,6.3658,6.6487,6.9164,7.3428,7.7682,8.1512,8.0075,8.0315,8.3547,8.1392,8.1153,8.3786,8.8845,9.3461,9.752,10.0241,10.2705,10.4802,10.5614,10.6697,10.8118,10.7441,10.7509,10.8118,10.7238,10.6495,10.5751,10.5008,10.0374,9.3562,9.2936,8.9931,8.5581,0.0,0.0,0.0,0.0,0.0,0.0,0.0,0.0,0.0,0.0,0.0,0.0,0.0,0.0,0.0,0.0,0.0,0.0,0.0,0.0,0.0,0.0,0.0,0.0,0.0,0.0,0.0,0.0,0.0,0.0,0.0,0.0,0.0,8.706,8.5758,8.612,8.9412,9.0197,9.1758,9.5062,9.7194,9.9322,10.1555,10.3787,10.6291,10.9268,11.008,11.1501,11.3666,11.3733,11.4004,11.4816,11.468,11.441,11.3666,11.3598,11.326,11.2583,11.2515,11.1703,11.0279,10.9468,10.7005,10.3407,10.0139,9.7208,9.3956,8.9199,8.6425,8.4923,8.5581,8.5402,8.4743,0.0,0.0,0.0,0.0,0.0,0.0,5.7695,6.1075,6.3822,6.4736,6.8677,7.2341,7.4475,7.841,8.1691,8.3726,8.2529,8.2469,8.4325,8.3307,8.4971,8.9975,9.332,9.6715,10.0555,10.4337,10.6764,10.7982,10.9809,11.0892,11.1298,11.1568,11.1568,11.123,10.9469,10.761,10.5741,10.3948,10.0282,9.5712,9.4959,9.1494,8.6359,0.0,0.0,0.0,0.0,0.0,0.0,0.0,0.0,0.0,0.0,0.0,0.0,0.0,0.0,0.0,0.0,0.0,0.0,0.0,0.0,0.0,0.0,0.0,0.0,0.0,0.0,0.0,0.0,0.0,0.0,0.0,9.657,9.5737,9.2224,9.0198,8.989,9.2224,9.3638,9.5828,9.9681,10.2868,10.6062,10.913,11.1501,11.3327,11.468,11.5492,11.6237,11.6845,11.6304,11.6101,11.6304,11.5763,11.5425,11.5222,11.468,11.4274,11.4072,11.353,11.2271,11.0263,10.9682,10.6516,10.2128,10.0821,9.8342,9.4875,9.0647,8.8757,8.8274,8.7975,8.7736,8.7936,0.0,0.0,0.0,0.0,0.0,0.0,6.1821,6.4565,6.6715,6.7712,7.2357,7.6066,7.7502,8.1452,8.4504,8.5821,8.4743,8.4564,8.5881,8.7482,9.0375,9.4605,9.8217,10.1898,10.5721,10.8444,11.0621,11.1974,11.3598,11.468,11.5289,11.4408,11.3893,11.376,11.0821,10.8416,10.6597,10.4696,10.1534,9.7743,9.6839,9.3186,8.8274,8.7736,8.6718,8.5462,8.4803,8.4145,8.3487,8.2828,0.0,0.0,0.0,0.0,0.0,0.0,0.0,0.0,0.0,0.0,0.0,0.0,0.0,0.0,0.0,0.0,0.0,0.0,0.0,0.0,0.0,0.0,0.0,0.0,10.0435,10.0495,9.97,9.7065,9.5855,9.7314,9.9935,10.2812,10.6479,10.9878,11.2985,11.5628,11.6981,11.8131,11.9214,11.9417,11.9619,11.989,11.9214,11.8605,11.8266,11.7928,11.7387,11.6778,11.6304,11.6101,11.6101,11.4341,11.269,11.1067,10.9436,10.6135,10.2144,10.171,9.966,9.6473,0.0,0.0,0.0,0.0,8.9651,9.0219,0.0,0.0,0.0,0.0,0.0,0.0,6.6067,6.8042,6.9363,7.0141,7.4749,7.81,7.8639,8.2948,8.6359,8.7676,8.6659,8.6539,8.7915,9.2372,9.6052,9.8512,10.3392,10.7923,11.2109,11.2989,11.4477,11.6575,11.709,11.817,11.9232,11.6249,11.5283,11.5448,11.1757,10.9333,10.787,10.6241,10.3245,9.9409,9.8175,9.5031,9.0728,8.9412,8.8095,8.6898,8.612,8.5402,8.4803,8.4085,0.0,0.0,0.0,0.0,0.0,0.0,0.0,0.0,0.0,0.0,0.0,0.0,0.0,0.0,0.0,0.0,0.0,0.0,0.0,0.0,0.0,0.0,0.0,0.0,10.3222,10.4481,10.8409,10.5699,10.3527,10.3791,10.7575,11.1272,11.4121,11.7076,11.9281,12.0702,12.0905,12.1514,12.2799,12.2326,0.0,0.0,0.0,12.1582,12.0905,12.077,11.9958,11.8605,11.8402,11.8185,11.7817,11.4907,11.3014,11.1882,10.8996,10.5739,10.2616,10.2616,10.1196,9.8508,9.5935,9.4139,9.2883,9.1686,9.1733,9.2595,0.0,0.0,0.0,0.0,0.0,0.0,6.7353,6.8985,7.038,7.2116,7.6006,7.846,7.8041,8.3068,8.7018,8.8394,8.7796,8.8095,8.995,9.3436,9.802,10.3447,10.8457,11.2906,11.671,11.8672,12.0161,12.1176,12.0435,12.0351,12.0615,11.8571,11.6956,11.5993,11.2847,11.0379,10.8331,10.5285,10.2244,9.9527,9.8744,9.5865,9.2105,9.0788,8.9771,8.8873,8.7137,8.6419,8.612,8.4923,8.4444,8.4205,8.3547,8.2888,0.0,0.0,0.0,0.0,0.0,0.0,0.0,0.0,0.0,0.0,0.0,0.0,0.0,0.0,0.0,0.0,0.0,0.0,0.0,11.0616,11.1244,11.2084,11.4793,11.3809,11.1606,10.8144,11.244,11.6331,11.7974,12.0898,12.2935,12.3814,12.4491,12.4897,12.5235,12.5709,12.6318,12.6994,12.5709,12.4964,12.4829,12.3611,12.2529,12.1582,12.0431,0.0,11.707,11.5203,11.2308,10.8596,10.7555,10.5335,10.2541,10.2541,10.1511,9.9885,9.779,9.6473,9.5695,9.4917,9.582,9.7765,0.0,0.0,0.0,0.0,0.0,0.0,6.9075,7.0337,7.1637,7.3612,7.7322,7.9896,8.0255,8.4085,8.7077,8.8095,8.8514,8.9961,9.3139,9.7874,10.3041,10.8861,11.401,11.8402,12.1311,12.1635,12.2197,12.3331,12.15,12.0776,12.0776,11.8561,11.7061,11.5868,11.2837,11.0513,10.887,10.5787,10.3296,10.1321,9.9346,9.7132,9.4858,9.3242,9.1626,9.001,8.8993,8.8215,8.7556,8.6539,8.6,8.5581,8.4923,8.4265,8.3606,0.0,0.0,0.0,0.0,0.0,0.0,0.0,0.0,0.0,0.0,0.0,0.0,0.0,0.0,10.2494,10.5278,0.0,11.0629,11.3199,11.4401,11.5522,11.7445,11.8614,11.8376,11.4966,11.763,12.0515,12.2359,12.4128,12.5573,12.6318,12.6791,12.6994,12.6994,12.7671,12.8077,12.8144,12.7738,12.74,12.6994,12.5912,12.4153,12.1825,12.0756,11.8763,11.5911,11.4003,11.1556,10.8717,10.7366,10.5027,10.2518,10.2518,10.2279,10.186,10.0842,9.9286,9.7669,9.8479,9.9439,10.0827,0.0,0.0,0.0,0.0,0.0,0.0,0.0,7.1637,7.2834,7.4809,7.822,8.0853,8.205,8.4624,8.6718,8.7796,8.9232,9.2123,9.6764,10.2431,10.8322,11.3909,11.8976,12.2715,12.4801,12.3225,12.3005,12.4248,12.1522,12.0403,12.0403,11.7845,11.6293,11.5418,11.2932,11.1016,10.958,10.7066,10.5091,10.3296,10.0304,9.8508,9.7491,9.5695,9.3361,9.0968,9.0728,8.989,8.8753,8.8095,8.7556,8.6958,8.6419,8.5821,8.5222,8.4684,8.4863,0.0,0.0,0.0,0.0,0.0,0.0,0.0,0.0,9.5161,9.824,10.2484,10.6593,10.968,10.9977,11.2541,11.4466,11.4388,11.6025,11.7997,11.9704,12.2437,12.3687,12.267,12.32,12.4531,12.6564,12.74,12.8077,12.8686,12.8618,12.855,12.855,12.9227,12.9362,12.8821,12.9498,12.9267,12.8032,12.709,12.4731,12.1017,12.0165,11.8117,11.4941,11.2869,11.1067,10.9582,10.7557,10.5271,10.3117,10.3117,10.3296,10.3595,10.3476,10.18,9.9769,10.159,10.2672,10.3496,0.0,0.0,0.0,0.0,0.0,0.0,0.0,0.0,7.3492,7.5527,7.7682,7.9297,8.0075,8.3008,8.594,8.8334,9.0309,9.4062,10.0184,10.4881,11.0657,11.8336,12.1441,12.3583,12.5273,12.4031,12.4017,12.4723,12.152,12.0084,12.0084,11.7021,11.5086,11.4365,11.3558,11.2333,11.0956,10.8922,10.6588,10.4074,10.1979,10.0004,9.8269,9.6892,9.4678,9.2224,9.1087,9.019,8.9471,8.8813,8.8514,8.8454,8.8394,8.7915,8.7377,8.7257,8.7317,8.7377,8.7257,8.8574,9.0442,9.2345,9.483,9.8062,0.0,10.6247,10.9085,11.3267,11.5593,11.6758,11.5739,11.7548,11.8778,11.7997,11.9042,12.143,12.5145,12.5937,12.7247,12.9949,12.9103,12.8698,12.9701,13.0512,13.0918,13.1054,13.0377,13.0106,13.0106,13.0783,13.1121,13.1054,13.173,13.0656,12.7718,12.6264,12.3921,12.056,11.915,11.71,11.399,11.3053,11.1163,10.8479,10.7742,10.6408,10.5091,10.5091,10.4792,10.4194,10.3655,10.3236,10.3073,10.411,10.5757,10.7577,0.0,0.0,0.0,0.0,0.0,0.0,0.0,0.0,7.3791,7.6125,7.7801,7.9477,8.1332,8.4504,8.6898,8.8035,9.0608,9.4802,10.1197,10.5461,11.1114,11.8461,12.1052,12.2801,12.3837,12.2371,12.1709,12.2156,11.9659,11.815,11.7786,11.6979,11.5864,11.4847,11.4607,11.3291,11.1196,10.964,10.7426,10.4792,10.2398,10.0483,9.8927,9.7192,9.5396,9.3661,9.2703,9.1686,0.0,9.0489,9.013,8.983,8.983,8.9651,8.9412,8.9412,8.9711,9.0249,9.1386,9.2883,9.4431,9.6123,9.8348,10.1293,10.5994,10.9868,11.365,11.7959,11.9542,12.0577,12.0908,11.9791,11.9319,12.1215,12.3193,12.5351,12.8061,13.0186,13.1395,13.1361,13.0918,13.058,13.0918,13.1189,13.1392,13.1392,13.1121,13.0918,13.0918,13.2069,13.1735,13.0001,13.1293,13.0427,12.6557,12.6039,12.3637,11.9699,11.8694,11.6346,11.2868,11.22,11.0999,10.94,10.8383,10.7904,10.7725,10.6887,10.6169,10.551,10.5271,10.4673,10.4403,10.6568,10.7892,10.9032,0.0,0.0,0.0,0.0,0.0,0.0,0.0,0.0,0.0,0.0,7.816,8.0135,8.3008,8.5761,8.7556,8.7915,9.0668,9.4984,10.1632,10.5916,11.1292,11.7892,12.0145,12.1419,12.2181,12.0319,11.9659,11.9659,11.8065,11.6941,11.6283,11.6582,11.5984,11.4727,11.4727,11.335,11.0897,10.97,10.7725,10.5211,10.2578,10.0782,9.9526,9.7371,9.5995,9.5037,9.396,9.2883,9.1865,9.1865,9.1566,9.1207,9.1207,9.1207,9.1207,9.1386,9.2165,9.3361,9.5217,9.6773,9.8389,10.037,10.2667,10.5404,10.9699,11.423,11.8397,12.1109,12.259,12.3724,12.4005,12.1922,12.1081,12.4282,12.7031,12.9332,13.0543,13.3329,13.4098,13.1392,13.0918,13.0715,13.0512,13.1189,13.1933,13.2339,13.1933,13.1933,13.2339,13.261,13.1843,12.9342,13.0452,12.9343,12.535,12.4969,12.2902,11.886,11.7877,11.5743,11.3111,11.2213,11.1495,11.0837,10.9879,10.94,10.9341,10.8503,10.7605,10.6707,10.6468,10.6076,10.5947,10.8854,10.9881,11.0227,0.0,0.0,0.0,0.0,0.0,0.0,0.0,0.0,0.0,0.0,0.0,8.1033,8.4325,8.5881,8.7257,8.8574,9.0489,9.4668,10.1508,10.6527,11.1786,11.7433,11.9129,11.9994,12.0056,11.885,11.8354,11.8354,11.748,11.6881,11.6223,11.5625,11.4607,11.341,11.341,11.2213,11.0238,10.8982,10.7306,10.5211,10.2578,10.1082,10.0184,9.7551,9.6533,9.6234,9.4259,9.3122,9.2583,9.2583,9.2583,9.2524,9.2524,9.2524,9.2643,9.3302,9.4858,9.6713,9.803,9.9885,10.2176,10.5524,10.9027,11.2559,11.679,12.1441,12.4706,12.3573,12.563,12.6783,12.4145,12.4856,12.6072,12.6906,13.0425,13.29,13.29,13.4736,13.4504,13.0783,12.9701,12.9024,12.828,13.0783,13.3083,13.4572,13.3286,13.3083,13.4572,13.2181,13.0791,13.0791,12.9734,12.7506,12.4293,12.2989,12.0926,11.8294,11.6376,11.5206,11.5146,11.3829,11.2872,11.2213,11.2153,11.1076,10.94,10.9999,10.9101,10.7306,10.6707,10.7404,10.902,11.1322,11.1737,11.1643,0.0,0.0,0.0,0.0,0.0,0.0,0.0,0.0,0.0,0.0,0.0,0.0,0.0,0.0,0.0,0.0,9.0608,9.4003,9.8123,10.2911,10.6924,11.0742,11.3432,11.5153,11.5578,11.5927,11.6283,11.6283,11.6522,11.6043,11.4966,11.5206,11.4308,11.2632,11.2632,11.1316,10.8982,10.8084,10.6288,10.3954,10.2159,10.0543,9.8987,9.7252,9.6294,9.5755,0.0,9.384,9.3242,9.3242,9.3242,9.3302,9.378,9.4259,9.4798,9.5875,9.7611,9.9466,10.0782,10.4062,10.7611,10.9214,11.245,11.5895,11.7656,12.0781,12.3701,12.5367,12.517,12.4652,12.5113,12.4829,12.5629,12.8312,13.1923,13.484,13.6142,13.7363,13.6196,13.0918,13.0918,13.0512,12.8347,12.9024,13.058,13.3083,13.3286,13.3216,13.2847,13.2938,13.1017,12.7052,12.7566,12.5449,12.0911,12.0911,11.9662,11.754,11.6462,11.5684,11.5265,11.5265,11.4906,11.4248,11.3769,11.3291,11.2572,11.1435,11.0298,10.9221,10.8084,10.9225,11.1751,11.2655,11.4818,11.7217,0.0,0.0,0.0,0.0,0.0,0.0,0.0,0.0,0.0,0.0,0.0,0.0,0.0,0.0,0.0,0.0,0.0,9.3481,9.6354,10.0184,10.3416,10.5869,10.9101,11.1076,11.1495,11.2812,11.347,11.347,11.3709,11.353,11.2872,11.3111,11.2513,11.1256,11.1016,10.97,10.7605,10.6468,10.4912,10.2937,10.1381,9.9885,9.8389,9.7072,9.6174,0.0,9.4858,9.4319,9.396,9.396,9.408,9.4379,9.4798,9.5755,9.6892,9.8209,10.0673,10.3214,10.4854,10.909,11.3242,11.3342,11.5895,11.8464,11.8243,12.0333,12.3211,12.5135,12.461,12.4693,12.6452,12.652,12.7541,13.1461,13.5316,13.8121,13.92,13.9714,13.7684,13.1392,13.1324,13.0715,12.8009,12.7941,12.9103,13.1358,13.2325,13.2336,13.1265,13.148,12.9696,12.5883,12.5436,12.3772,12.0293,12.0472,11.9515,11.76,11.7181,11.6582,11.5984,11.6403,11.6403,11.5924,11.5026,11.4487,11.4188,11.2393,11.1136,11.0238,10.94,11.1145,11.4419,11.4726,11.7851,12.1663,0.0,0.0,0.0,0.0,0.0,0.0,0.0,0.0,0.0,0.0,0.0,0.0,0.0,0.0,0.0,0.0,0.0,0.0,9.6294,9.8927,10.1261,10.3176,10.6408,10.8204,10.8263,10.952,11.0238,11.0238,10.964,10.958,11.0059,10.952,10.9221,10.9101,10.8503,10.7485,10.6109,10.4194,10.2997,10.2219,10.0244,9.9047,9.8269,9.7012,9.6114,9.5456,9.4858,9.4618,9.4678,9.4678,9.5157,9.5755,9.5755,9.7132,9.9168,10.0367,10.3881,10.7771,10.9823,11.4771,11.8787,11.7549,11.9326,12.0827,11.8664,12.0849,12.3031,12.2969,12.4504,12.6258,12.7947,12.9078,13.105,13.5813,13.9849,14.215,14.1608,14.1473,13.9105,13.2542,13.1121,12.9768,12.7603,12.7848,12.8676,12.9737,13.1004,13.12,13.0168,12.8138,12.7095,12.7033,12.4002,12.2208,12.2148,12.143,12.0113,11.8258,11.8198,11.7899,11.73,11.73,11.724,11.7395,11.6076,11.5176,11.4457,11.3138,11.1879,11.0538,11.0418,11.2968,11.6857,11.7305,12.0598,12.4491,0.0,0.0,0.0,0.0,0.0,0.0,0.0,0.0,0.0,0.0,0.0,0.0,0.0,0.0,0.0,0.0,0.0,0.0,9.5636,9.785,9.9705,10.1201,10.3895,10.5869,10.6887,10.8204,10.8862,10.8862,10.8682,10.7964,10.6707,10.7007,10.6588,10.569,10.5989,10.5451,10.4134,10.3117,10.2099,10.0902,9.9346,9.8089,9.6952,9.6174,9.5456,9.4858,9.4678,9.4917,9.5336,9.5336,9.6414,9.779,9.779,10.0547,10.4288,10.515,10.8305,11.2322,11.4421,11.8564,12.1797,11.9812,12.1709,12.31,11.9635,12.0638,12.2447,12.3312,12.3517,12.3433,12.3573,12.5609,12.7938,12.9592,13.5222,13.9782,14.127,14.1473,14.0188,13.6805,13.6196,13.5181,13.3016,13.1282,13.0083,13.0058,13.1004,13.0638,12.8554,12.9011,12.7894,12.495,12.4156,12.2926,12.149,12.0293,11.9455,11.8916,11.8437,11.8138,11.7959,11.7959,11.891,12.0827,11.9966,11.9167,11.8553,11.7631,11.5743,11.3171,11.2213,11.5185,12.0185,11.8201,12.1254,12.6182,0.0,0.0,0.0,0.0,0.0,0.0,0.0,0.0,0.0,0.0,0.0,0.0,0.0,0.0,0.0,0.0,0.0,0.0,0.0,9.5101,9.6027,9.6129,9.7577,9.8794,9.9837,10.1831,10.3242,10.4067,10.4036,10.4194,10.4553,10.4014,10.3715,10.3595,10.3655,10.3296,10.2518,10.1561,10.0603,0.0,0.0,9.7311,9.6114,9.5755,9.5157,9.4678,9.4917,9.6272,9.8095,9.9301,9.9882,10.0173,10.1389,10.4386,10.7799,10.9437,11.2716,11.6535,11.8614,12.1958,12.4248,12.1863,12.2226,12.2254,11.8427,11.9115,12.0906,12.1608,12.2019,12.2234,12.2139,12.4365,12.663,12.82,13.4321,13.9579,14.127,14.2623,14.2488,13.9917,13.9579,13.8834,13.6872,13.565,13.402,13.2033,13.068,12.9253,12.7357,12.7929,12.7318,12.4602,12.3704,12.2746,12.1609,12.0293,11.9634,11.9634,11.8677,11.8198,11.8198,11.9365,12.0718,12.204,12.2817,12.2254,12.0428,11.9685,11.7594,11.4188,11.347,11.6231,12.0633,11.9033,12.1845,12.6318,0.0,0.0,0.0,0.0,0.0,0.0,0.0,0.0,0.0,0.0,0.0,0.0,0.0,0.0,0.0,0.0,0.0,0.0,0.0,0.0,9.1408,9.0518,9.0629,9.0961,9.157,9.3845,9.6114,9.8115,9.8171,9.9697,10.2698,10.1082,10.0962,10.2099,10.1561,10.1261,10.1142,10.0004,9.9047,9.8329,9.767,9.6653,9.5576,0.0,9.5157,9.4858,9.5925,9.8559,10.1805,10.4534,10.4136,10.2966,10.552,10.8124,11.0742,11.3575,11.6977,12.0449,12.2768,12.4943,12.6044,12.3497,12.2037,12.0129,11.6434,11.733,11.9117,11.949,12.0783,12.1873,12.1679,12.3611,12.5912,12.7874,13.4572,13.9917,14.0932,14.3706,14.4721,14.2217,14.1879,14.1405,14.012,14.0103,13.902,13.5465,13.1277,12.8263,12.6568,12.6397,12.5918,12.5021,12.3285,12.2268,12.2208,12.1011,12.0352,12.0352,11.8976,11.8534,11.8905,12.1195,12.2509,12.338,12.5686,12.511,12.2117,12.1417,11.8614,11.5114,11.4757,11.6662,11.9865,11.9554,12.2131,12.5776,0.0,0.0,0.0,0.0,0.0,0.0,0.0,0.0,0.0,0.0,7.7349,8.0161,0.0,0.0,0.0,0.0,0.0,0.0,0.0,0.0,0.0,8.919,8.9743,9.0352,9.0961,9.1856,9.3429,9.5961,9.5939,9.7141,9.9346,9.9586,9.9825,10.0004,10.0483,10.0364,9.9825,9.9586,9.8808,9.7611,9.7012,9.6294,9.5516,9.4977,9.5037,0.0,9.8853,10.1847,10.4696,10.6135,10.6582,10.6509,10.8165,11.1561,11.5086,11.7548,12.0806,12.4422,12.7253,12.723,12.6109,12.4076,12.2415,12.0412,11.8094,11.8873,12.0065,11.9913,12.0643,12.058,11.7441,11.9822,12.2326,12.2732,13.0106,13.6399,13.8361,14.1811,14.4112,14.4179,14.4179,14.4112,14.3909,14.1862,14.0602,14.0413,13.7011,13.2895,12.7947,12.7774,12.6696,12.4362,12.3465,12.2746,12.2208,12.143,12.1011,12.1011,11.9694,12.0212,12.208,12.2145,12.4765,12.9308,12.9928,12.9469,12.8264,12.6649,12.3163,11.894,11.6708,11.814,12.1023,11.9873,12.2131,12.5776,0.0,0.0,0.0,0.0,0.0,0.0,0.0,6.7533,6.963,7.1958,7.4958,7.7241,7.8754,8.0191,8.1249,0.0,0.0,0.0,0.0,0.0,0.0,8.5293,8.5142,8.5768,8.6613,8.7789,9.0242,9.3964,0.0,9.6241,9.9526,9.9167,9.8987,9.8987,9.9346,9.9107,9.8448,9.8448,9.773,9.6473,9.6174,9.5695,9.5037,9.4738,9.585,0.0,10.1346,10.441,10.7623,10.9817,11.1046,11.1749,11.1954,11.4846,11.8261,11.9261,12.2626,12.6361,12.8039,12.7778,12.67,12.4971,12.2816,12.0515,11.7587,11.8942,12.0348,11.9125,11.9554,11.9214,11.5831,11.7725,11.9452,11.8642,12.2922,12.8642,13.4826,13.6812,13.9519,14.5214,14.5938,14.5938,14.5938,14.4876,14.355,14.2453,13.9446,13.6469,13.3765,13.1049,12.782,12.3704,12.3405,12.2866,12.2208,12.1549,12.2013,12.3413,12.1796,12.2534,12.5261,12.626,12.8177,13.1105,13.3225,13.2714,13.0214,12.8379,12.5492,12.1779,11.9106,11.9875,12.2382,12.1732,12.313,12.5235,0.0,0.0,0.0,0.0,0.0,0.0,0.0,6.5032,6.6467,6.988,7.2761,7.4306,7.3699,7.6564,7.8731,0.0,0.0,0.0,0.0,0.0,0.0,0.0,0.0,0.0,8.2307,0.0,0.0,9.121,9.2021,0.0,0.0,0.0,0.0,0.0,9.8089,9.779,9.7311,9.7311,9.6653,0.0,0.0,9.5217,9.4618,0.0,0.0,0.0,0.0,10.6817,11.0546,11.2752,11.468,11.601,11.5639,11.7793,12.0599,12.0939,12.3464,12.6597,12.7827,12.7242,12.5965,12.4793,12.2817,12.0404,11.6992,11.8689,12.0249,11.8432,11.8685,11.7996,11.5019,11.6304,11.7397,11.5494,11.7842,12.2865,13.0889,13.2789,13.6804,14.5349,14.6683,14.7089,14.7224,14.7089,14.614,14.3833,14.1044,13.8699,13.6648,13.2833,12.8478,12.411,12.3465,12.3046,12.2387,12.2335,12.3103,12.5201,12.4643,12.5514,12.7995,13.0005,13.1418,13.2157,13.5397,13.5088,13.1731,12.9787,12.735,12.4397,12.1716,12.1794,12.3477,12.3346,12.3899,12.4897,0.0,0.0,0.0,0.0,0.0,0.0,0.0,6.5233,6.5855,6.7237,7.023,7.1162,6.8722,7.6009,7.9745,0.0,0.0,0.0,0.0,0.0,0.0,0.0,0.0,0.0,0.0,0.0,0.0,8.6441,8.8238,0.0,0.0,0.0,0.0,0.0,0.0,9.6713,9.6653,9.6653,0.0,0.0,0.0,0.0,0.0,0.0,0.0,0.0,0.0,10.8525,11.3176,11.3598,11.5019,11.6913,11.7644,11.9401,12.1717,12.3636,12.4429,12.5232,12.8372,12.5686,12.1716,12.2198,12.0893,11.9046,11.8371,11.9044,11.9888,11.9128,11.859,11.7319,11.4274,11.5492,11.6387,11.4107,11.9752,12.5322,12.708,13.4008,14.0241,14.3545,14.5803,14.7292,14.7901,14.7427,14.6835,14.6582,14.4028,13.8717,13.0497,12.9074,12.7527,12.5858,12.4661,12.3704,12.3046,12.485,12.5548,12.4929,12.742,12.922,13.0492,13.1582,13.3246,13.5446,13.6429,13.6362,13.5206,13.2706,12.9835,12.7094,12.4397,12.3849,12.4202,12.3543,12.4232,12.5709,0.0,0.0,0.0,0.0,0.0,0.0,6.458,6.5333,6.6187,6.7342,7.1242,7.2729,6.9559,7.4923,7.7319,7.4382,0.0,0.0,0.0,0.0,0.0,0.0,0.0,0.0,0.0,0.0,8.1648,8.4765,8.5701,0.0,0.0,0.0,0.0,0.0,0.0,9.6354,9.5995,9.5995,0.0,0.0,0.0,0.0,0.0,0.0,0.0,0.0,0.0,0.0,11.3598,11.3598,11.5086,11.6981,11.7793,11.9281,12.0648,11.9854,12.0522,12.1922,12.4218,12.4792,12.4787,12.4018,12.3876,12.3136,12.0522,12.012,11.9959,11.9333,11.7928,11.6101,11.4004,11.468,11.5027,11.3777,11.5109,11.8337,12.3861,12.6372,13.105,14.0473,14.2909,14.4924,14.7833,14.8239,14.6646,14.2841,13.9586,13.5178,12.9866,13.0718,12.9565,12.6158,12.5619,12.4602,12.3165,12.5495,12.722,12.8115,12.98,13.2123,13.4535,13.4401,13.5195,13.6602,13.7278,13.7008,13.5581,13.1359,12.8916,12.7385,12.4771,12.3772,12.3913,12.5532,12.5649,12.5235,0.0,0.0,0.0,0.0,0.0,6.3375,6.4329,6.5283,6.6187,6.7191,7.1716,7.3473,7.0143,7.3954,7.5504,7.2891,7.3971,0.0,0.0,0.0,0.0,0.0,0.0,0.0,0.0,0.0,8.0371,8.2865,8.3615,8.5899,0.0,0.0,9.3075,9.4814,0.0,0.0,0.0,0.0,0.0,0.0,0.0,0.0,0.0,0.0,0.0,0.0,0.0,0.0,0.0,0.0,0.0,11.671,11.7522,11.7952,11.8084,11.7356,11.8226,11.944,12.0107,12.2111,12.3573,12.3389,12.3861,12.3633,12.1076,12.0288,11.9958,11.8808,11.7116,11.5357,11.3869,11.441,11.4624,11.3777,11.3726,11.6431,12.2981,12.3704,12.7604,13.8501,14.0843,14.26,14.5494,14.6062,14.3835,13.8463,13.5803,13.332,13.0287,13.18,13.0874,12.6756,12.6098,12.508,12.3465,12.6481,12.8401,12.9464,13.2015,13.4425,13.6331,13.6331,13.6534,13.7008,13.782,13.6864,13.4577,13.08,12.8106,12.6423,12.5327,12.4251,12.3847,12.6994,12.6927,12.537,0.0,0.0,0.0,0.0,0.0,0.0,6.4379,6.4931,6.5484,6.6036,7.0491,7.2285,6.903,7.293,7.5073,7.2891,7.3268,0.0,0.0,0.0,0.0,0.0,0.0,0.0,0.0,0.0,7.8842,7.9394,8.2091,8.3235,8.3433,8.8512,9.0835,9.1016,0.0,0.0,0.0,0.0,0.0,0.0,0.0,0.0,9.6653,0.0,0.0,0.0,0.0,0.0,0.0,0.0,0.0,0.0,0.0,11.5432,11.4319,11.7877,11.8744,11.8364,11.8041,11.6393,11.5261,11.814,11.8634,11.8547,11.8855,11.9621,11.9687,11.7387,11.6304,11.5357,11.3869,11.4816,11.5229,11.3777,11.8239,12.2713,12.5364,12.9737,13.4412,13.8686,14.0593,14.138,14.0672,13.9382,13.7485,13.4536,13.4932,13.4056,13.1005,13.1005,13.0108,12.8133,12.6158,12.4781,12.4123,12.8013,12.94,12.8056,13.4111,13.6196,13.491,13.6331,13.7008,13.7008,13.782,13.5851,13.1911,13.1977,12.8731,12.4021,12.6488,12.6377,12.4811,12.7195,12.7603,12.6859,0.0,0.0,0.0,0.0,0.0,0.0,0.0,6.5584,6.6488,6.6689,6.9788,7.1095,6.8852,7.1409,7.2769,7.1595,7.2464,0.0,0.0,0.0,0.0,0.0,0.0,0.0,0.0,0.0,7.7285,7.8239,7.8999,8.0712,8.3182,8.4894,8.6627,8.8326,8.907,8.8884,0.0,0.0,0.0,0.0,0.0,9.4456,9.6653,0.0,0.0,0.0,0.0,0.0,0.0,0.0,0.0,0.0,0.0,0.0,0.0,11.1432,11.2092,11.3057,11.2352,11.3083,11.4435,11.5338,11.7274,11.8686,11.7647,11.8084,11.8402,11.7184,11.5492,11.4207,11.3733,11.441,11.5482,11.649,12.1099,12.4697,12.4877,12.8895,13.3329,13.7022,14.1295,14.4035,14.4958,14.0279,13.6704,13.6357,13.4216,13.2562,13.1723,13.1723,13.0586,12.8192,12.6996,12.6293,12.6108,12.8795,13.0443,13.1453,13.4267,13.579,13.6331,13.6331,13.6805,13.7752,13.7955,13.5851,13.1911,12.9651,12.6709,12.3768,12.4069,12.4366,12.4877,12.78,12.8077,12.6994,0.0,0.0,0.0,0.0,0.0,0.0,0.0,6.5283,6.6287,6.6036,6.8591,6.988,6.8373,7.0041,7.101,7.0789,7.161,0.0,0.0,0.0,0.0,0.0,0.0,0.0,0.0,7.6281,7.6783,7.7687,7.7888,7.9253,8.189,8.2837,8.3971,8.5668,8.6627,8.6436,0.0,0.0,0.0,0.0,9.1331,9.3853,9.6653,0.0,0.0,0.0,0.0,0.0,0.0,0.0,0.0,0.0,0.0,0.0,0.0,0.0,10.8156,10.8905,10.8013,10.9443,11.1355,11.2182,11.4358,11.6426,11.6068,11.6815,11.7387,11.6643,11.4951,11.3598,11.3598,11.441,11.5763,11.7793,12.219,12.5298,12.5065,12.9212,13.3791,13.8055,14.0676,14.2542,14.404,13.8414,13.4938,13.5611,13.3767,13.2382,13.2382,13.2142,13.0945,12.8611,12.7594,12.7048,12.7184,12.8824,13.0575,13.257,13.4483,13.5722,13.6602,13.6399,13.7008,13.8022,13.6809,13.4014,0.0,12.6838,12.414,12.2431,12.2687,12.3449,12.4877,12.8002,12.8415,12.74,0.0,0.0,0.0,0.0,0.0,0.0,0.0,6.4228,6.5082,6.458,6.7183,6.8773,6.7718,6.9042,6.9902,7.0135,0.0,0.0,0.0,0.0,0.0,0.0,0.0,0.0,0.0,7.6582,7.7084,7.7687,7.8189,7.8792,7.9394,8.189,8.3036,8.3036,8.5475,8.5088,0.0,0.0,0.0,0.0,9.0989,9.4204,0.0,0.0,0.0,0.0,0.0,0.0,0.0,0.0,0.0,0.0,0.0,0.0,0.0,0.0,0.0,0.0,0.0,10.575,10.681,10.9028,11.0949,11.2504,11.4007,11.5747,0.0,11.6034,11.4613,11.3598,11.3598,11.4816,11.6237,11.7793,12.192,12.5032,12.5506,13.0309,13.579,14.0913,13.9296,13.8148,13.9467,13.5146,13.2382,13.31,13.31,13.304,13.298,13.2382,13.1125,12.909,12.7947,12.7379,12.7273,12.8318,13.0057,13.2028,13.4618,13.5857,13.5925,13.6602,13.7278,13.7781,13.4462,13.1135,12.7864,12.3957,12.1577,12.0333,12.2244,12.363,12.5114,12.8002,12.8821,12.8077,0.0,0.0,0.0,0.0,0.0,0.0,0.0,0.0,0.0,0.0,6.6145,6.6702,6.6488,6.7258,6.8018,0.0,0.0,0.0,0.0,0.0,0.0,0.0,0.0,0.0,0.0,7.618,7.6733,7.7687,7.7837,7.839,7.9394,7.9961,8.0371,8.0371,8.0931,8.0931,0.0,0.0,0.0,0.0,8.9212,9.2722,0.0,0.0,0.0,0.0,10.6907,11.0081,0.0,0.0,0.0,0.0,0.0,0.0,0.0,0.0,10.345,10.3506,10.3245,0.0,10.5044,10.5556,10.8517,11.1459,0.0,11.4131,11.671,11.6034,11.4613,11.3598,11.3598,11.4342,11.5425,11.6913,12.2393,12.5506,12.2799,12.943,13.6783,14.244,14.1532,14.0597,14.0865,13.654,13.3818,13.4536,13.4117,13.3519,13.298,13.2382,13.0886,12.8432,12.9107,12.9383,12.9357,12.8557,13.0294,13.4053,13.4875,13.5384,13.5925,13.6128,13.6602,13.7037,13.3664,13.0091,12.6392,12.4982,12.3324,12.2244,12.4136,12.6279,12.8234,12.8929,12.9092,12.8821,0.0,0.0,0.0,0.0,0.0,0.0,0.0,0.0,0.0,0.0,0.0,6.5634,6.5383,6.5886,0.0,0.0,0.0,0.0,0.0,0.0,0.0,0.0,0.0,7.603,7.603,7.603,7.6482,7.7335,7.7586,7.8139,7.8992,7.9243,7.9394,7.9394,7.9394,7.9394,0.0,0.0,0.0,8.8138,8.8691,0.0,0.0,0.0,0.0,0.0,10.5971,10.8437,0.0,10.7651,10.694,10.6464,0.0,0.0,0.0,0.0,10.18,10.1979,10.1979,10.2757,10.3605,10.4365,10.7129,10.9728,11.0073,11.3116,11.5695,11.4951,11.4207,11.353,11.3192,11.4004,11.5222,11.671,12.0296,12.3209,12.4363,13.1268,13.7675,14.1685,14.1445,14.0926,14.0324,13.6547,13.4297,13.4955,13.4357,13.3698,13.298,13.2142,13.0586,12.8611,12.8123,12.861,12.9969,12.9865,13.153,13.5316,13.4978,13.5181,13.5925,13.5925,13.5925,13.5754,13.2402,12.9601,12.7133,12.4976,12.4012,12.459,12.5191,12.6963,12.9227,12.9227,12.9227,12.9024,0.0,0.0,0.0,0.0,0.0,0.0,0.0,0.0,0.0,0.0,0.0,0.0,0.0,0.0,0.0,0.0,0.0,0.0,0.0,0.0,0.0,0.0,0.0,7.603,7.603,7.603,7.6331,7.6883,7.7436,7.7988,7.854,7.9143,7.9394,7.9394,7.9756,7.9961,0.0,0.0,8.3803,8.8822,8.9323,0.0,0.0,0.0,0.0,0.0,0.0,0.0,0.0,10.6381,10.5487,10.4334,10.1939,0.0,0.0,0.0,0.0,0.0,10.1441,10.2232,10.3212,10.4466,10.6583,10.8877,11.0034,11.2474,11.441,11.3733,11.353,11.3192,11.2583,11.3666,11.5086,11.6507,11.7793,12.1078,12.8114,13.3833,13.792,14.0301,14.0071,13.9718,13.9061,13.6002,13.4297,13.4955,13.4297,13.3519,13.2741,13.1424,13.0108,12.8731,12.7077,12.7313,12.9969,13.1017,13.3086,13.5925,13.5316,13.5181,13.5722,13.5587,13.5181,13.4267,13.0941,12.9078,12.8109,12.4625,12.4408,12.6311,12.6066,12.7301,12.9227,12.9227,12.9227,12.9024,0.0,0.0,0.0,0.0,0.0,0.0,0.0,0.0,0.0,0.0,0.0,0.0,0.0,0.0,0.0,0.0,0.0,0.0,0.0,0.0,0.0,7.4623,7.5578,7.603,7.603,7.603,7.6331,7.6883,7.7436,7.7988,7.854,7.9143,7.9394,7.96,8.1688,8.2638,8.2837,0.0,8.8186,9.1948,9.2006,0.0,0.0,0.0,0.0,0.0,0.0,0.0,0.0,10.4019,10.3667,10.3592,10.1336,0.0,0.0,0.0,0.0,0.0,10.1261,10.285,10.4466,10.4695,10.7758,11.0756,11.0343,11.2073,11.3733,11.3598,11.3124,11.2583,11.2515,11.3666,11.5019,11.5831,11.874,12.3861,13.2578,13.3664,13.518,13.9767,13.9256,13.8219,13.7385,13.5262,13.4297,13.4955,13.3878,13.2621,13.1424,13.0108,12.8492,12.6577,12.9383,13.069,12.9969,12.9666,13.1576,13.5925,13.579,13.5519,13.491,13.4301,13.3625,13.2645,12.9413,12.7629,12.6904,12.6287,12.5827,12.5826,12.7938,12.8833,12.9227,12.9227,12.9227,12.9024,0.0,0.0,0.0,0.0,0.0,0.0,0.0,0.0,0.0,0.0,0.0,0.0,0.0,0.0,0.0,0.0,0.0,0.0,0.0,0.0,7.3117,7.392,7.4724,7.5327,7.5628,7.5879,7.618,7.6431,7.6984,7.7536,7.8088,8.0319,8.1487,8.1487,8.4167,8.5282,8.5282,8.6436,8.9018,9.2159,0.0,0.0,0.0,0.0,0.0,0.0,0.0,0.0,0.0,0.0,10.2143,10.1272,10.031,0.0,0.0,0.0,0.0,0.0,10.0304,10.3188,10.5952,10.5468,10.807,11.0869,11.0924,11.2079,11.2921,11.2515,11.2448,11.2583,11.2989,11.4274,11.6101,11.8402,12.4017,12.9208,13.2535,13.5043,13.7176,13.8481,13.7766,13.6669,13.5502,13.4536,13.4117,13.4417,13.322,13.2023,13.1125,12.909,12.7414,12.6098,12.8332,12.9758,13.0544,13.1027,13.2702,13.5925,13.5113,13.4504,13.4166,13.3016,13.2001,13.1257,12.9212,12.8138,12.747,12.747,12.7269,12.7001,12.8698,12.9227,12.9159,12.8821,12.8415,12.7874,0.0,0.0,0.0,0.0,0.0,0.0,0.0,0.0,0.0,0.0,0.0,0.0,0.0,0.0,0.0,0.0,0.0,0.0,0.0,0.0,7.2652,7.4063,7.4102,7.4423,7.5226,7.5628,7.5929,7.603,7.6632,7.7134,7.7737,8.1362,8.2971,8.3168,8.6381,8.7951,8.7951,8.8512,9.0206,9.2726,0.0,0.0,0.0,0.0,0.0,0.0,0.0,0.0,0.0,0.0,0.0,0.0,0.0,0.0,0.0,9.8508,9.8867,9.9286,9.9466,10.3136,10.6518,10.5453,10.8026,11.0894,11.1354,11.1771,11.2109,11.1703,11.2109,11.2786,11.3666,11.5628,11.8469,12.2596,12.9092,13.3485,13.3152,13.6726,13.9073,13.7615,13.6419,13.5135,13.4117,13.3878,13.3698,13.3519,13.2322,13.1125,13.0108,12.8013,12.6397,12.5439,12.7128,12.8824,13.048,13.2811,13.4715,13.6128,13.4707,13.376,13.3422,13.1798,13.0648,12.9701,12.9024,12.8415,12.7806,12.7806,12.7941,12.8212,12.8686,12.8889,12.8889,12.8347,12.7603,12.6859,0.0,0.0,0.0,0.0,0.0,0.0,0.0,0.0,0.0,0.0,0.0,0.0,0.0,0.0,0.0,0.0,0.0,0.0,0.0,0.0,7.1956,7.5063,7.3774,7.3619,7.5226,7.5276,7.5527,7.603,7.6632,7.7134,7.7687,8.0946,8.2337,8.2586,8.8045,9.0595,9.0595,9.31,9.4629,9.546,9.6117,0.0,0.0,0.0,0.0,0.0,0.0,0.0,0.0,0.0,0.0,0.0,0.0,0.0,9.8508,9.8508,9.8568,9.8748,9.9346,10.2826,10.578,10.3448,10.7636,11.2238,11.1501,11.1433,11.1703,11.2312,11.2448,11.2921,11.441,11.8131,12.2732,12.7806,13.1527,13.464,13.7375,13.753,13.7553,13.8318,13.5822,13.4117,13.3998,13.3399,13.2861,13.2262,13.0945,12.933,12.7474,12.6577,12.526,12.3465,12.8241,13.0352,12.9272,13.4262,13.6767,13.6872,13.5384,13.3963,13.2542,13.1054,12.9565,12.8212,12.7468,12.713,12.7062,12.7062,12.7468,12.8144,12.8212,12.8212,12.8212,12.8144,12.7603,12.6859,0.0,0.0,0.0,0.0,0.0,0.0,0.0,0.0,0.0,0.0,0.0,0.0,0.0,0.0,0.0,0.0,0.0,0.0,0.0,7.0065,7.2643,7.4262,7.5694,7.632,7.6305,7.56,7.5327,7.5527,7.6431,7.6984,7.7185,8.0374,8.2885,8.4744,8.8575,9.1388,9.3277,9.4211,9.4738,9.5097,9.6114,9.6713,0.0,0.0,0.0,0.0,0.0,0.0,0.0,0.0,9.8508,9.8508,9.8508,9.8508,9.8508,9.8508,9.8508,9.8568,9.8808,10.2144,10.4916,10.2592,10.6299,11.0229,10.9644,11.0783,11.2177,11.238,11.3192,11.5019,11.8808,12.2799,12.6994,13.1324,13.4504,13.6891,13.8021,13.7782,13.7191,13.7095,13.4155,13.2501,13.3279,13.2023,13.1185,13.1424,12.9389,12.7893,12.7055,12.526,12.3764,12.2567,12.7324,12.94,12.844,13.3312,13.5384,13.491,13.3895,13.261,13.1054,12.9633,12.8618,12.8009,12.6791,12.6318,12.6318,12.6318,12.6791,12.7603,12.8889,12.9227,12.8686,12.828,12.7603,12.6791,0.0,0.0,0.0,0.0,0.0,0.0,0.0,0.0,0.0,0.0,0.0,0.0,0.0,0.0,0.0,0.0,0.0,0.0,6.6589,6.9727,7.2594,7.5115,7.5866,7.6832,7.7886,7.6047,7.5075,7.5226,7.618,7.6632,7.6632,7.9802,8.2979,8.5979,8.8838,9.1334,9.3453,9.4211,9.4211,9.3571,9.5642,9.6593,0.0,0.0,0.0,0.0,0.0,0.0,0.0,0.0,9.8508,9.8508,9.8508,9.8508,9.8508,9.8508,9.8508,9.8688,9.9344,10.2219,10.4696,10.3474,10.6617,10.9915,10.8414,11.0047,11.1991,11.2461,11.4784,11.8199,12.2732,12.6385,13.0106,13.4098,13.7008,13.8758,13.8627,13.8151,13.708,13.5716,13.3086,13.1664,13.2322,13.0945,12.9928,12.9808,12.7893,12.6457,12.5858,12.4003,12.2567,12.1909,12.6135,12.8056,12.7352,13.1738,13.3557,13.261,13.2069,13.1189,12.9904,12.8686,12.7806,12.7332,12.6115,12.5506,12.5506,12.5506,12.6115,12.7197,12.9159,12.9498,12.8821,12.855,12.7806,12.6951,0.0,0.0,0.0,0.0,0.0,0.0,0.0,0.0,0.0,0.0,0.0,0.0,0.0,0.0,0.0,0.0,0.0,0.0,6.7693,6.8296,7.1387,7.7892,7.3686,7.3846,7.9486,7.6129,7.4674,7.5226,7.5778,7.603,7.6277,7.9177,8.2333,8.537,8.861,9.0201,9.0958,9.3453,9.31,9.1074,9.4873,9.6593,9.6713,0.0,0.0,0.0,0.0,0.0,0.0,0.0,9.8508,9.8508,9.8508,9.8508,9.8508,9.8508,9.8508,9.8987,10.1087,10.3325,10.5146,10.585,10.9245,11.1778,10.8651,10.9195,11.0827,11.2276,11.7304,12.2393,12.537,12.828,13.1798,13.6263,13.8834,14.0103,13.9352,13.8863,13.727,13.4536,13.2965,13.1723,13.1125,13.0407,12.921,12.7175,12.6457,12.52,12.3285,12.2567,12.1849,12.119,12.5008,12.6455,12.5688,13.021,13.173,13.0309,13.0309,12.9904,12.9227,12.8415,12.7332,12.5912,12.5032,12.4694,12.4694,12.4694,12.5573,12.713,12.8618,12.8686,12.8212,12.8889,12.828,12.7245,0.0,0.0,0.0,0.0,0.0,0.0,0.0,0.0,0.0,0.0,0.0,0.0,0.0,0.0,0.0,0.0,0.0,0.0,6.7643,6.9778,7.2332,7.5477,7.6081,7.6671,7.7244,7.543,7.4875,7.5829,7.5979,7.603,7.608,7.697,7.9385,8.2734,8.3658,8.5637,8.8139,8.8884,8.8884,8.825,9.0239,9.1125,9.1427,0.0,0.0,0.0,0.0,0.0,0.0,0.0,0.0,0.0,9.8508,9.8508,9.8508,9.8508,9.8508,9.8987,10.1087,10.3703,10.5398,10.3999,10.6966,10.9621,10.7673,11.0915,11.5012,11.8101,12.1322,12.4829,12.828,13.0986,13.3828,13.7211,13.8017,13.7769,13.6589,13.5114,13.3605,13.2063,12.9862,12.897,13.0227,12.8073,12.6517,12.6397,12.4901,12.3584,12.2567,12.1849,12.0771,11.9096,12.2041,12.2754,12.1064,12.5981,12.7885,12.7059,12.8234,12.8889,12.9227,12.7874,12.7062,12.6588,12.4694,12.395,12.4017,12.4491,12.5303,12.6385,12.8415,12.8686,12.8212,12.8889,12.9443,12.9807,0.0,0.0,0.0,0.0,0.0,0.0,0.0,0.0,0.0,0.0,5.8681,6.0311,0.0,0.0,0.0,0.0,0.0,0.0,0.0,6.9604,7.1861,7.442,7.5588,7.574,7.5166,7.4686,7.4824,7.5728,7.5929,7.603,7.608,7.6281,7.812,8.144,8.1651,8.3259,8.5475,8.6627,8.6436,8.5777,8.7947,8.8775,8.9134,0.0,0.0,0.0,0.0,0.0,0.0,0.0,0.0,0.0,9.8508,9.8688,9.9048,9.9884,10.0361,10.125,10.4311,10.6429,10.7521,10.6801,10.8511,11.0972,11.1841,11.4761,11.8235,12.1901,12.4491,12.713,13.0512,13.2813,13.5113,13.809,13.7754,13.681,13.5366,13.3515,13.1643,12.9926,12.8492,12.7893,12.8791,12.6816,12.532,12.4961,12.3584,12.2387,12.149,12.0472,11.9275,11.7839,11.9554,11.9746,11.8197,12.2027,12.4117,12.477,12.4784,12.5463,12.6834,12.5628,12.4959,12.4557,12.3218,12.3162,12.4085,12.4897,12.5641,12.6521,12.8144,12.8686,12.878,12.9852,13.0672,13.1546,0.0,0.0,0.0,0.0,0.0,0.0,0.0,0.0,0.0,0.0,5.8502,5.9558,0.0,0.0,0.0,0.0,0.0,0.0,0.0,6.8396,7.0426,7.417,7.2905,7.2464,7.3569,7.4121,7.4674,7.5226,7.5778,7.603,7.608,7.6632,7.8478,8.1104,8.1682,8.226,8.3036,8.5282,8.4894,8.3089,8.6778,8.8192,8.8552,9.0156,0.0,0.0,0.0,0.0,0.0,0.0,0.0,0.0,9.8568,9.9047,9.9829,10.202,10.3087,10.4446,10.8834,11.0058,11.0362,11.1609,11.279,11.4561,11.8928,12.0152,12.1175,12.4581,12.6994,12.943,13.2272,13.3794,13.5581,13.8483,13.765,13.6223,13.516,13.3174,13.0927,12.8307,12.8013,12.7654,12.7115,12.6397,12.52,12.3285,12.2507,12.149,12.0113,11.8796,11.7719,11.7001,11.7391,11.7182,11.6441,11.8382,12.0515,12.2763,12.063,12.0809,12.3042,12.2384,12.149,12.0768,12.0871,12.2336,12.4446,12.5415,12.6318,12.7062,12.7738,12.8576,12.9373,13.1117,13.1953,13.2767,0.0,0.0,0.0,0.0,0.0,0.0,0.0,0.0,0.0,0.0,0.0,0.0,0.0,0.0,0.0,0.0,0.0,0.0,0.0,6.8949,7.0185,7.2352,7.2401,7.2866,7.3569,7.4121,7.4674,7.5226,7.5778,7.603,7.608,7.6632,7.7535,7.8492,7.905,7.9608,8.0371,8.0728,8.0728,8.0422,8.1955,8.396,8.6237,8.9366,9.2165,0.0,0.0,0.0,0.0,0.0,0.0,0.0,9.9107,9.9406,9.9768,10.0793,10.1034,10.2116,10.6573,10.7401,10.7277,10.9216,11.248,11.5873,11.8516,12.4045,12.8803,12.9159,13.0377,13.2272,13.4707,13.4157,13.4097,13.6482,13.3534,13.1105,13.1899,12.9966,12.8111,12.8013,12.7175,12.6696,12.7055,12.5559,12.4183,12.3285,12.2088,12.0592,11.8737,11.7899,11.6642,11.4966,11.4572,11.3634,11.2428,11.4897,11.6557,11.7627,11.7975,11.8882,12.0335,11.987,11.8983,11.821,11.9838,12.1309,12.2869,12.5071,12.6318,12.6994,12.7197,12.8148,12.9683,13.0754,13.2783,13.5624,0.0,0.0,0.0,0.0,0.0,0.0,0.0,0.0,0.0,0.0,0.0,0.0,0.0,0.0,0.0,0.0,0.0,0.0,0.0,0.0,7.0305,7.2213,7.2565,7.3016,7.3569,7.4121,7.4674,7.5226,7.5778,7.618,7.6482,7.7034,7.7586,7.8139,7.8691,7.9093,7.9394,7.9394,7.9394,7.9495,8.0599,8.179,8.35,8.7211,9.04,9.2995,9.5763,0.0,0.0,0.0,0.0,0.0,0.0,0.0,10.0667,10.2182,10.2847,10.3747,10.7026,10.8019,10.8129,10.945,11.2083,11.5404,11.9481,12.5256,13.0249,13.2578,13.3895,13.5113,13.6669,13.507,13.402,13.5535,13.1671,12.9106,13.0159,12.8107,12.6577,12.6696,12.6038,12.5619,12.5679,12.4482,12.3285,12.2268,12.1011,11.9395,11.736,11.6403,11.4906,11.2931,11.2513,11.1735,11.0418,11.1941,11.3564,11.4974,11.4483,11.4483,11.5166,11.6057,11.6115,11.5859,11.8065,12.0151,12.2395,12.4815,12.6318,12.6994,12.6588,12.7981,13.0358,13.123,13.3872,13.7045,0.0,0.0,0.0,0.0,0.0,0.0,0.0,0.0,0.0,0.0,0.0,0.0,0.0,0.0,0.0,0.0,0.0,0.0,0.0,0.0,0.0,7.2665,7.2715,7.3016,7.3569,7.4121,7.4674,7.5226,7.5778,7.6331,7.6883,7.7436,7.7988,7.854,7.9143,7.9394,7.9394,7.9394,7.955,8.0062,8.0809,8.179,8.3294,8.619,8.9204,9.2165,9.4579,9.6749,9.8568,9.8628,0.0,0.0,0.0,0.0,10.1811,10.3753,10.4897,10.5623,10.7934,10.9079,10.9896,11.0202,11.1685,11.4303,11.9831,12.472,12.9084,13.3597,13.5813,13.7037,13.7363,13.5259,13.3532,13.3871,13.0074,12.7436,12.8331,12.685,12.5559,12.5021,12.4841,12.4602,12.4003,12.3285,12.2268,12.1011,11.9694,11.8078,11.6043,11.4787,11.3291,11.1375,11.1196,11.0597,10.958,11.0119,11.15,11.3338,11.1362,11.0418,11.0358,11.2304,11.3215,11.3531,11.629,11.9257,12.2082,12.4949,12.6385,12.6927,12.6431,12.8321,13.1221,13.2624,13.5251,13.8112,0.0,0.0,0.0,0.0,0.0,0.0,0.0,0.0,0.0,0.0,5.6446,5.8403,0.0,0.0,0.0,0.0,0.0,0.0,6.7794,0.0,0.0,7.2665,7.2715,7.3016,7.3569,7.4121,7.4674,7.5226,7.5778,7.6331,7.6883,7.7436,7.7988,7.854,7.9143,7.9394,7.9394,7.9394,8.0728,8.2543,8.1333,8.5073,9.1049,9.0352,9.3187,9.7541,9.7906,9.8147,9.8628,9.9167,9.9406,0.0,0.0,0.0,10.1806,10.2472,10.2959,10.3514,10.5623,10.7087,10.8222,10.8657,11.091,11.3862,11.7044,12.3433,12.8652,12.8306,13.3086,13.6447,13.4943,13.2444,13.0161,12.8409,12.5584,12.42,12.4802,12.447,12.4362,12.4243,12.3764,12.3405,12.3285,12.2208,12.0891,11.9574,11.8796,11.724,11.4667,11.3829,11.2812,11.1316,11.0717,11.0418,11.0238,11.0298,11.08,11.1684,11.1339,11.0897,11.0298,11.0641,11.1202,11.1885,11.5803,11.8445,12.0206,12.4964,12.6927,12.7086,12.7923,12.9757,13.2483,13.4892,13.7507,14.0142,0.0,0.0,0.0,0.0,0.0,0.0,0.0,0.0,0.0,0.0,0.0,5.8654,0.0,0.0,0.0,6.3877,6.453,6.5785,6.8095,7.0305,7.1761,7.2263,7.2866,7.3468,7.4071,7.4573,7.5126,7.5678,7.5929,7.6331,7.6883,7.7436,7.7988,7.854,7.9143,7.9394,7.9394,7.9394,7.9961,8.1033,8.0967,8.2985,8.6383,8.9564,9.1971,9.4579,9.7359,9.8508,9.8628,9.9286,9.9765,10.0184,10.1201,0.0,0.0,0.0,10.2518,10.2765,10.4062,10.5282,10.6062,10.6962,10.9248,11.1938,11.5771,12.0147,12.4026,12.6265,12.9137,13.1555,13.1472,12.9131,12.6967,12.5658,12.365,12.2268,12.2926,12.2986,12.2986,12.2986,12.2447,12.1909,12.1609,12.1011,12.0113,11.8737,11.7719,11.6103,11.3889,11.2752,11.1615,11.0298,11.0298,11.0119,10.9819,11.0119,11.0418,11.0717,11.0717,11.0597,11.0298,11.0298,11.1222,11.2867,11.6233,11.879,12.1414,12.4423,12.6541,12.784,12.7977,13.0604,13.4693,13.588,13.8518,14.1614,0.0,0.0,0.0,0.0,0.0,0.0,0.0,0.0,0.0,0.0,0.0,0.0,0.0,0.0,0.0,0.0,6.4379,6.5835,6.8648,7.0606,7.1912,7.2313,7.3167,7.392,7.4623,7.5025,7.5527,7.603,7.603,7.6281,7.6682,7.7385,7.7938,7.834,7.9043,7.9394,7.9394,7.9394,7.9857,8.0625,8.0859,8.2309,8.4682,8.9023,9.1385,9.3187,9.7116,9.8508,9.8628,9.9466,10.0064,10.0603,10.1501,10.2099,0.0,0.0,0.0,10.2638,10.3236,10.3895,10.4732,10.6109,10.7785,11.0119,11.3993,11.7153,12.0327,12.3321,12.5624,12.7031,12.6893,12.5775,12.4496,12.3434,12.1785,12.1071,12.1609,12.1669,12.1669,12.1669,12.1071,12.0412,11.9814,11.9515,11.8916,11.76,11.6403,11.5026,11.3111,11.1914,11.0777,10.97,11.0119,11.0119,10.964,11.0119,11.0298,11.0298,11.0298,11.0238,11.0119,11.0119,11.1607,11.4491,11.6647,11.9239,12.23,12.4379,12.6591,12.8623,12.8996,13.2026,13.6395,13.7266,13.9745,14.2715,0.0,0.0,0.0,0.0,0.0,0.0,0.0,0.0,0.0,0.0,0.0,0.0,0.0,6.1266,6.2621,6.4279,6.4931,6.6438,6.92,7.0506,7.1811,7.3418,7.3569,0.0,7.5176,7.5226,7.5527,7.603,7.603,7.608,7.613,7.7185,7.7737,7.7787,7.8892,7.9394,7.9394,7.9394,8.1034,8.3678,8.1795,8.5847,9.2847,9.1162,9.3762,9.8147,9.8328,9.8508,9.8748,10.0004,10.0483,10.0723,10.1979,10.2458,10.2518,0.0,0.0,0.0,10.3236,10.3895,10.4732,10.6109,10.7426,10.8742,11.032,11.5352,11.9509,11.8672,12.2675,12.5292,12.1117,12.2678,12.3373,12.077,12.0233,12.0352,12.0352,12.0352,12.0352,12.0352,11.9754,11.9036,11.8378,11.7719,11.6822,11.5505,11.4787,11.3769,11.2393,11.1675,11.1016,11.0298,11.0298,11.0298,11.0298,11.0298,11.0298,11.0298,11.0298,10.9999,10.94,10.94,11.1601,11.54,11.6921,11.898,12.1507,12.559,12.7854,12.8913,13.225,13.4706,13.6734,13.9832,14.1722,14.2789,0.0,0.0,0.0,0.0,0.0,0.0,0.0,0.0,0.0,0.0,0.0,0.0,0.0,6.1567,6.2672,6.4329,6.6287,6.7995,6.9351,7.0455,7.1661,7.2966,7.372,7.4473,7.5226,7.5578,7.4987,7.3284,7.3624,7.3818,7.3866,7.4933,7.6502,7.8239,7.9043,7.9394,7.9394,7.9394,8.0265,8.1597,8.122,8.4119,8.8785,9.0179,9.2802,9.6135,0.0,9.8508,9.8748,10.0004,10.0483,10.0723,10.2099,10.2518,10.2832,10.4127,10.3638,10.2892,10.4431,10.4603,10.4493,10.5032,10.6408,10.8418,11.1389,11.4173,11.6622,11.9014,12.1273,12.234,12.1863,12.1554,12.0787,11.8029,11.7659,11.7779,11.8258,11.7899,11.7779,11.8258,11.7719,11.724,11.7001,11.6822,11.6103,11.4787,11.4009,11.3111,11.1735,11.0657,10.9999,10.97,10.9281,10.9281,10.97,10.97,10.9939,11.0298,11.0298,10.9999,10.94,10.94,11.1669,11.5385,11.5897,11.922,12.4535,12.7061,12.9626,13.2192,13.4028,13.6419,13.9028,14.0142,14.1761,14.3523,0.0,0.0,0.0,0.0,0.0,0.0,0.0,0.0,0.0,0.0,0.0,0.0,0.0,0.0,6.3776,6.5434,6.7442,6.8949,6.9652,7.0757,7.2012,7.3519,7.4473,7.5327,7.603,7.6431,7.513,7.2338,7.2718,7.2238,7.1402,7.2241,7.4145,7.7003,7.7595,7.8881,8.0524,7.9756,8.0778,8.3031,8.2624,8.4991,8.9058,9.1022,9.3571,9.6135,0.0,0.0,0.0,0.0,0.0,10.1699,10.1926,10.2778,10.3822,10.5329,10.4852,10.4005,10.5507,10.498,10.4264,10.539,10.6268,10.8221,11.2559,11.3988,11.5548,11.9769,12.123,12.2104,12.2749,12.1165,11.94,11.7811,11.6799,11.6403,11.6822,11.6582,11.6403,11.6881,11.6522,11.6103,11.5684,11.5625,11.5086,11.3709,11.2991,11.2153,11.1016,10.9999,10.9281,10.9101,10.8563,10.8563,10.9101,10.9101,10.952,11.0298,11.0298,11.0119,10.97,10.97,11.1601,11.5129,11.5577,11.9888,12.682,12.8363,13.1273,13.4805,13.5937,13.8037,14.0219,14.0513,14.1614,14.3083,0.0,0.0,0.0,0.0,0.0,0.0,0.0,0.0,0.0,6.1868,0.0,0.0,0.0,0.0,0.0,6.7643,6.8296,6.91,7.0204,7.1309,7.2916,7.5126,7.5778,7.6582,7.7687,7.7687,7.6165,7.3175,7.3175,7.1704,6.8882,6.9374,7.116,7.3982,7.4763,7.806,8.2984,8.0524,8.3118,8.8387,8.6076,8.896,9.4579,9.4579,9.6135,9.8508,9.8508,9.8508,0.0,9.9286,0.0,10.3356,10.1939,10.3457,10.5801,0.0,10.5978,10.5978,0.0,0.0,0.0,10.7179,10.7112,10.7889,11.3176,11.4873,11.6711,12.0439,12.2989,12.433,12.346,12.1165,11.9514,11.9835,11.7872,11.6223,11.6223,11.6223,11.6223,11.6223,11.6163,11.5625,11.4368,11.4188,11.3709,11.2393,11.1615,11.1016,11.0298,10.97,10.8982,10.8383,10.8263,10.8263,10.8383,10.8383,10.8982,11.0298,11.0298,11.0298,11.0298,11.0298,11.1723,11.4489,11.5897,12.078,12.7588,12.9329,13.2592,13.6589,13.8338,13.9485,14.0293,14.11,14.1394,14.1614,0.0,0.0,0.0,0.0,0.0,0.0,5.1908,5.6279,5.9886,0.0,0.0,0.0,0.0,0.0,6.6689,6.7141,6.8095,6.91,7.0204,7.1309,7.2916,7.5126,7.5778,7.6582,7.7687,7.5551,7.3175,7.017,6.837,6.7272,6.6344,6.6857,6.8588,7.1662,7.4004,7.6969,8.0116,8.1533,8.3668,8.6076,8.7266,9.052,9.4579,9.4579,9.6135,0.0,0.0,9.8508,9.8628,0.0,10.0491,10.1518,10.2046,10.3822,10.6154,0.0,10.8337,10.8104,10.8104,0.0,0.0,0.0,0.0,0.0,11.5236,11.6622,11.8074,12.1476,12.2535,12.3253,12.3431,12.0453,11.8158,11.8879,11.5849,11.359,11.4069,11.3709,11.359,11.4128,11.3709,11.3291,11.2872,11.2872,11.2513,11.1615,11.1016,11.0298,10.97,10.8563,10.7605,10.7007,10.6528,10.6707,10.7665,10.7665,10.8323,10.97,11.0597,11.0538,10.964,10.964,11.1355,11.4361,11.4233,11.9395,12.785,13.0644,13.4373,13.8411,13.9448,13.9999,14.0219,14.0366,14.088,14.1541,0.0,0.0,0.0,0.0,0.0,4.9353,5.2488,5.6136,5.9857,0.0,0.0,0.0,0.0,0.0,0.0,6.983,6.9435,6.9702,7.0556,7.1861,7.3519,7.5477,7.6331,7.6631,7.6649,7.4937,7.2095,6.7933,6.6282,6.51,6.4006,6.4251,6.5928,6.8807,7.189,7.5188,7.8996,8.3024,8.6181,8.8387,8.9738,9.2807,9.6135,9.6135,9.7116,0.0,0.0,0.0,9.9698,9.9288,10.0371,0.0,0.0,0.0,0.0,0.0,0.0,0.0,0.0,10.9433,10.8459,10.946,0.0,0.0,11.6408,11.7203,11.7931,12.085,12.1785,12.2258,12.3002,12.0252,11.7853,11.7356,11.4363,11.2287,11.2838,11.2513,11.2393,11.2812,11.2513,11.2153,11.1914,11.1914,11.1615,11.0897,11.0298,10.952,10.8622,10.7605,10.6707,10.5989,10.563,10.563,10.6109,10.6707,10.7665,10.8982,11.0298,11.0597,11.0178,10.9939,11.1539,11.4809,11.4041,11.911,12.8075,13.013,13.4028,13.8604,13.9412,13.9926,14.0219,14.0219,14.0513,14.088,0.0,0.0,4.4062,4.4883,4.6562,4.9319,5.3248,5.6527,6.0267,0.0,6.7329,6.9952,0.0,0.0,0.0,0.0,7.1603,7.0455,7.0958,7.2615,7.4322,7.5879,7.7084,7.6913,7.5543,7.474,7.189,6.6565,6.5886,6.4373,6.1719,6.1719,6.3033,6.5659,6.8985,7.3435,7.8741,8.4538,8.9187,9.2805,9.299,9.5513,9.8868,9.8868,9.8987,9.9166,9.9166,10.0455,10.1772,9.9936,10.1494,0.0,0.0,0.0,0.0,0.0,10.7655,0.0,0.0,0.0,0.0,11.1923,11.2021,0.0,11.6977,11.697,11.6632,11.9435,12.0634,12.1379,12.1988,12.0329,11.7967,11.5672,11.3231,11.1915,11.2143,11.1974,11.1974,11.2153,11.2094,11.1794,11.1196,11.1196,11.0897,11.0238,10.958,10.8622,10.7366,10.6707,10.6109,10.5451,10.5451,10.5151,10.4493,10.581,10.7066,10.8383,10.964,11.0538,11.1076,11.0418,11.1969,11.5145,11.4553,11.922,12.7259,12.8299,13.2301,13.7797,13.8678,13.9412,14.0073,14.0219,14.0293,14.0366,0.0,4.4375,4.4414,4.4922,4.593,4.8249,5.3214,5.6482,6.1049,6.8449,7.3667,7.7092,7.8046,0.0,0.0,0.0,7.1346,7.0305,7.0405,7.2414,7.4121,7.5327,7.6883,7.7785,7.782,7.3649,7.0796,6.9694,6.4831,6.2145,6.1719,6.1719,6.1952,6.2801,6.8094,7.2312,7.5694,8.3651,8.9187,9.2805,9.4987,9.79,10.1087,10.1087,10.2219,10.3655,10.3655,10.4046,10.4563,10.5149,10.4708,10.3941,0.0,0.0,0.0,10.6505,0.0,0.0,0.0,0.0,0.0,0.0,11.2752,0.0,11.6901,11.7427,11.7817,11.832,11.9078,11.9687,11.9822,11.8862,11.7182,11.4902,11.2979,11.1546,11.0881,11.0298,11.0298,11.1375,11.1016,11.0657,11.0538,11.0538,11.0238,10.964,10.8503,10.7426,10.6647,10.6468,10.6109,10.5451,10.5451,10.5331,10.5211,10.5989,10.7066,10.8383,10.9221,10.964,10.97,10.9101,11.0803,11.4553,11.3849,11.7401,12.3973,12.6221,13.0812,13.6989,13.8384,13.9118,13.9265,13.9999,14.0586,14.1174,4.5,4.4844,4.4961,4.582,4.6523,4.8919,5.4595,5.7176,6.1733,7.0638,7.7892,8.2398,8.2681,0.0,0.0,0.0,0.0,0.0,0.0,7.2364,7.372,7.3971,7.5829,7.6631,7.5942,7.3653,7.0963,6.8361,6.5432,6.3033,6.1719,6.1719,6.1719,6.1912,6.7914,7.2651,7.6698,8.3988,8.9992,9.4748,9.723,9.9576,10.188,10.2827,10.3983,10.5018,10.5018,10.5018,10.5466,10.9003,10.8038,0.0,10.7043,10.6618,10.5801,0.0,10.5801,10.6154,0.0,0.0,0.0,11.043,0.0,0.0,0.0,11.6913,11.7522,11.7522,11.8131,11.8672,11.8672,11.8235,11.7163,11.4854,11.3054,11.1555,11.0168,10.9414,10.9101,10.976,10.958,10.94,10.94,10.94,10.9101,10.8503,10.7785,10.7126,10.6408,10.6109,10.563,10.4912,10.4613,10.4433,10.4433,10.5391,10.6408,10.7366,10.8383,10.8862,10.8862,10.7844,10.9637,11.3611,11.2761,11.6315,12.3004,12.5244,12.9585,13.4891,13.6953,13.8531,13.9706,14.0513,14.1321,14.1981,4.5625,4.5312,4.543,4.6719,4.7701,5.0346,5.602,5.8705,6.3492,7.3486,8.0814,8.5287,8.5588,0.0,0.0,0.0,0.0,0.0,0.0,7.1158,7.2213,7.2414,7.4674,7.5334,7.4072,7.407,7.1774,6.7016,6.6339,6.4602,6.1719,6.1719,6.1952,6.2801,6.8094,7.3675,7.9453,8.4764,9.0733,9.6886,9.9392,10.1202,10.2555,10.4857,10.5971,10.622,10.622,10.622,10.6727,11.1472,11.03,10.7157,10.8229,10.6903,0.0,0.0,0.0,0.0,0.0,0.0,0.0,0.0,0.0,11.3007,0.0,0.0,0.0,11.671,11.7319,11.7928,11.7928,11.7996,11.7246,11.5032,11.3021,11.1449,10.9579,10.8497,10.7964,10.8323,10.8383,10.8383,10.8383,10.8263,10.7964,10.7426,10.7306,10.7007,10.6408,10.581,10.5091,10.4433,10.3895,10.3535,10.3416,10.4732,10.575,10.6408,10.7366,10.7964,10.8144,10.7351,10.9276,11.31,11.2697,11.6209,12.272,12.4504,12.7948,13.235,13.5594,13.8164,14.0293,14.1321,14.2128,14.2789,4.582,4.5312,4.543,4.6719,4.9324,5.2634,5.6241,6.0604,6.767,7.9387,8.3217,8.4397,0.0,0.0,0.0,0.0,0.0,0.0,6.6388,0.0,6.8246,7.1158,7.387,7.5631,7.6533,7.4968,7.268,7.0092,6.7423,6.4602,6.1719,6.1719,6.3033,6.5701,6.8985,7.4737,8.2352,8.5643,9.0733,9.6886,10.0984,10.3356,0.0,10.7061,10.9003,11.0733,11.0733,11.0733,11.0648,0.0,10.8991,10.6764,0.0,10.4671,10.333,10.515,0.0,0.0,0.0,0.0,0.0,0.0,11.098,0.0,11.5323,0.0,11.5898,11.5898,0.0,11.6981,11.6981,0.0,0.0,11.5032,11.2863,11.0496,10.8213,10.6675,10.6408,10.8144,10.8383,10.8383,10.8383,10.7844,10.7485,10.7366,10.6827,10.6468,10.6408,10.581,10.5091,10.4433,10.4313,10.4014,10.3416,10.4732,10.575,10.6408,10.5989,10.6408,10.7426,10.822,11.036,11.3337,11.5245,11.8212,12.1631,12.3479,12.6193,12.9869,13.5547,13.8678,14.0366,14.1908,14.3009,14.367,4.6953,4.6641,4.6914,4.8203,5.0821,5.393,5.7491,6.7206,7.6298,8.2823,8.7665,8.9774,0.0,0.0,0.0,0.0,0.0,6.5333,0.0,0.0,0.0,6.91,7.2163,7.4473,7.5879,7.6023,7.505,7.2512,7.0003,6.7241,6.4373,6.4373,6.5018,6.6339,7.2528,7.8076,8.2798,8.7408,9.2131,9.7061,10.1309,10.3832,0.0,10.8855,11.059,11.1365,11.1365,11.1365,11.1286,0.0,10.8834,0.0,0.0,0.0,0.0,10.4005,0.0,0.0,0.0,0.0,0.0,0.0,0.0,0.0,11.496,0.0,11.5831,0.0,0.0,0.0,0.0,0.0,0.0,0.0,11.3726,11.1654,10.9517,10.7908,10.6736,10.6723,10.7007,10.7186,10.7186,10.7007,10.6827,10.6827,10.6588,10.6229,10.581,10.5211,10.4493,10.3835,10.3476,10.3296,10.3416,10.4014,10.4613,10.5211,10.5331,10.575,10.6229,10.8104,11.0226,11.2869,11.512,11.8237,12.1683,12.4393,12.7357,13.0818,13.5796,13.8458,13.9779,14.1835,14.3083,14.389,4.8555,4.8281,4.866,5.0544,5.3011,5.6494,6.121,7.2831,8.207,8.4461,0.0,0.0,9.0048,8.4127,0.0,0.0,6.8642,6.5383,0.0,0.0,6.5886,0.0,0.0,0.0,7.5226,7.6833,7.6461,7.4145,7.1616,6.8985,6.6113,6.6113,6.6565,6.7647,7.4668,8.0014,8.4076,8.8027,9.2493,9.7061,10.1309,10.4524,10.7061,11.0236,11.1365,11.1365,11.1365,11.1501,11.1623,11.0577,10.9279,0.0,10.6934,0.0,10.6443,0.0,0.0,0.0,10.5507,0.0,0.0,0.0,0.0,0.0,0.0,0.0,0.0,0.0,11.5831,0.0,0.0,0.0,11.5831,11.5831,0.0,11.2565,11.0944,10.887,10.6999,10.5224,10.575,10.6109,10.6109,10.6288,10.6408,10.6408,10.6408,10.6229,10.575,10.4912,10.4194,10.3715,10.2937,10.2698,10.3117,10.3535,10.3895,10.4373,10.5797,10.6409,10.6721,10.9631,11.2178,11.3914,11.6296,11.8976,12.1955,12.4949,12.7975,13.1031,13.5112,13.7392,13.8678,14.1541,14.3009,14.3596,5.0625,5.0039,5.0437,5.3862,5.6968,6.1027,6.8048,7.6049,0.0,0.0,0.0,0.0,0.0,0.0,0.0,0.0,0.0,5.9207,6.3425,0.0,6.4078,0.0,0.0,7.3519,0.0,7.6833,7.6461,7.4145,7.1616,6.8985,6.6113,6.6113,6.769,7.0532,7.3622,7.9607,8.6817,8.7007,9.0733,9.7061,10.1309,10.6275,11.1225,0.0,11.1365,11.1365,11.1365,0.0,0.0,11.0776,11.0607,0.0,0.0,0.0,0.0,0.0,0.0,0.0,0.0,0.0,0.0,11.1844,0.0,0.0,0.0,0.0,11.5831,0.0,0.0,0.0,0.0,0.0,0.0,0.0,11.4059,0.0,0.0,10.9142,10.6261,10.4694,10.5032,10.5451,10.5451,10.6049,10.6408,10.6408,10.6408,10.6408,10.6408,10.5091,10.4373,10.4373,10.3176,10.2518,10.2518,10.3775,10.4373,10.4373,10.7366,10.9027,10.983,11.4471,11.6923,11.7811,12.0249,12.1785,12.2547,12.4433,12.6756,12.9339,13.2754,13.5099,13.7209,14.11,14.2569,14.2789,5.2422,5.2266,5.2816,5.5446,5.7885,6.181,6.8875,7.5931,0.0,0.0,0.0,0.0,0.0,8.117,7.6555,0.0,0.0,6.5484,6.4781,6.4379,0.0,0.0,0.0,7.3669,0.0,0.0,7.7532,7.7003,7.4716,7.189,6.9029,7.0971,7.1408,7.0796,7.7546,8.2878,8.7197,8.8699,9.2312,9.7122,10.2254,10.7061,11.1365,0.0,11.1365,11.1365,11.1365,11.1906,0.0,11.0776,11.0827,11.1175,10.9583,11.0169,11.1141,11.0495,11.0819,0.0,0.0,0.0,10.9611,11.2003,0.0,0.0,0.0,0.0,0.0,0.0,0.0,0.0,0.0,0.0,0.0,0.0,0.0,11.4211,0.0,10.8866,10.6589,10.7418,10.5957,10.4732,10.4732,10.5331,10.575,10.575,10.6109,10.6229,10.581,10.5331,10.4912,10.4433,10.4014,10.3775,10.3775,10.4194,10.5262,10.6631,10.8225,10.9805,11.1655,11.5701,11.7679,11.8106,12.0854,12.2258,12.2836,12.6133,12.8054,12.9469,13.3907,13.611,13.6989,13.9926,14.1027,14.1321,5.332,5.4243,5.5602,5.7977,6.1239,6.5103,0.0,0.0,0.0,0.0,8.5614,0.0,8.6078,0.0,8.0049,0.0,7.2665,7.0154,6.7794,6.7643,0.0,7.1058,7.2565,0.0,0.0,0.0,0.0,7.854,7.6243,7.4098,7.2108,7.4098,7.3884,7.2325,7.8887,8.3774,8.7197,8.8699,9.2312,9.7182,10.2657,10.752,11.1365,0.0,11.1365,11.1365,0.0,11.1974,11.2779,11.1806,11.2092,11.2871,11.1806,11.2474,11.3315,11.1937,11.2474,11.3381,11.1937,11.1461,0.0,11.3315,11.3688,0.0,11.5538,0.0,0.0,0.0,0.0,0.0,0.0,0.0,0.0,0.0,0.0,11.496,0.0,10.928,10.7139,10.7827,10.559,10.4394,10.5274,10.5185,10.5032,10.5032,10.5451,10.563,10.5451,10.5211,10.4972,10.4792,10.4493,10.4373,10.4373,10.5504,10.6875,10.8218,11.0634,11.2589,11.4511,11.7908,11.9675,12.0035,12.1974,12.3329,12.4099,12.7731,12.9682,13.0718,13.5296,13.6916,13.6916,13.8971,14.0073,14.088,5.36,5.6046,5.907,6.1601,6.6622,0.0,0.0,0.0,8.1773,0.0,8.4721,8.6987,8.7196,8.1648,7.8289,7.9294,7.5477,7.2715,7.2163,7.2062,0.0,0.0,7.3971,7.5075,7.613,0.0,0.0,0.0,7.6243,7.5214,7.5001,7.5214,7.5214,7.5214,7.8258,8.2439,8.7007,8.7197,9.0975,9.7182,10.272,10.7367,11.1225,11.1225,11.1225,11.1365,11.1433,11.238,11.3598,11.3598,11.4613,11.5831,11.5831,11.5831,11.5831,11.5831,11.5831,11.5831,11.5831,11.5831,11.5831,11.5831,0.0,0.0,0.0,0.0,11.5831,0.0,0.0,0.0,0.0,0.0,0.0,0.0,0.0,0.0,11.3007,11.0657,10.8506,10.633,10.4552,10.4235,10.6434,10.5153,10.4373,10.4373,10.4373,10.4673,10.5331,10.4792,10.4732,10.5391,10.4792,10.4493,10.4493,10.7613,10.89,10.9082,11.4446,11.7218,11.8106,12.1122,12.2935,12.3611,12.3611,12.477,12.6473,12.8977,13.1235,13.3118,13.6364,13.7283,13.6916,13.8384,13.9999,14.1541,5.6368,6.0501,6.3986,6.5117,6.803,7.0606,0.0,0.0,0.0,0.0,8.1032,8.3067,8.2711,8.1522,8.0398,7.9495,7.7586,0.0,0.0,0.0,0.0,7.5778,7.608,7.6783,7.7888,7.8189,0.0,7.9143,7.8624,7.7164,7.5001,7.7164,7.7164,7.5167,7.9963,8.3971,8.7197,8.9579,9.4159,9.9979,10.1739,10.5114,10.9003,0.0,10.9948,11.1501,11.1974,11.2786,11.3733,11.4207,11.5019,11.5831,11.5831,11.5831,11.5831,11.5831,11.5831,11.5831,11.5831,11.5831,11.5831,11.5831,11.5831,11.5831,0.0,0.0,0.0,0.0,0.0,0.0,0.0,0.0,0.0,11.5831,11.5831,11.5617,11.496,11.162,10.9675,11.0722,10.5987,10.2945,10.3571,10.3613,10.3715,10.3715,10.4134,10.4493,10.4613,10.5032,10.5211,10.5451,10.575,10.5929,10.5929,10.8346,11.0492,11.2211,11.5897,11.8556,12.0607,12.2421,12.3408,12.3611,12.422,12.518,12.6473,12.9047,13.1179,13.3118,13.5779,13.7503,13.8384,13.8825,13.9999,14.1688,5.753,6.2494,6.6722,6.8185,0.0,0.0,7.2113,7.5678,0.0,7.7637,8.07,0.0,8.1855,8.1805,8.1453,8.0499,7.9846,0.0,7.7938,0.0,0.0,7.7938,7.7737,7.7988,7.8892,7.8641,0.0,7.9394,7.9394,7.8516,7.6955,7.8723,7.8516,7.6955,8.0269,8.3142,8.591,9.0615,9.5046,9.9232,10.106,10.3655,0.0,10.7824,10.9135,11.0695,11.2366,11.3192,11.3733,11.4477,11.5222,11.5831,11.5831,11.5831,11.5831,11.5831,11.5831,11.5831,11.5831,11.5831,11.5831,11.5831,11.5831,11.5831,11.5831,11.5831,11.5831,0.0,0.0,0.0,0.0,0.0,0.0,11.5831,11.5831,11.5538,11.4512,11.1367,10.9344,10.9446,10.5329,10.2518,10.2518,10.2817,10.2997,10.2997,10.3356,10.3715,10.3954,10.4313,10.4852,10.5391,10.581,10.6109,10.6408,10.9707,11.1935,11.3337,11.7547,12.0361,12.192,12.307,12.3814,12.4085,12.4491,12.5905,12.8154,12.9881,13.2114,13.4631,13.6367,13.7723,13.8604,13.9265,14.0293,14.1688,5.8959,6.372,6.8531,7.0888,7.1711,0.0,0.0,7.7335,0.0,7.8591,0.0,8.4479,8.2974,8.2734,8.2532,8.2156,0.0,8.1503,8.0499,8.0348,8.0097,7.9645,7.9143,7.9043,7.9495,7.8992,7.8942,0.0,7.9394,7.9394,7.9394,7.9394,7.9394,7.9394,7.9756,8.1442,8.4332,9.0569,9.3985,9.558,9.8971,10.1756,10.4245,10.622,10.7979,10.968,11.2248,11.3446,11.3869,11.4613,11.5289,11.5831,11.5831,11.5831,11.5831,11.5831,11.5831,11.5831,11.5831,11.5831,11.5831,11.5831,11.5684,11.5323,11.5323,11.5108,11.496,11.5323,11.5323,11.5538,0.0,0.0,0.0,11.5831,11.5831,0.0,0.0,11.0657,10.8273,10.6154,10.3822,0.0,10.2518,10.2518,10.2518,10.2518,10.2518,10.2698,10.3296,10.3416,10.3954,10.5151,10.5211,10.563,10.6288,11.0978,11.3337,11.3465,11.8877,12.1785,12.2664,12.3341,12.4017,12.4694,12.4694,12.6776,13.014,13.0848,13.3257,13.6696,13.7503,13.787,13.809,13.9559,14.0733,14.1614,6.3975,6.7858,7.0751,7.2263,7.2514,7.3067,7.4573,7.7421,7.8984,7.7889,8.4089,8.7114,8.3037,8.5406,8.6296,8.4081,8.306,0.0,0.0,0.0,0.0,8.075,8.065,8.0449,8.0097,7.9947,7.9746,0.0,0.0,7.9394,7.9394,7.9394,7.9394,7.96,8.1688,8.3205,8.4491,8.8631,8.9322,8.8243,9.1246,9.5111,9.9092,10.0166,10.4058,10.9529,11.122,11.3024,11.4613,11.5425,11.5695,11.5831,11.5831,11.5831,11.5831,11.5831,11.5831,11.5831,11.5831,11.5831,11.5831,11.5831,11.4445,11.3007,11.3007,11.162,11.0754,11.2696,11.3007,11.3622,11.5538,0.0,0.0,0.0,0.0,0.0,0.0,11.043,10.8273,10.6154,10.3822,10.2518,10.2518,10.2518,10.2518,10.2518,10.2518,10.2518,10.2698,10.3117,10.3535,10.3715,10.4313,10.4912,0.0,0.0,11.3017,11.4343,11.9076,12.2123,12.3408,12.3544,12.4017,12.4694,12.4694,12.6776,13.0069,13.0281,13.2826,13.6696,13.7503,13.8164,13.8898,13.9852,14.0733,14.1614,6.7658,7.0614,7.2263,7.1912,7.2615,0.0,0.0,7.915,8.091,8.055,8.5883,8.846,8.5416,8.6778,8.6825,8.4484,8.3813,8.3261,8.2708,8.2457,8.2206,8.1905,8.1604,8.1302,8.1051,8.08,8.0348,7.9796,0.0,0.0,7.9394,7.9394,7.8516,7.7213,7.7345,7.762,7.8418,8.1884,0.0,8.4224,8.7008,9.0629,9.4694,9.7779,10.1311,10.5321,10.8424,11.1306,11.3827,11.5335,11.5831,11.5831,11.5831,11.5831,11.5831,11.5831,11.5831,11.5831,11.5831,11.5027,11.4144,11.4144,11.2317,11.0754,11.0754,10.994,10.9446,11.056,11.1686,11.3161,11.5323,11.5831,0.0,0.0,0.0,0.0,0.0,10.8779,10.668,10.437,10.3144,10.2398,10.1979,10.1979,10.2099,10.2458,10.2518,10.2518,10.2518,10.2817,10.3117,10.3416,0.0,0.0,10.5451,0.0,11.2825,11.3849,11.8943,12.1785,12.2529,12.3273,12.3814,12.422,12.4491,12.6776,13.0201,13.2056,13.4038,13.6108,13.6916,13.743,13.787,13.9118,14.0073,14.11,6.9889,7.1861,7.2816,7.151,7.2464,7.4623,7.8192,8.1262,8.3382,8.3828,8.7892,9.016,8.8012,8.818,8.7565,8.5457,8.4686,8.4315,8.3864,8.3612,8.3311,8.2859,8.2307,8.1955,8.1805,8.1403,8.0951,0.0,0.0,0.0,0.0,7.9444,7.7891,7.4977,7.3693,7.2504,0.0,0.0,7.7617,7.9419,8.3067,8.6459,9.0167,9.4945,9.8289,10.1274,10.5257,10.9261,11.2852,11.4512,11.5323,11.5831,11.5831,11.5831,11.5831,11.5831,11.5538,11.5175,11.5175,11.3535,11.1844,11.1844,11.0169,10.8442,10.8442,10.7934,10.7763,10.8337,11.0657,11.3161,11.5323,11.5831,0.0,0.0,0.0,0.0,0.0,10.7139,10.497,10.2832,10.2518,10.2279,10.174,10.1561,10.174,10.2398,10.2398,10.2279,10.2279,10.2398,10.2698,0.0,0.0,10.3835,10.5211,0.0,11.2569,11.3529,11.8677,12.1311,12.1717,12.2732,12.3341,12.3611,12.4017,12.6362,13.0049,13.3862,13.5374,13.5521,13.6108,13.6402,13.6769,13.8017,13.9118,14.0219,7.0038,7.1259,7.2012,0.0,0.0,0.0,7.9719,8.2731,8.4761,8.577,9.1247,9.3548,8.9714,9.0222,9.036,8.8828,8.6505,8.5069,8.4968,8.4064,8.3462,8.3412,8.2909,8.2357,8.1805,8.1754,8.1503,0.0,0.0,8.0198,0.0,7.9645,7.8088,7.5452,7.5803,0.0,0.0,7.2349,7.2526,7.0717,7.7081,8.1271,8.4084,8.8513,9.4526,10.0782,10.1936,10.6699,11.2474,11.263,11.4144,11.5831,11.5831,11.5831,11.5831,11.5831,11.4362,11.2852,11.2852,11.1141,10.9446,10.9446,10.7827,10.6154,10.6154,10.4671,10.3638,10.5623,10.951,11.3161,11.5323,11.5831,11.5831,0.0,0.0,0.0,0.0,0.0,10.497,10.2832,10.2518,10.2458,10.2398,10.186,10.174,10.2398,10.192,10.1561,10.1561,10.2159,10.2518,10.2578,10.2578,10.3176,10.4493,10.9097,11.2549,11.4471,11.8411,12.1108,12.2393,12.1785,12.2326,12.3611,12.3002,12.5053,12.9268,13.3571,13.5374,13.5374,13.5521,13.5961,13.6622,13.6769,13.7797,13.9192,0.0,0.0,0.0,0.0,0.0,0.0,0.0,8.3437,8.6139,9.0561,9.4222,9.4391,8.9494,9.0014,8.9668,8.659,8.5275,8.4667,8.4667,8.4215,8.3713,8.301,8.2809,8.2558,8.2357,8.2307,8.2056,0.0,0.0,0.0,0.0,7.9997,7.7474,7.3122,0.0,6.7744,6.5909,6.7462,6.8216,6.9161,7.1865,7.6135,8.1419,8.4668,9.0454,9.7044,9.8951,10.3579,10.8506,10.8506,11.0884,11.4059,11.5323,11.4811,11.4144,11.5323,11.4144,11.254,11.254,10.984,10.7139,10.7139,10.5507,10.3822,10.3822,10.3144,10.2892,10.3638,10.7312,11.1076,11.3315,11.4811,11.5323,0.0,0.0,0.0,0.0,0.0,10.3514,10.2646,10.2518,10.2339,10.192,10.168,10.1381,10.1321,10.1381,10.168,10.2099,10.2398,10.2518,10.2518,0.0,10.3117,10.4373,10.9035,11.21,11.3145,11.7946,12.0364,12.0499,12.1108,12.219,12.3699,12.4999,12.7103,12.9836,13.3207,13.4934,13.5374,13.5374,13.5594,13.5888,13.6402,13.7283,13.8384,6.7543,0.0,7.0255,0.0,7.2113,7.5825,8.2337,8.3492,8.6108,9.2923,9.41,9.3048,9.012,8.9487,8.8217,8.538,8.4602,8.4315,8.4315,8.4165,8.3713,8.296,8.2759,0.0,8.2658,8.2658,8.2457,8.2056,8.1905,0.0,0.0,0.0,0.0,0.0,6.8086,6.5509,6.4297,6.4297,6.5468,6.7544,6.8619,7.2813,7.8659,8.181,8.7657,9.4394,9.6478,10.0851,10.5801,10.5801,10.7997,11.098,11.3992,11.3841,11.2852,11.5175,11.3841,11.1461,11.1461,10.8337,10.479,10.479,10.3699,10.2518,10.2518,10.2518,10.2646,10.333,10.6505,10.9776,11.2003,11.4295,11.5175,11.2852,0.0,0.0,0.0,10.3822,10.2518,10.2518,10.2518,10.2279,10.18,10.1561,10.1381,10.1082,10.1321,10.168,10.2159,10.2398,10.2518,0.0,0.0,0.0,0.0,10.8721,11.1417,11.2249,11.748,11.9755,11.9552,12.0837,12.1785,12.2751,12.5924,12.8054,12.9623,13.253,13.4354,13.5374,13.5374,13.5374,13.5521,13.6035,13.6916,13.787,6.7191,6.8748,7.0255,7.0255,7.2113,7.6134,8.3308,8.2684,8.39,9.0733,8.9973,8.9794,9.2306,8.8894,8.6876,8.7457,8.5646,8.4315,8.4315,8.3813,8.3512,0.0,0.0,8.2658,8.2658,8.2658,8.2658,8.2658,0.0,0.0,8.1754,0.0,7.7944,7.2772,7.2545,6.9399,6.4297,6.4297,6.4336,6.4579,6.8277,7.1988,7.548,7.927,8.6337,9.4189,9.4189,9.926,10.5801,10.5801,10.5801,10.668,11.1141,11.2474,11.2852,11.5175,11.2564,10.9113,10.9113,10.604,10.2458,10.2458,10.2458,10.2518,10.2518,10.2518,10.3144,10.5329,10.7421,10.9776,11.2003,11.4295,11.5175,11.2852,0.0,0.0,0.0,10.3822,0.0,10.2518,10.2518,10.2518,10.2518,10.186,10.174,10.2398,0.0,0.0,0.0,0.0,0.0,10.2518,10.2518,0.0,10.3416,10.8031,11.0905,11.2484,11.6948,11.9552,12.0296,12.1108,12.0973,12.0583,12.464,12.6899,12.8133,13.1409,13.382,13.5374,13.5374,13.5374,13.5374,13.5374,13.6402,13.7797,6.684,6.8145,6.9752,7.161,7.3468,7.6393,8.1626,8.2552,8.4095,8.8543,8.7605,8.6866,8.7809,8.7158,8.6098,0.0,8.44,8.4315,0.0,8.4165,8.3864,8.3512,8.296,8.2658,8.2658,8.2658,8.2658,8.2658,0.0,0.0,0.0,7.963,7.7627,7.5784,7.1801,6.9228,6.7306,6.5266,6.4297,6.4579,6.8277,7.1988,7.5435,7.9317,8.6337,9.4189,9.4189,9.8207,10.3514,10.3514,10.4671,10.6268,10.9344,11.0169,11.0915,11.4662,11.263,10.9113,10.9113,10.5801,10.2518,10.2518,10.2518,10.2518,10.2518,10.2518,10.2646,10.333,10.5329,10.7421,10.984,11.0819,11.098,11.0267,10.8273,0.0,10.3822,0.0,10.2518,10.2518,10.2518,10.2518,10.2518,10.2279,10.2279,10.2518,0.0,0.0,0.0,0.0,0.0,0.0,10.2518,0.0,10.3416,10.6434,10.9107,11.1609,11.5183,11.8195,12.0296,12.0499,12.077,12.1192,12.3049,12.4948,12.6969,12.9912,13.2151,13.3705,13.4866,13.5374,13.5374,13.5374,13.6402,13.7797,6.7041,6.8346,6.9953,7.2313,7.3971,7.6454,8.0736,8.1498,8.2638,8.6169,8.5188,8.4225,8.4484,8.4846,0.0,8.3376,8.3512,8.3713,8.3713,8.3914,8.3763,8.3211,8.306,8.2909,8.2658,8.2658,0.0,8.2658,8.2658,8.2508,8.2156,8.012,7.8764,7.7396,7.3811,7.1646,7.0526,6.8689,6.7782,6.802,7.0165,7.3411,7.7286,8.0532,8.7003,9.4394,9.5413,9.8715,10.2518,10.2518,10.4005,10.6154,10.8442,10.9611,11.0915,11.3622,11.2003,10.8946,10.8104,10.5088,10.2518,10.2518,10.2518,10.2518,10.2518,10.2518,10.2518,10.2518,10.437,10.6092,10.7592,10.8611,10.9113,10.9113,10.7312,10.5329,10.3944,0.0,10.2518,10.2518,0.0,0.0,0.0,10.2518,10.2518,0.0,0.0,0.0,0.0,0.0,0.0,10.2518,10.2518,0.0,10.3117,10.5222,10.7969,11.0905,11.5344,11.8463,12.0296,12.0905,12.1176,12.1379,12.2321,12.3675,12.5643,12.7895,13.0413,13.2927,13.4298,13.5305,13.5888,13.5888,13.6696,13.7797,6.7844,6.925,7.0857,0.0,7.382,0.0,8.0595,7.9803,8.0065,8.4158,8.3084,8.2056,8.2608,8.2658,8.2658,8.2658,0.0,0.0,0.0,8.3211,8.3261,8.2809,8.3211,8.3211,8.2759,8.2708,8.2658,8.2658,8.2658,8.2658,8.2658,8.2658,8.1046,7.8314,7.8267,7.6436,7.3763,7.3489,7.3534,7.3534,7.3763,7.6181,8.0066,8.3158,8.8353,9.4599,9.7277,10.019,10.2458,10.2646,10.4127,10.638,10.8611,11.0819,11.2408,11.254,11.0819,10.8611,10.6443,10.4187,10.2518,10.2518,10.2518,10.2518,10.2518,10.2518,10.2518,10.2518,10.4127,10.5623,10.5801,10.7312,10.8843,10.9113,10.7202,10.5623,10.5801,10.3822,10.2518,0.0,0.0,0.0,0.0,10.2518,10.2518,0.0,0.0,0.0,0.0,0.0,10.2518,10.2518,10.2518,10.2518,10.2518,10.4429,10.723,11.0562,11.7171,12.0364,12.0499,12.192,12.2123,12.1446,12.2123,12.2981,12.3971,12.5636,12.883,13.2687,13.3601,13.5056,13.6622,13.6622,13.7063,13.8017,0.0,0.0,7.156,7.3669,7.5628,7.7435,7.8948,8.0261,8.1363,8.2348,8.2532,8.2508,8.2658,8.2658,8.2658,8.2658,8.306,8.3311,8.3311,8.3412,8.3612,8.3914,8.3261,8.301,8.3311,8.2909,8.2658,8.2658,8.2658,8.2658,8.2658,8.2658,8.2228,8.1529,7.9198,7.76,7.6931,7.4448,7.3534,7.3763,7.645,7.8546,8.034,8.5993,9.0626,9.4599,9.7277,10.019,10.2832,10.4429,10.6131,10.7974,11.0785,11.1609,11.1815,11.2342,11.0819,10.8675,10.6443,10.4187,10.2518,10.2518,10.2518,10.2518,10.2518,10.2518,10.2518,10.2518,10.3019,10.3822,10.5507,10.479,10.515,10.8675,10.5801,10.3822,10.5685,10.3822,10.2518,0.0,10.2518,10.2518,10.2518,10.2518,10.2518,0.0,0.0,0.0,0.0,10.2518,10.2518,10.2518,10.2518,10.2518,10.2518,10.2959,10.6192,11.1972,11.7637,12.0905,12.1988,12.2326,12.2123,12.1379,12.1582,12.1819,12.2354,12.513,12.8084,13.0923,13.3689,13.5492,13.6622,13.6622,13.7503,13.8678,7.0355,7.1108,7.2113,7.4071,7.603,7.7586,7.839,8.0198,8.1553,8.1754,8.2307,8.2658,8.2658,8.2658,8.2658,8.2658,8.296,8.311,8.311,8.3361,8.3512,8.3562,8.3462,8.3311,8.311,8.306,8.2909,8.2658,8.2658,8.2658,8.2658,8.2658,8.2658,8.2658,8.1046,8.0124,8.0124,7.8536,7.76,7.7918,7.9757,8.0905,8.2057,8.6606,9.0662,9.3766,9.6422,9.9952,10.3213,10.4342,10.6116,10.7934,10.9782,11.0265,10.991,10.9418,10.8675,10.7202,10.479,10.333,10.2518,10.2518,10.2518,10.2518,10.2518,10.2518,10.2518,10.2518,10.2518,10.2832,10.4187,10.333,10.3944,10.8442,10.5329,10.3638,10.6854,10.4429,0.0,10.2518,10.2518,10.2518,10.2518,10.2518,10.2518,10.2518,10.2518,0.0,10.2518,10.2518,10.2518,10.2518,10.2518,10.2518,10.2518,10.449,10.714,11.0481,11.5971,11.9444,12.0916,12.1651,12.2062,12.2393,12.1988,12.192,12.2141,12.4223,12.7313,13.0971,13.3392,13.5553,13.7063,13.7063,13.7503,13.809,7.0907,7.161,7.2565,7.4272,7.5979,7.7486,7.8591,8.0198,8.1453,8.1855,8.2357,8.2658,8.2658,8.2658,8.2658,8.2658,8.2658,8.2658,8.2658,8.311,8.3211,8.2809,8.3612,8.3713,8.296,8.3311,8.3211,8.2658,8.2658,8.2658,8.2658,8.2658,8.2658,8.2658,8.2658,8.2658,8.2658,8.2658,8.2658,8.2658,8.2658,8.301,8.3895,8.6515,8.9691,9.2823,9.5452,9.9387,10.3294,10.3582,10.4959,10.6764,10.7668,10.7988,10.7384,10.6143,10.5685,10.479,10.2959,10.2518,10.2518,10.2518,10.2518,10.2518,10.2518,10.2518,10.2518,10.2518,10.2518,10.2518,10.2518,10.2518,10.3822,10.7934,10.515,10.4005,10.7934,0.0,10.2518,10.2518,10.2518,10.2518,10.2518,10.2518,10.2518,10.2518,10.2518,10.2518,10.2518,10.2518,10.2518,10.2518,10.2518,10.2518,10.2518,10.6743,10.8539,10.8218,11.3745,11.7482,11.9326,12.0512,12.2003,12.3611,12.2935,12.2596,12.2596,12.3544,12.6854,13.1619,13.3043,13.554,13.8017,13.7797,13.743,13.7283,7.0958,7.1912,7.3117,7.4824,7.6883,7.8641,7.9796,8.1353,8.2457,8.2508,8.2608,8.2658,8.2658,8.2658,8.2658,8.2658,8.2658,8.2658,8.2658,8.2759,8.296,8.3361,8.306,8.3261,8.4064,8.3713,8.3211,8.2658,8.2658,8.2658,8.2658,8.2658,8.2658,8.2658,8.2658,8.2658,8.2658,8.2658,8.2658,8.2658,8.2658,8.301,8.3895,8.6515,8.9691,9.2823,9.5452,9.8385,10.1337,10.3118,10.3929,10.4743,10.7401,10.6752,10.5283,10.5615,10.449,10.2959,10.2646,10.2518,10.2518,10.2518,10.2518,10.2518,10.2518,10.2518,10.2518,10.2518,10.2518,10.2518,10.2518,10.2518,10.333,10.5978,10.4187,10.333,10.5978,0.0,10.2518,10.2518,10.2518,10.2518,10.2518,10.2518,10.2518,10.2518,10.2518,10.2518,10.2518,10.2518,10.2518,10.2518,10.2518,10.2518,10.2518,10.5524,10.7958,10.9765,11.3149,11.6819,12.0842,12.104,12.2003,12.3611,12.3476,12.307,12.2664,12.4694,12.7889,13.1619,13.368,13.6278,13.8678,13.809,13.8164,13.8678,7.1359,7.2665,7.3971,7.5025,7.8433,8.0777,8.0255,8.2513,8.3904,8.2823,8.2658,8.2809,8.306,8.2859,8.2809,8.311,8.2859,8.2658,8.2658,8.2658,8.2809,8.306,8.311,8.3512,8.4315,8.3462,8.306,8.311,8.2809,8.2658,8.2658,8.2658,8.2658,8.2658,8.2658,8.2658,8.2658,8.2658,8.2658,8.2658,8.2658,8.2809,8.3276,8.446,8.683,8.9614,9.2418,9.5839,9.9409,10.1713,10.2888,10.3494,10.5147,10.4499,10.3092,10.3761,10.333,10.2518,10.2518,10.2518,10.2518,10.2518,10.2518,10.2518,10.2518,10.2518,10.2518,10.2518,10.2518,10.2518,10.2518,10.2518,10.3144,10.5446,10.3944,0.0,0.0,10.3822,10.2518,10.2518,10.2518,10.2518,10.2518,10.2518,10.2518,10.2518,10.2518,10.2518,10.2518,10.2518,10.2638,10.2997,10.2997,10.3176,10.3535,10.608,10.7736,10.8696,11.144,11.44,11.7137,11.7583,11.9349,12.2197,12.1796,12.2373,12.3814,12.5303,12.8303,13.2186,13.3963,13.6421,13.8898,13.809,13.7797,13.7906,7.1711,7.3268,7.4674,7.5477,7.9284,8.174,8.0456,8.2776,8.4172,8.2772,8.2658,8.2859,8.3412,8.311,8.301,8.3462,8.311,8.2809,8.2658,8.2658,8.2658,8.2658,8.3211,8.3612,8.3914,8.3361,8.311,8.3311,8.301,8.2809,8.2658,8.2658,8.2658,8.2658,8.2658,8.2658,8.2658,8.2809,8.2809,8.2658,8.2809,8.2809,8.2708,8.2809,8.4467,8.7083,8.9383,9.3165,9.7787,9.982,10.125,10.2512,10.3004,10.2486,10.18,10.2339,10.2518,10.2518,10.2518,10.2518,10.2518,10.2518,10.2518,10.2518,10.2518,10.2518,10.2518,10.2518,10.2518,10.2518,10.2518,10.2518,10.3019,10.4852,0.0,0.0,0.0,10.3699,10.2518,10.2518,10.2518,10.2518,10.2518,10.2518,10.2518,10.2518,10.2518,10.2518,10.2518,10.2518,10.2817,10.3595,10.3655,10.3895,10.4373,10.6442,10.7478,10.7366,11.0037,11.2045,11.392,11.485,11.7234,12.1105,12.0842,12.2136,12.4761,12.5776,12.8648,13.2611,13.4105,13.6565,13.9192,13.8384,13.772,13.7483,7.1811,7.3268,7.4925,7.6482,7.7939,7.9298,8.075,8.1665,8.2218,8.2608,8.2658,8.2859,8.3412,8.3462,8.3462,8.3512,8.3462,8.3211,8.2708,8.2658,8.2658,8.2658,8.3211,8.3261,8.2809,8.3713,8.3713,8.2708,8.3211,8.316,8.2658,8.2658,8.2658,8.2658,8.2658,8.2658,8.2708,8.3211,8.316,8.2708,8.3211,8.311,8.2708,8.3261,8.5031,8.751,8.8247,9.1852,9.6441,9.6633,9.8867,10.1691,10.1506,10.2046,10.2398,10.2518,10.2518,10.2518,10.2518,10.2518,10.2518,10.2518,10.2518,10.2518,10.2518,10.2518,10.2518,10.2518,10.2518,10.2518,10.2518,10.2518,10.2518,10.2646,0.0,0.0,10.2646,10.2646,10.2518,10.2518,10.2518,10.2518,10.2518,10.2518,10.2518,10.2518,10.2518,10.2518,10.2518,10.2518,10.3057,10.4313,10.4313,10.4373,10.4373,10.5823,10.6842,10.7366,10.8881,11.1107,11.392,11.5284,11.7741,12.1237,12.2319,12.36,12.4829,12.6318,12.9062,13.2611,13.4105,13.6853,13.9999,13.9192,13.902,13.9139,7.2715,7.4021,7.5226,7.618,7.8887,8.077,8.0053,8.2108,8.324,8.2269,8.2759,8.3412,8.3914,8.3713,8.3612,8.3964,8.3361,8.2909,8.2708,8.2658,8.2658,8.2658,8.2859,8.306,8.316,8.3261,8.3412,8.3713,8.3211,8.306,8.316,8.2809,8.2859,8.316,8.316,8.3361,8.3713,8.3914,8.3864,8.393,8.5758,8.6508,8.6512,8.835,8.9853,9.0931,9.2712,9.4612,9.6614,9.8444,10.01,10.1441,10.1441,10.1979,10.2082,10.0382,10.1015,10.2082,10.0441,10.1265,10.2518,10.2518,10.2518,10.2518,10.2518,10.1015,9.9997,9.9997,9.9997,9.9997,9.9997,10.1206,10.2518,10.2518,0.0,10.2518,10.2518,10.2518,10.2518,10.2518,10.2518,10.2518,10.2518,10.0824,9.9997,9.9997,9.8323,9.7334,9.7334,9.9721,10.2045,10.4373,10.563,10.6288,10.6288,10.6767,10.7605,10.8682,10.952,11.0841,11.2184,11.3638,11.6726,12.0987,12.0874,12.2845,12.6273,12.7452,12.9608,13.2745,13.4735,13.7556,14.0183,14.0086,14.0132,14.0268,7.3067,7.4222,7.5226,7.5929,7.8778,8.0661,7.9701,8.1956,8.3191,8.2168,8.2759,8.3462,8.4014,8.3713,8.3663,8.4014,8.3361,8.2859,8.2658,8.2658,8.2658,8.2658,8.2658,8.2859,8.3211,8.301,8.3211,8.3813,8.3412,8.3311,8.3512,8.3261,8.3412,8.3763,8.3763,8.3964,8.4315,8.4466,8.4854,8.5738,8.7771,8.9143,9.0024,9.1979,9.2899,9.3156,9.5121,9.6414,9.7249,9.827,9.9384,10.0306,9.9486,9.9587,9.9552,9.7476,9.8323,9.9358,9.7476,9.8323,10.019,10.2082,10.1834,10.1265,10.1265,9.8968,9.7078,9.7078,9.7078,9.7277,9.8126,9.9997,10.1455,10.233,10.2518,10.2518,10.2518,10.2518,10.2518,10.2518,10.2518,10.2142,10.1502,9.9474,9.7986,9.7362,9.5322,9.4189,9.4189,9.7901,10.0847,10.2906,10.5719,10.7306,10.7665,10.7904,10.8503,10.94,10.9999,11.0717,11.1316,11.2692,11.5434,11.9263,11.9944,12.2216,12.5985,12.7909,13.0325,13.2745,13.5217,13.7952,14.0318,14.09,14.1373,14.1748,7.2615,7.3669,7.4774,7.5879,7.6984,7.8239,7.9947,8.065,8.1453,8.2508,8.2658,8.2909,8.3412,8.3512,8.3512,8.3462,8.3462,8.3261,8.2708,8.2658,8.2658,8.2658,8.2658,8.2658,8.2658,8.3211,8.3211,8.2658,8.3763,8.4014,8.3512,8.4064,8.4315,8.4315,8.4315,8.4315,8.4366,8.4918,8.6466,8.8407,8.904,9.0769,9.2678,9.3287,9.3508,9.3563,9.3968,9.6076,9.7929,9.521,9.6076,9.7674,9.5007,9.4189,9.4189,9.4189,9.4189,9.4189,9.4189,9.4189,9.5469,10.1074,10.0382,9.8323,9.8323,9.6076,9.4189,9.4189,9.4189,9.5007,9.7674,9.8323,9.9163,10.2022,10.2518,10.2518,10.2518,10.2518,10.2518,10.2518,10.2518,10.1692,9.9442,9.8668,9.7362,9.5072,9.452,9.4189,9.4189,9.7446,9.9532,10.0223,10.4205,10.7007,10.8383,10.9101,10.94,10.94,10.9999,11.0717,11.1375,11.2692,11.4244,11.6284,12.0024,12.2167,12.3621,12.793,13.0744,13.2611,13.5217,13.8086,14.0747,14.1567,14.2823,14.4003,7.3669,7.4171,7.4774,7.5879,7.6984,7.7988,7.8892,8.0147,8.1302,8.1955,8.2759,8.3311,8.3462,8.3512,8.3361,8.296,8.2558,8.2257,8.2056,8.2457,8.2658,8.2658,8.2658,8.2658,8.2658,8.2859,8.301,8.3261,8.3211,8.3462,8.4064,8.3864,8.4165,8.4918,8.4918,8.5119,8.5521,8.5671,8.7286,8.9781,9.1841,9.4266,9.6764,9.9009,9.9704,9.9763,9.9939,9.9358,9.8126,9.7277,9.6277,9.521,9.4394,9.4189,9.3777,9.1955,9.2739,9.3777,9.1955,9.2739,9.4599,9.6277,9.6076,9.5413,9.5413,9.3363,9.1322,9.1322,9.1322,9.2166,9.5007,9.7078,9.9163,10.2022,10.2518,10.2518,10.2518,10.2518,10.2518,10.2518,10.2518,10.1692,9.9442,9.6874,9.4465,9.2338,8.9817,8.9287,9.1322,9.2706,9.4777,9.726,10.1894,10.4709,10.5322,10.8179,10.9819,11.0717,11.0897,11.1615,11.2752,11.359,11.6614,12.0974,12.1922,12.4676,12.8369,13.1833,13.3413,13.4235,13.7677,14.0031,14.1664,14.2747,14.379,14.4912,7.3569,7.4121,7.4674,7.5578,7.6833,7.7988,7.8741,7.9896,8.0951,8.1704,8.2206,8.2608,8.2809,8.2658,8.2407,8.2056,8.1704,8.1604,8.1805,8.2156,8.2407,8.2658,8.2658,8.2658,8.2658,8.2658,8.2859,8.316,8.306,8.3361,8.3964,8.3864,8.4315,8.5119,8.5119,8.547,8.5973,8.7255,8.9287,9.1955,9.4803,9.7476,10.019,10.1893,10.2518,10.2518,10.2518,10.0633,9.8126,9.7078,9.4189,9.0951,9.0951,9.0951,9.0738,8.8853,8.9666,9.0524,8.8853,8.9719,9.0951,9.0951,9.1745,9.253,9.253,9.0524,8.847,8.847,8.847,8.9666,9.357,9.5616,9.7929,10.1893,10.2518,10.2518,10.2518,10.2518,10.2518,10.2518,10.1455,10.0037,9.7787,9.4575,9.1482,8.9155,8.7016,8.6641,8.847,9.0027,9.207,9.4321,9.9051,10.2295,10.4025,10.6667,10.9163,11.1316,11.1316,11.2034,11.3291,11.3709,11.6352,12.0721,12.1858,12.4967,12.9755,13.3266,13.5293,13.6581,13.9526,14.1478,14.2716,14.3727,14.4792,14.5904,7.2816,7.372,7.4674,7.5226,7.6682,7.8139,7.9243,7.9846,8.0599,8.1604,8.1302,8.1202,8.1704,8.1302,8.1001,8.0901,8.0901,8.1102,8.1654,8.1704,8.2005,8.2558,8.2608,8.2608,8.2658,8.2658,8.2658,8.2658,8.316,8.3462,8.3512,8.4014,8.4567,8.5069,8.5119,8.542,8.6095,8.8636,9.1533,9.4394,9.6879,9.9804,10.2518,10.2518,10.2518,10.2518,10.227,10.0382,9.7476,9.4394,9.0096,8.6023,8.6023,8.6023,8.6023,8.6023,8.6023,8.6023,8.6023,8.6023,8.6023,8.6023,8.7865,8.9666,8.9666,8.7865,8.6023,8.6023,8.6023,8.7645,9.3156,9.4189,9.6076,10.1645,10.2518,10.2518,10.2518,10.2518,10.2458,10.2082,9.9804,9.7306,9.481,9.1697,8.8688,8.6196,8.6023,8.6023,8.6023,8.8768,9.0822,9.1452,9.5895,10.0125,10.3759,10.5292,10.7746,11.1375,11.1375,11.2094,11.341,11.335,11.475,11.741,12.0403,12.4293,12.9148,13.3269,13.6461,13.912,14.1013,14.261,14.3908,14.4671,14.5844,14.7028,7.3318,7.4322,7.5226,7.5778,7.7235,7.8591,7.9294,7.9846,8.0449,8.1102,8.1102,8.1051,8.1202,8.1102,8.07,7.9846,7.9746,7.9997,8.0499,8.0951,8.1453,8.1955,8.2005,8.2206,8.2658,8.2658,8.2658,8.2658,8.2809,8.306,8.3512,8.3612,8.3964,8.4516,8.4968,8.5219,8.537,8.6388,8.9719,9.4189,9.4803,9.8126,10.2518,10.2518,10.2518,10.227,9.9997,9.7476,9.4394,8.9503,8.7034,8.6023,8.6023,8.6023,8.6023,8.6023,8.6023,8.6023,8.6023,8.6023,8.6023,8.6023,8.6368,8.6813,8.6813,8.6419,8.6023,8.6023,8.6023,8.7645,9.3156,9.4189,9.6076,10.1645,10.2518,10.2518,10.2518,10.2518,10.1645,9.9552,9.8715,9.6503,9.2125,8.9195,8.7097,8.6023,8.6023,8.6023,8.6023,8.7097,8.7878,8.8436,9.3081,9.7086,10.0739,10.4176,10.8038,11.2094,11.2094,11.2812,11.4069,11.353,11.5757,11.9704,12.064,12.5207,13.2471,13.5386,13.8102,14.0711,14.364,14.5057,14.5501,14.6007,14.6856,14.7798,7.3468,7.4473,7.5427,7.5979,7.7185,7.8239,7.854,7.8842,7.9193,7.9746,7.9595,7.9545,7.9796,7.9595,7.9193,7.8641,7.8842,7.9193,7.9796,8.0348,8.0901,8.1403,8.1654,8.1955,8.2257,8.2508,8.2658,8.2658,8.2658,8.2809,8.311,8.311,8.3412,8.3914,8.4215,8.4667,8.534,8.8333,9.1265,9.4394,9.7078,9.9997,10.2518,10.2518,10.1704,10.0382,9.8715,9.5616,9.1533,8.7476,8.6023,8.6023,8.6023,8.6023,8.6023,8.6023,8.6023,8.6023,8.6023,8.6023,8.6023,8.6023,8.6023,8.6023,8.6023,8.6023,8.6023,8.6023,8.6023,8.7645,9.3156,9.4189,9.6076,10.1645,10.2518,10.2518,10.2518,10.1206,9.9997,9.8519,9.6076,9.2902,8.8884,8.7219,8.6274,8.6023,8.6023,8.6123,8.6374,8.6877,8.7429,8.8032,9.1106,9.4324,9.7682,10.1749,10.5746,10.9754,11.1476,11.2692,11.335,11.359,11.5834,11.9737,12.0761,12.5928,13.3623,13.6092,13.9514,14.3416,14.5452,14.6667,14.7446,14.7599,14.8202,14.8798,7.3468,7.4473,7.5427,7.5979,7.6984,7.7687,7.7687,7.7687,7.7888,7.834,7.7988,7.7888,7.834,7.7888,7.7586,7.7687,7.8139,7.8641,7.9193,7.9746,8.0298,8.085,8.1302,8.1604,8.1805,8.2257,8.2558,8.2658,8.2658,8.2658,8.2658,8.2658,8.2909,8.3361,8.3462,8.4014,8.5258,9.0358,9.2966,9.3873,9.891,10.1455,10.1645,10.1265,9.9997,9.8126,9.7277,9.3308,8.8315,8.5872,8.53,8.53,8.53,8.5525,8.6023,8.6023,8.6023,8.6023,8.6023,8.6023,8.6023,8.6023,8.6023,8.6023,8.6023,8.6023,8.6023,8.6023,8.6023,8.7645,9.3156,9.4189,9.6076,10.1645,10.2518,10.227,10.1834,9.9745,9.7929,9.7078,9.2585,8.847,8.6196,8.6023,8.6023,8.6023,8.6023,8.6224,8.6776,8.7278,8.7881,8.8433,9.009,9.2253,9.5269,9.8873,10.2421,10.6033,10.9125,11.1328,11.2513,11.341,11.5527,11.9033,12.0633,12.6132,13.4099,13.6287,14.041,14.5765,14.6905,14.8058,14.919,14.9256,14.9416,14.949,7.3468,7.4473,7.5427,7.5979,7.6984,7.7687,7.7687,7.7687,7.7737,7.7787,7.7737,7.7737,7.7787,7.7335,7.7185,7.7637,7.7787,7.8038,7.8591,7.9193,7.9746,8.0298,8.0398,8.085,8.1805,8.1905,8.2156,8.2658,8.2658,8.2658,8.2658,8.2658,8.2708,8.2809,8.3261,8.3562,8.3981,8.8032,8.994,9.0258,9.3818,9.6679,9.8519,9.6277,9.6478,9.7674,9.2948,8.7389,8.2285,8.1875,8.1923,8.1923,8.1923,8.3797,8.6023,8.6023,8.6023,8.6023,8.6023,8.6023,8.6023,8.6023,8.6023,8.6023,8.6023,8.6023,8.6023,8.6023,8.6023,8.7645,9.3156,9.4189,9.6076,10.1645,10.2518,10.1645,9.9163,9.8519,9.6478,9.1745,8.847,8.6419,8.6023,8.6023,8.6023,8.6023,8.6023,8.6224,8.6776,8.7278,8.7881,8.8433,9.009,9.2253,9.5269,9.6888,9.907,10.2254,10.3307,10.7108,11.3111,11.2213,11.4988,12.0377,12.0057,12.553,13.4873,13.6813,14.0751,14.5963,14.8716,14.9884,15.0101,15.0375,15.0066,14.949,7.3468,7.4724,7.5778,7.603,7.6733,7.7134,7.6833,7.6783,7.6783,7.6783,7.6783,7.6783,7.6783,7.6582,7.6632,7.7185,7.7536,7.7938,7.849,7.9043,7.9495,7.9746,8.0047,8.0449,8.0901,8.1503,8.1905,8.2206,8.2508,8.2658,8.2658,8.2658,8.2658,8.2658,8.2909,8.4022,8.5933,8.9609,9.1184,9.1771,9.519,9.6277,9.5818,9.4599,9.3983,9.3156,8.9287,8.4876,8.1184,8.1184,8.1184,8.1184,8.1184,8.3343,8.6023,8.6023,8.6023,8.6023,8.6023,8.6023,8.6023,8.6023,8.6023,8.6023,8.6023,8.6023,8.6023,8.6023,8.6023,8.7645,9.3156,9.4189,9.6076,10.1645,10.1265,9.9745,9.8519,9.7078,9.5007,9.2739,8.9881,8.8252,8.8252,8.6813,8.6123,8.6425,8.6425,8.6776,8.768,8.7931,8.8383,8.8885,9.0191,9.1601,9.29,9.556,9.7648,9.9016,10.0536,10.4235,10.9746,10.9863,11.3718,12.0121,12.0633,12.5931,13.4377,13.6654,14.0918,14.6173,14.8667,15.023,15.1232,15.1373,15.1183,15.0875]}]]